[[{"header":{"parameterUnit":"m.s-1","parameterCategory":1,"la1":30.6,"la2":29.2853,"lo1":-89.7004,"lo2":-87.6739,"dy":0.0162,"dx":0.0183,"nx":112,"ny":82,"refTime":"2023-04-24T06:00:00:Z","depth":0,"parameterNumber":2,"parameterNumberName":"U-component_of_WINDS"},"data":[0.0,0.0,0.0,0.0,0.0,0.0,0.0,0.0,0.0,0.0,0.0,0.0,0.0,0.0,0.0,0.0,0.0,0.0,0.0,0.0,0.0,0.0,0.0,0.0,0.0,0.0,0.0,0.0,0.0,0.0,0.0,0.0,0.0,0.0,0.0,0.0,0.0,0.0,0.0,0.0,0.0,0.0,0.0,0.0,0.0,0.0,0.0,0.0,0.0,0.0,0.0,0.0,0.0,0.0,0.0,0.0,0.0,0.0,0.0,0.0,0.0,0.0,0.0,0.0,0.0,0.0,0.0,0.0,0.0,0.0,0.0,0.0,0.0,0.0,0.0,0.0,0.0,0.0,0.0,0.0,0.0,0.0,0.0,0.0,0.0,0.0,0.0,0.0,0.0,0.0,-0.6409,-0.6552,-0.6912,-0.7235,-0.7598,-0.7478,-0.6873,-0.5736,0.0,0.0,0.0,0.0,0.0,0.0,0.0,0.0,0.0,0.0,0.0,0.0,0.0,0.0,0.0,0.0,0.0,0.0,0.0,0.0,0.0,0.0,0.0,0.0,0.0,0.0,0.0,0.0,0.0,0.0,0.0,0.0,0.0,0.0,0.0,0.0,0.0,0.0,0.0,0.0,0.0,0.0,0.0,0.0,0.0,0.0,0.0,0.0,0.0,0.0,0.0,0.0,0.0,0.0,0.0,0.0,0.0,0.0,0.0,0.0,0.0,0.0,0.0,0.0,0.0,0.0,0.0,0.0,0.0,0.0,0.0,0.0,0.0,0.0,0.0,0.0,0.0,0.0,0.0,0.0,0.0,0.0,0.0,0.0,0.0,0.0,0.0,0.0,0.0,0.0,0.0,0.0,0.0,0.0,0.0,0.0,0.0,0.0,0.0,0.0,0.0,0.0,0.0,0.0,-0.5951,-0.6889,-0.7058,-0.7547,-0.8584,-0.8648,-0.813,-0.6913,0.0,0.0,0.0,0.0,0.0,0.0,0.0,0.0,0.0,0.0,0.0,0.0,0.0,0.0,0.0,0.0,0.0,0.0,0.0,0.0,0.0,0.0,0.0,0.0,0.0,0.0,0.0,0.0,0.0,0.0,0.0,0.0,0.0,0.0,0.0,0.0,0.0,0.0,0.0,0.0,0.0,0.0,0.0,0.0,0.0,0.0,0.0,0.0,0.0,0.0,0.0,0.0,0.0,0.0,0.0,0.0,0.0,0.0,0.0,0.0,0.0,0.0,0.0,0.0,0.0,0.0,0.0,0.0,0.0,0.0,0.0,0.0,0.0,0.0,0.0,0.0,0.0,0.0,0.0,0.0,0.0,0.0,0.0,0.0,0.0,0.0,0.0,0.0,0.0,0.0,0.0,0.0,0.0,0.0,0.0,0.0,0.0,0.0,0.0,0.0,0.0,0.0,0.0,-0.5603,-0.6447,-0.791,-0.8061,-0.8536,-0.9705,-0.9836,-0.9052,-0.7211,-0.6621,0.0,0.0,0.0,0.0,0.0,0.0,0.0,0.0,0.0,0.0,0.0,0.0,0.0,0.0,0.0,0.0,0.0,0.0,0.0,0.0,0.0,0.0,0.0,0.0,0.0,0.0,0.0,0.0,0.0,0.0,0.0,0.0,0.0,0.0,0.0,0.0,0.0,0.0,0.0,0.0,0.0,0.0,0.0,0.0,0.0,0.0,0.0,0.0,0.0,0.0,0.0,0.0,0.0,0.0,0.0,0.0,0.0,0.0,0.0,0.0,0.0,0.0,0.0,0.0,0.0,0.0,0.0,0.0,0.0,0.0,0.0,0.0,0.0,0.0,0.0,0.0,0.0,0.0,0.0,0.0,0.0,0.0,0.0,0.0,0.0,0.0,0.0,0.0,0.0,0.0,0.0,0.0,0.0,0.0,0.0,0.0,0.0,0.0,0.0,0.0,0.0,0.0,-0.6369,-0.733,-0.8356,-0.8492,-0.9061,-1.0476,-1.0329,-0.9429,-0.7631,-0.7248,0.0,0.0,0.0,0.0,0.0,0.0,0.0,0.0,0.0,0.0,0.0,0.0,0.0,0.0,0.0,0.0,0.0,0.0,0.0,0.0,0.0,0.0,0.0,0.0,0.0,0.0,0.0,0.0,0.0,0.0,0.0,0.0,0.0,0.0,0.0,0.0,0.0,0.0,0.0,0.0,0.0,0.0,0.0,0.0,0.0,0.0,0.0,0.0,0.0,0.0,0.0,0.0,0.0,0.0,0.0,0.0,0.0,0.0,0.0,0.0,0.0,0.0,0.0,0.0,0.0,0.0,0.0,0.0,0.0,0.0,0.0,0.0,0.0,0.0,0.0,0.0,0.0,0.0,0.0,0.0,0.0,0.0,0.0,0.0,0.0,0.0,0.0,0.0,0.0,0.0,0.0,0.0,0.0,0.0,0.0,0.0,0.0,0.0,0.0,0.0,0.0,0.0,-0.7414,-0.8313,-0.7356,-0.7224,-0.8141,-1.0389,-0.9616,-0.8905,-0.8712,-0.7674,0.0,0.0,0.0,0.0,0.0,0.0,0.0,0.0,0.0,0.0,0.0,0.0,0.0,0.0,0.0,0.0,0.0,0.0,0.0,0.0,0.0,0.0,0.0,0.0,0.0,0.0,0.0,0.0,0.0,0.0,0.0,0.0,0.0,0.0,0.0,0.0,0.0,0.0,0.0,0.0,0.0,0.0,0.0,0.0,0.0,0.0,0.0,0.0,0.0,0.0,0.0,0.0,0.0,0.0,0.0,0.0,0.0,0.0,0.0,0.0,0.0,0.0,0.0,0.0,0.0,0.0,0.0,0.0,0.0,0.0,0.0,0.0,0.0,0.0,0.0,0.0,0.0,0.0,0.0,0.0,0.0,0.0,0.0,0.0,0.0,0.0,0.0,0.0,0.0,0.0,0.0,0.0,0.0,0.0,0.0,0.0,0.0,0.0,0.0,0.0,0.0,0.0,-0.6698,-0.7662,-0.8294,-0.8247,-0.8886,-1.0486,-1.0846,-1.0136,-0.8015,0.0,0.0,0.0,0.0,0.0,0.0,0.0,0.0,0.0,0.0,0.0,0.0,0.0,0.0,0.0,0.0,0.0,0.0,0.0,0.0,0.0,0.0,0.0,0.0,0.0,0.0,0.0,0.0,0.0,0.0,0.0,0.0,0.0,0.0,0.0,0.0,0.0,0.0,0.0,0.0,0.0,0.0,0.0,0.0,0.0,0.0,0.0,0.0,0.0,0.0,0.0,0.0,0.0,0.0,0.0,0.0,0.0,0.0,0.0,0.0,0.0,0.0,0.0,0.0,0.0,0.0,0.0,0.0,0.0,0.0,0.0,0.0,0.0,0.0,0.0,0.0,0.0,0.0,0.0,0.0,0.0,0.0,0.0,0.0,0.0,0.0,0.0,0.0,0.0,0.0,0.0,0.0,0.0,0.0,0.0,0.0,0.0,0.0,0.0,0.0,0.0,0.0,-0.651,-0.7673,-0.8801,-0.9634,-0.9561,-0.9879,-1.1037,-1.1528,-1.0623,-0.7996,0.0,0.0,0.0,0.0,0.0,0.0,0.0,0.0,0.0,0.0,0.0,0.0,0.0,0.0,0.0,0.0,0.0,0.0,0.0,0.0,0.0,0.0,0.0,0.0,0.0,0.0,0.0,0.0,0.0,0.0,0.0,0.0,0.0,0.0,0.0,0.0,0.0,0.0,0.0,0.0,0.0,0.0,0.0,0.0,0.0,0.0,0.0,0.0,0.0,0.0,0.0,0.0,0.0,0.0,0.0,0.0,0.0,0.0,0.0,0.0,0.0,0.0,0.0,0.0,0.0,0.0,0.0,0.0,0.0,0.0,0.0,0.0,0.0,0.0,0.0,0.0,0.0,0.0,0.0,0.0,0.0,0.0,0.0,0.0,0.0,0.0,0.0,0.0,0.0,0.0,0.0,0.0,0.0,0.0,0.0,0.0,0.0,0.0,0.0,0.0,0.0,0.0,-0.8162,-1.0819,-1.2369,-1.1216,-1.0791,-1.1037,-1.2194,-1.1276,-1.014,0.0,0.0,0.0,0.0,0.0,0.0,0.0,0.0,0.0,0.0,0.0,0.0,0.0,0.0,0.0,0.0,0.0,0.0,0.0,0.0,0.0,0.0,0.0,0.0,0.0,0.0,0.0,0.0,0.0,0.0,0.0,0.0,0.0,0.0,0.0,0.0,0.0,0.0,0.0,0.0,0.0,0.0,0.0,0.0,0.0,0.0,0.0,0.0,0.0,0.0,0.0,0.0,0.0,0.0,0.0,0.0,0.0,0.0,0.0,0.0,0.0,0.0,0.0,0.0,0.0,0.0,0.0,0.0,0.0,0.0,0.0,0.0,0.0,0.0,0.0,0.0,0.0,0.0,0.0,0.0,0.0,0.0,0.0,0.0,0.0,0.0,0.0,0.0,0.0,0.0,0.0,0.0,0.0,0.0,0.0,0.0,0.0,0.0,0.0,0.0,0.0,0.0,0.0,-0.8167,-1.0268,-1.1591,-1.1273,-1.0838,-1.0735,-1.108,-1.155,-1.0723,-0.8103,0.0,0.0,0.0,0.0,0.0,0.0,0.0,0.0,0.0,0.0,0.0,0.0,0.0,0.0,0.0,0.0,0.0,0.0,0.0,0.0,0.0,0.0,0.0,0.0,0.0,0.0,0.0,0.0,0.0,0.0,0.0,0.0,0.0,0.0,0.0,0.0,0.0,0.0,0.0,0.0,0.0,0.0,0.0,0.0,0.0,0.0,0.0,0.0,0.0,0.0,0.0,0.0,0.0,0.0,0.0,0.0,0.0,0.0,0.0,0.0,0.0,0.0,0.0,0.0,0.0,0.0,0.0,0.0,0.0,0.0,0.0,0.0,0.0,0.0,0.0,0.0,0.0,0.0,0.0,0.0,0.0,0.0,0.0,0.0,0.0,0.0,0.0,0.0,0.0,0.0,0.0,0.0,0.0,0.0,0.0,0.0,0.0,0.0,0.0,0.0,0.0,0.0,-0.9016,-1.1294,-1.2906,-1.2814,-1.2392,-1.2106,-1.2003,-1.2601,-1.1927,-0.9348,0.0,0.0,0.0,0.0,0.0,0.0,0.0,0.0,0.0,0.0,0.0,0.0,0.0,0.0,0.0,0.0,0.0,0.0,0.0,0.0,0.0,0.0,0.0,0.0,0.0,0.0,0.0,0.0,0.0,0.0,0.0,0.0,0.0,0.0,0.0,0.0,0.0,0.0,0.0,0.0,0.0,0.0,0.0,0.0,0.0,0.0,0.0,0.0,0.0,0.0,0.0,0.0,0.0,0.0,0.0,0.0,0.0,0.0,0.0,0.0,0.0,0.0,0.0,0.0,0.0,0.0,0.0,0.0,0.0,0.0,0.0,0.0,0.0,0.0,0.0,0.0,0.0,0.0,0.0,0.0,0.0,0.0,0.0,0.0,0.0,0.0,0.0,0.0,0.0,0.0,0.0,0.0,0.0,0.0,0.0,0.0,0.0,0.0,0.0,0.0,0.0,0.0,-1.0196,-1.3247,-1.5297,-1.5075,-1.4736,-1.4442,-1.4148,-1.4122,-1.3446,-1.1848,0.0,0.0,0.0,0.0,0.0,0.0,0.0,0.0,0.0,0.0,0.0,0.0,0.0,0.0,0.0,0.0,0.0,0.0,0.0,0.0,0.0,0.0,0.0,0.0,0.0,0.0,0.0,0.0,0.0,0.0,0.0,0.0,0.0,0.0,0.0,0.0,0.0,0.0,0.0,0.0,0.0,0.0,0.0,0.0,0.0,0.0,0.0,0.0,0.0,0.0,0.0,0.0,0.0,0.0,0.0,0.0,0.0,0.0,0.0,0.0,-0.4356,0.0,0.0,0.0,0.0,0.0,0.0,0.0,0.0,0.0,0.0,0.0,0.0,0.0,0.0,0.0,0.0,0.0,0.0,0.0,0.0,0.0,0.0,0.0,0.0,0.0,0.0,0.0,0.0,0.0,0.0,0.0,0.0,0.0,0.0,0.0,0.0,0.0,0.0,0.0,0.0,0.0,-1.0196,-1.3247,-1.5378,-1.5311,-1.5044,-1.475,-1.4456,-1.4429,-1.3733,-1.2132,-1.1548,0.0,0.0,0.0,0.0,0.0,0.0,0.0,0.0,0.0,0.0,0.0,0.0,0.0,0.0,0.0,0.0,0.0,0.0,0.0,0.0,0.0,0.0,0.0,0.0,0.0,0.0,0.0,0.0,0.0,0.0,0.0,0.0,0.0,0.0,0.0,0.0,0.0,0.0,0.0,0.0,0.0,0.0,0.0,0.0,0.0,0.0,0.0,0.0,0.0,0.0,0.0,0.0,0.0,0.0,0.0,0.0,0.0,0.0,0.0,0.0,-0.4929,0.0,0.0,0.0,0.0,0.0,0.0,0.0,0.0,0.0,0.0,0.0,0.0,0.0,0.0,0.0,0.0,0.0,0.0,0.0,0.0,0.0,0.0,0.0,0.0,0.0,0.0,0.0,0.0,0.0,0.0,0.0,0.0,0.0,0.0,0.0,0.0,0.0,0.0,0.0,0.0,-1.0538,-1.351,-1.5551,-1.5404,-1.5257,-1.5057,-1.4763,-1.4736,-1.4392,-1.3548,-1.2624,0.0,0.0,0.0,0.0,0.0,0.0,0.0,0.0,0.0,0.0,0.0,0.0,0.0,0.0,0.0,0.0,0.0,0.0,0.0,0.0,0.0,0.0,0.0,0.0,0.0,0.0,0.0,0.0,0.0,0.0,0.0,0.0,0.0,0.0,0.0,0.0,0.0,0.0,0.0,0.0,0.0,0.0,0.0,0.0,0.0,0.0,0.0,0.0,0.0,0.0,0.0,0.0,0.0,-0.719,-0.7183,-0.717,-0.7267,-0.7233,-0.7071,-0.6932,-0.6724,-0.6499,-0.5565,0.0,0.0,0.0,0.0,0.0,0.0,0.0,0.0,0.0,0.0,0.0,0.0,0.0,0.0,0.0,0.0,0.0,0.0,0.0,0.0,0.0,0.0,0.0,0.0,-0.7427,-0.751,0.0,0.0,0.0,0.0,0.0,0.0,0.0,0.0,0.0,0.0,0.0,0.0,-1.1219,-1.3936,-1.5738,-1.5498,-1.5471,-1.5351,-1.5115,-1.485,-1.4714,-1.4714,-1.3119,-1.217,0.0,0.0,0.0,0.0,0.0,0.0,0.0,0.0,0.0,0.0,0.0,0.0,0.0,0.0,0.0,0.0,0.0,0.0,0.0,0.0,0.0,0.0,0.0,0.0,0.0,0.0,0.0,0.0,0.0,0.0,0.0,0.0,-0.6388,-0.6661,0.0,0.0,0.0,0.0,0.0,0.0,0.0,0.0,0.0,0.0,0.0,0.0,0.0,-0.6723,-0.7305,-0.7163,-0.7421,-0.8099,-0.8221,-0.8214,-0.8099,-0.8241,-0.8153,-0.7826,-0.7604,0.0,-0.7576,-0.719,0.0,0.0,0.0,0.0,0.0,0.0,0.0,0.0,0.0,0.0,0.0,0.0,0.0,0.0,0.0,0.0,0.0,0.0,0.0,0.0,0.0,0.0,-0.8063,-0.9348,-0.8739,-0.8237,0.0,-0.8811,-0.7926,-0.786,-0.8775,0.0,0.0,0.0,0.0,0.0,0.0,0.0,-1.2589,-1.4553,-1.5771,-1.5731,-1.5765,-1.5658,-1.5364,-1.4297,-1.3624,-1.3624,-1.2327,-1.1698,-1.1962,-1.0089,0.0,0.0,0.0,0.0,0.0,0.0,0.0,0.0,0.0,0.0,0.0,0.0,0.0,0.0,0.0,0.0,0.0,0.0,0.0,0.0,0.0,0.0,0.0,0.0,0.0,0.0,0.0,0.0,0.0,-0.6254,-0.6776,-0.7163,-0.6966,-0.6634,0.0,0.0,0.0,0.0,0.0,0.0,0.0,0.0,0.0,-0.7183,-0.7054,-0.7351,-0.7991,-0.7929,-0.8106,-0.852,-0.8492,-0.8492,-0.852,-0.8581,-0.854,-0.8411,-0.837,-0.8384,-0.8404,-0.7848,-0.7617,-0.7563,0.0,0.0,0.0,0.0,-0.6613,-0.6647,-0.691,-0.702,0.0,-0.7197,0.0,0.0,0.0,0.0,0.0,0.0,0.0,0.0,0.0,0.0,-0.7712,-0.8637,-0.8428,-0.8137,-0.8726,-0.9066,-0.8894,0.0,-0.8065,-0.8093,-0.6845,0.0,0.0,0.0,0.0,-1.2381,-1.3393,-1.4846,-1.5784,-1.5784,-1.5784,-1.5731,-1.5645,-1.5102,-1.443,-1.3755,-1.3174,-1.256,-1.194,-1.035,-0.9311,0.0,0.0,0.0,0.0,0.0,0.0,0.0,0.0,0.0,0.0,0.0,0.0,0.0,0.0,0.0,0.0,0.0,0.0,0.0,0.0,0.0,0.0,0.0,0.0,0.0,0.0,0.0,0.0,-0.6512,-0.7122,-0.7495,-0.7346,-0.7061,0.0,0.0,0.0,0.0,0.0,0.0,-0.6749,-0.6797,-0.7129,-0.7807,-0.7753,-0.7977,-0.8533,-0.8581,-0.8676,-0.8825,-0.871,-0.871,-0.8825,-0.8784,-0.875,-0.8716,-0.8832,-0.8824,-0.8784,-0.8275,-0.8038,-0.8024,-0.7868,-0.7543,-0.7125,-0.7274,-0.7321,-0.7348,-0.7503,-0.7847,-0.819,-0.8092,0.0,-0.8085,-0.7712,0.0,0.0,0.0,0.0,-0.6689,-0.7088,-0.724,-0.7435,-0.788,-0.7988,-0.7988,-0.7988,-0.8775,-0.9162,0.0,-0.8397,-0.856,-0.7612,0.0,0.0,0.0,0.0,-1.3378,-1.429,-1.5188,-1.5784,-1.5784,-1.5784,-1.5784,-1.5784,-1.5486,-1.4902,-1.3968,-1.3584,-1.2958,-1.195,-1.0681,-0.9767,-0.9191,0.0,0.0,0.0,0.0,0.0,0.0,0.0,0.0,0.0,0.0,0.0,0.0,0.0,0.0,0.0,0.0,0.0,0.0,0.0,0.0,0.0,0.0,0.0,0.0,0.0,0.0,0.0,0.0,0.0,-0.736,-0.8113,0.0,0.0,0.0,0.0,-0.6497,-0.6586,-0.6939,-0.7509,-0.7672,-0.7957,-0.8425,-0.8574,-0.8662,-0.8696,-0.879,-0.8988,-0.9187,-0.918,-0.918,-0.918,-0.8988,-0.8845,-0.871,-0.8716,-0.8723,-0.8716,-0.8682,-0.8662,-0.8608,-0.8038,-0.7794,-0.7787,-0.7887,-0.7941,-0.8029,-0.8595,-0.8811,-0.8811,-0.8716,-0.8574,-0.835,-0.7773,-0.757,0.0,0.0,-0.6993,-0.7364,-0.7398,-0.7678,-0.7955,-0.7982,-0.7988,-0.7988,-0.7988,-0.8038,-0.8471,0.0,-1.1869,-1.2927,-1.0921,0.0,-1.3401,-1.2703,-1.3318,-1.4291,-1.552,-1.5784,-1.5784,-1.5784,-1.5784,-1.5784,-1.5784,-1.4698,-1.3968,-1.392,-1.2716,-1.195,-1.1901,-1.0681,-0.9976,-0.9926,-0.7953,0.0,0.0,0.0,0.0,0.0,0.0,0.0,0.0,0.0,0.0,0.0,0.0,0.0,0.0,0.0,0.0,0.0,0.0,0.0,0.0,0.0,0.0,0.0,0.0,0.0,0.0,0.0,0.0,-0.7958,-0.8147,0.0,-0.7705,-0.7678,-0.7563,-0.7346,-0.7923,-0.8422,-0.8641,-0.8702,-0.8791,-0.9055,-0.9015,-0.9042,-0.9144,-0.9198,-0.9245,-0.93,-0.93,-0.93,-0.93,-0.9245,-0.9137,-0.8994,-0.8994,-0.894,-0.8804,-0.8804,-0.8804,-0.8784,-0.8568,-0.8487,-0.8494,-0.8548,-0.8561,-0.8595,-0.8811,-0.8885,-0.8871,-0.8817,-0.8818,-0.8716,-0.8411,-0.8248,-0.8106,-0.7801,-0.7753,-0.7801,-0.7801,-0.7874,-0.7988,-0.7988,-0.7988,-0.7988,-0.7988,-0.7988,-0.8137,-0.8627,-0.9452,-0.9883,-0.913,-1.0341,-1.1279,-1.1042,-1.1925,-1.2764,-1.3258,-1.3307,-1.3644,-1.4507,-1.4555,-1.4555,-1.4555,-1.4172,-1.3536,-1.2668,-1.2134,-1.1901,-1.1901,-1.0681,-1.0002,-1.0002,-0.8446,-0.7078,0.0,0.0,0.0,0.0,0.0,0.0,0.0,0.0,0.0,0.0,0.0,0.0,0.0,0.0,0.0,0.0,0.0,0.0,0.0,0.0,0.0,0.0,0.0,0.0,0.0,-0.7224,-0.7957,-0.8303,-0.8479,-0.8526,-0.8425,-0.8418,-0.8377,-0.8269,-0.8866,-0.9289,-0.9289,-0.9289,-0.933,-0.9374,-0.9334,-0.9354,-0.9456,-0.9503,-0.953,-0.953,-0.953,-0.953,-0.953,-0.9483,-0.9401,-0.9306,-0.9309,-0.9144,-0.9008,-0.9008,-0.8981,-0.8885,-0.8885,-0.8885,-0.8885,-0.8885,-0.8885,-0.8885,-0.8885,-0.8885,-0.8885,-0.8885,-0.8885,-0.8844,-0.8696,-0.856,-0.8438,-0.8248,-0.8119,-0.7988,-0.7988,-0.7988,-0.7988,-0.7988,-0.7988,-0.7988,-0.7988,-0.7988,-0.8008,-0.8106,-0.8421,-0.8701,-0.8718,-0.9849,-1.0668,-1.0631,-1.1447,-1.1971,-1.1773,-1.2269,-1.2963,-1.3707,-1.3849,-1.392,-1.392,-1.3356,-1.2674,-1.1968,-1.176,-1.1522,-1.1249,-1.015,-0.9329,-0.8973,-0.7819,-0.6871,-0.6044,0.0,0.0,0.0,0.0,0.0,0.0,0.0,0.0,0.0,0.0,0.0,0.0,0.0,0.0,0.0,0.0,0.0,0.0,0.0,0.0,0.0,0.0,0.0,-0.7071,-0.7821,-0.8408,-0.8513,-0.9178,-0.9503,-0.9268,-0.9449,-0.9503,-0.9262,-0.932,-0.9408,-0.9408,-0.9408,-0.9408,-0.9408,-0.9551,-0.9632,-0.9632,-0.9761,-0.9829,-0.9829,-0.9822,-0.9822,-0.9815,-0.968,-0.9612,-0.9598,-0.9456,-0.93,-0.9214,-0.9214,-0.9076,-0.8898,-0.8885,-0.8885,-0.8885,-0.8885,-0.8885,-0.8885,-0.8885,-0.8885,-0.8885,-0.8885,-0.8885,-0.8824,-0.8581,-0.8486,-0.8425,-0.8083,-0.7995,-0.7995,-0.7988,-0.7995,-0.7995,-0.7988,-0.7995,-0.7995,-0.7995,-0.7995,-0.8092,-0.8248,-0.9203,-0.9974,-1.0102,-1.1143,-1.1928,-1.1795,-1.2004,0.0,-1.1379,-1.2831,-1.3805,-1.353,-1.3664,-1.3765,-1.3778,-1.2184,-1.1337,-1.1821,-1.1424,-1.0811,-1.0098,-0.913,-0.8096,-0.6959,-0.622,-0.62,-0.6883,0.0,0.0,0.0,0.0,0.0,0.0,0.0,0.0,0.0,0.0,0.0,0.0,0.0,0.0,0.0,0.0,0.0,0.0,0.0,0.0,0.0,-0.7453,-0.7869,-0.7943,-0.8559,-0.9089,-0.9564,-0.9741,-0.9835,-0.9808,-0.9815,-0.9829,-0.9808,-0.9944,-1.0032,-1.0032,-1.0032,-1.0032,-1.0032,-1.0073,-1.01,-1.01,-1.0025,-0.9923,-0.9923,-0.9876,-0.9822,-0.9822,-0.9781,-0.9707,-0.9605,-0.9564,-0.9462,-0.932,-0.932,-0.9293,-0.9239,-0.9022,-0.8885,-0.8885,-0.8885,-0.8885,-0.8885,-0.8885,-0.8885,-0.8885,-0.8885,-0.8885,-0.8844,-0.871,-0.8648,-0.8587,-0.8289,-0.8208,-0.818,-0.8015,-0.8126,-0.818,-0.8015,-0.8126,-0.8208,-0.8208,-0.8208,-0.8248,-0.8397,-0.8695,-0.8882,-0.8837,-0.912,-0.9284,-0.9091,-0.9121,0.0,-0.8968,-0.9354,-1.0065,-1.1026,-1.1096,-1.1106,-1.121,-1.0683,-1.0376,-1.0516,-1.0421,-1.0622,-1.1346,-1.0222,-0.9005,-0.7733,-0.6957,-0.668,0.0,0.0,0.0,0.0,0.0,0.0,0.0,0.0,0.0,0.0,0.0,0.0,0.0,0.0,0.0,0.0,0.0,0.0,0.0,0.0,0.0,0.0,-0.8217,-0.8852,-0.9232,-0.9429,-0.97,-1.0181,-1.0236,-1.0236,-1.0236,-1.0226,-1.0276,-1.0154,-1.0283,-1.0344,-1.0283,-1.0283,-1.0283,-1.0283,-1.0283,-1.0283,-1.0283,-1.0188,-1.0148,-1.0141,-0.9992,-0.9856,-0.9856,-0.9849,-0.9774,-0.97,-0.97,-0.9612,-0.9476,-0.9476,-0.9442,0.0,0.0,0.0,0.0,0.0,-0.8885,-0.8885,-0.8885,-0.8885,-0.8885,-0.8885,-0.8885,-0.8858,-0.8757,-0.871,-0.8662,-0.8425,-0.8357,-0.8336,-0.8248,-0.8289,-0.8336,-0.8248,-0.8296,-0.8357,-0.8357,-0.8357,-0.8404,-0.8547,-0.8574,0.0,-0.8472,-0.8447,-0.8374,-0.8215,-0.8299,-0.8269,-0.7967,-0.8529,-0.9313,-1.0023,-1.0085,-1.0156,-1.0265,-0.9554,0.0,0.0,0.0,-0.9302,-0.9856,-0.9282,0.0,0.0,0.0,-0.6803,-0.7115,0.0,0.0,0.0,-0.6539,-0.6195,0.0,0.0,0.0,0.0,0.0,0.0,0.0,0.0,0.0,0.0,0.0,0.0,0.0,0.0,0.0,0.0,-0.8737,-0.9646,-1.0629,-1.0426,-1.027,-1.0534,-1.0568,-1.0568,-1.0568,-1.0677,-1.0636,-1.0378,-1.046,-1.0466,-1.0337,0.0,0.0,0.0,0.0,-1.0331,-1.0331,-1.031,-1.0304,-1.0304,-1.0148,-1.0004,-0.9984,-0.9849,-0.9836,-0.9822,-0.9822,-0.9747,-0.9632,-0.9632,-0.9551,-0.9429,-0.9395,-0.93,-0.9221,-0.9015,-0.8905,-0.8905,-0.8892,0.0,0.0,-0.8885,-0.8885,-0.8858,-0.8777,-0.8737,-0.8703,-0.8554,-0.8506,-0.8506,-0.8486,-0.8492,-0.8506,-0.8486,-0.8499,-0.8506,-0.8506,-0.8506,-0.8554,-0.871,-0.8737,-0.8737,-0.8737,-0.8722,-0.8628,-0.8455,-0.868,-0.8602,-0.7974,-0.9213,-1.012,-0.9895,0.0,0.0,-1.0211,-0.8799,-0.8056,-0.8484,-0.8115,-0.7697,-0.7292,-0.7421,-0.7122,-0.6283,-0.6458,-0.6907,-0.7569,-0.7543,-0.7957,-0.8696,-0.7038,-0.677,0.0,0.0,0.0,0.0,0.0,0.0,0.0,0.0,0.0,0.0,0.0,0.0,0.0,0.0,0.0,-0.9137,-0.9808,-1.0432,-1.0995,-1.1002,-1.0968,-1.1029,-1.1036,-1.1036,-1.1036,-1.0955,-1.0813,-1.0759,-1.0731,-1.0663,-1.0636,-1.0636,-1.0636,-1.0636,-1.0636,-1.0636,-1.0636,-1.0514,-1.0453,-1.0453,0.0,0.0,-0.9984,-0.9957,-0.9876,-0.9822,-0.9822,-0.9802,-0.9781,-0.9781,-0.9761,-0.9713,-0.9476,-0.9361,-0.932,-0.9221,-0.9166,-0.9096,-0.8981,-0.8885,-0.8885,-0.8885,-0.8885,-0.8878,-0.8851,-0.8838,0.0,-0.871,-0.8669,-0.8635,-0.8513,-0.8574,-0.8635,-0.8513,-0.8574,-0.8669,-0.8669,-0.8669,-0.871,-0.8811,-0.8838,-0.8838,-0.8838,-0.8776,-0.8657,-0.8478,-0.8514,-0.855,-0.8358,-0.8657,-0.8912,-0.8946,-0.8904,-0.886,-0.8996,-0.8641,-0.8398,-0.8472,-0.8419,-0.8323,-0.8221,-0.8248,-0.8187,-0.8011,-0.816,-0.8309,-0.8452,-0.8574,-0.8669,-0.8824,-0.8411,-0.835,0.0,0.0,0.0,0.0,0.0,0.0,0.0,0.0,0.0,0.0,0.0,-0.7483,-0.7678,0.0,-0.9327,-0.9856,-1.0568,-1.1185,-1.1558,-1.1545,-1.1416,-1.1192,-1.1234,-1.1234,-1.1234,-1.1097,-1.1056,-1.1056,-1.0989,-1.0914,-1.0839,-1.0766,-1.0799,-1.0724,-1.0717,-1.0717,-1.0717,-1.0643,-1.0609,-1.0602,-1.046,-1.0344,-1.0263,-1.0051,-0.9943,-0.9869,-0.9856,-0.9822,-0.9822,-0.9822,-0.9822,-0.9808,-0.9659,-0.9557,-0.9476,-0.932,-0.9323,-0.9316,-0.9184,-0.9157,-0.915,-0.9069,-0.9049,-0.9035,-0.8905,-0.8885,-0.8865,-0.8845,-0.8825,-0.8804,-0.873,-0.8764,-0.8804,-0.873,-0.8771,-0.8825,-0.8825,-0.8825,-0.8845,-0.8871,-0.8885,-0.8885,-0.8885,-0.8817,-0.8798,-0.8723,-0.871,-0.8682,-0.8608,-0.8594,-0.8636,-0.8686,-0.8626,-0.8664,-0.8794,-0.8814,-0.8873,-0.8873,-0.8873,-0.8873,-0.8873,-0.875,-0.8743,-0.8873,-0.8893,-0.9355,-1.0262,-1.0347,-1.0779,-1.1492,-1.1445,-1.058,0.0,0.0,0.0,0.0,0.0,0.0,0.0,-0.7339,-0.7503,-0.7705,-0.815,-0.8528,-0.8635,-0.9456,-1.0229,-1.0534,-1.1165,-1.1714,-1.1979,-1.1884,-1.1647,-1.1253,-1.1233,-1.1253,-1.1253,-1.1226,-1.1206,-1.1206,-1.1179,-1.1111,-1.0995,-1.0894,-1.0826,-1.0765,-1.0738,-1.0717,-1.0717,-1.0717,-1.0717,-1.0717,-1.0568,-1.048,-1.0439,-1.0175,-0.997,-0.9936,-0.9876,-0.9822,-0.9822,-0.9822,-0.9822,-0.9822,-0.9822,-0.9747,-0.9632,-0.9483,-0.9422,-0.9422,-0.9395,-0.9381,-0.9361,-0.9296,-0.9255,-0.9228,-0.9022,-0.8981,-0.8974,-0.8892,-0.8885,-0.8885,-0.8885,-0.8885,-0.8885,-0.8885,-0.8885,-0.8885,-0.8885,-0.8885,-0.8885,-0.8885,-0.8905,-0.8981,-0.8981,-0.9001,-0.8952,-0.8892,-0.8885,-0.8838,-0.8771,-0.8777,-0.8798,-0.8798,-0.8825,-0.8893,-0.9015,-0.913,-0.9255,-0.9255,-0.9255,-0.9255,-0.9255,-0.9089,-0.9076,-0.9255,-0.9255,-0.9938,-1.1323,-1.1323,-1.1946,-1.3183,-1.3507,-1.2397,-0.6837,-0.6551,-0.6317,-0.6498,-0.6907,-0.7562,0.0,-0.8804,-0.8946,-0.9924,-1.0276,-1.05,-1.0765,-1.1036,-1.1314,-1.1606,-1.1633,-1.1674,-1.1837,-1.1735,-1.1572,-1.1389,-1.1484,-1.1565,-1.1565,-1.1443,-1.1362,-1.1362,-1.124,-1.1158,-1.1138,-1.1016,-1.0873,-1.0853,-1.0792,-1.0717,-1.0717,-1.0717,-1.0717,-1.0717,-1.0568,-1.0426,-1.0297,-1.0127,-0.9916,-0.9842,-0.9829,-0.9822,-0.9822,-0.9822,-0.9822,-0.9822,-0.9822,-0.9808,-0.9781,-0.9639,-0.9585,-0.9564,-0.9429,-0.9381,-0.9381,-0.9361,-0.9354,-0.9327,-0.9234,-0.9187,-0.9103,-0.8974,-0.8885,-0.8885,-0.8885,-0.8885,-0.8885,-0.8885,-0.8885,-0.8885,-0.8885,-0.8885,-0.8885,-0.8885,-0.9042,-0.9187,-0.9187,-0.9239,-0.9245,-0.8925,-0.8885,-0.8878,-0.8858,-0.9022,-0.9159,-0.9159,-0.9225,-0.9313,-0.9327,-0.9347,-0.9354,-0.9354,-0.9354,-0.9354,-0.9354,-0.934,-0.934,-0.9354,-0.9354,-0.9476,-0.9664,-0.9664,-0.978,-0.9954,-1.1537,-1.2721,-0.608,-0.6789,-0.7461,-0.8336,-0.8615,-0.892,-0.9849,-1.0222,-1.0466,-1.0812,-1.1212,-1.1511,-1.1545,-1.1748,-1.1952,-1.2081,-1.2115,-1.2121,-1.2101,-1.1891,-1.1653,-1.1416,-1.1369,-1.1355,-1.1355,-1.1375,-1.1389,-1.1389,-1.1416,-1.1389,-1.1301,-1.124,-1.1124,-1.0887,-1.082,-1.0812,-1.0717,-1.0717,-1.0717,-1.0717,-1.0656,-1.0595,-1.0534,-1.0378,-1.0175,-0.9889,-0.9863,-0.9822,-0.9822,-0.9822,-0.9822,-0.9822,-0.9822,-0.9822,-0.9815,-0.9754,-0.9734,-0.9727,-0.9659,-0.9639,-0.9625,-0.9544,-0.9517,-0.9483,-0.9334,-0.9344,-0.9252,-0.9103,-0.9062,-0.9062,-0.9062,-0.9001,-0.8905,-0.9042,-0.9062,-0.9062,-0.9062,-0.9137,-0.9198,-0.9198,-0.9245,-0.9344,-0.9344,-0.934,-0.934,-0.9211,-0.9198,-0.9198,-0.9198,-0.9252,-0.9344,-0.9344,-0.934,-0.9381,-0.9381,-0.9462,-0.9517,-0.9517,-0.9517,-0.9517,-0.9517,-0.9429,-0.9422,-0.951,-0.9517,-1.0023,-1.1051,-1.1051,-1.1516,-1.246,-1.3181,-1.382,-0.5987,-0.7226,-0.8316,-0.9593,-1.0073,-1.0324,-1.0948,-1.1341,-1.1565,-1.1538,-1.1816,-1.2026,-1.1911,-1.2074,-1.2244,-1.2284,-1.2338,-1.2359,-1.2298,-1.1993,-1.1647,-1.1307,-1.1131,-1.1023,-1.0982,-1.1192,-1.1348,-1.1389,-1.1491,-1.1525,-1.1457,-1.1375,-1.1233,-1.1016,-1.086,-1.0833,-1.0724,-1.0717,-1.0717,-1.0717,-1.0677,-1.0656,-1.0649,-1.05,-1.0297,-0.9977,-0.9869,-0.9863,-0.9822,-0.9822,-0.9822,-0.9822,-0.9822,-0.9822,-0.9822,-0.9822,-0.9822,-0.9822,-0.9822,-0.9822,-0.9802,-0.97,-0.9666,-0.9639,-0.949,-0.9442,-0.9415,-0.9316,-0.9275,-0.9275,-0.9275,-0.9137,-0.9089,-0.9248,-0.9275,-0.9275,-0.9275,-0.9357,-0.9381,-0.9381,-0.9415,-0.9442,-0.9442,-0.9476,-0.9503,-0.9503,-0.9503,-0.9469,-0.9395,-0.9415,-0.9456,-0.9496,-0.9503,-0.9503,-0.9503,-0.9605,-0.9666,-0.9666,-0.9666,-0.9666,-0.9666,-0.9557,-0.9557,-0.9666,-0.9666,-1.0254,-1.1555,-1.1555,-1.2157,-1.3287,-1.3763,-1.3971,-0.7537,-0.8089,-0.8682,-0.9598,-1.0704,-1.164,-1.1952,-1.2108,-1.2121,-1.2406,-1.225,-1.2135,-1.2054,-1.2135,-1.2121,-1.2264,-1.2169,-1.2128,-1.2271,-1.1904,-1.1463,-1.0948,-1.0826,-1.0677,-1.0527,-1.0907,-1.1233,-1.1382,-1.1396,-1.1463,-1.1606,-1.1335,-1.1165,-1.1158,-1.088,-1.0724,-1.0717,-1.0717,-1.0717,-1.0717,-1.0568,-1.05,-1.0493,-1.0351,-1.0202,-0.9984,-0.9984,-0.9896,-0.9822,-0.9822,-0.9822,-0.9822,-0.9822,-0.9822,-0.9822,-0.9822,-0.9822,-0.9822,-0.9822,-0.9822,-0.9822,-0.9815,-0.9815,-0.9788,-0.9646,-0.9605,-0.9571,-0.9415,-0.9374,-0.9374,-0.9374,-0.9367,-0.9367,-0.9374,-0.9374,-0.9374,-0.9374,-0.9374,-0.9381,-0.9381,-0.9503,-0.9605,-0.9605,-0.972,-0.9808,-0.9808,-0.9808,-0.9707,-0.9415,-0.951,-0.9652,-0.9795,-0.9808,-0.9808,-0.9808,-0.9815,-0.9815,-0.9815,-0.9815,-0.9815,-0.9815,-0.9808,-0.9808,-0.9815,-0.9815,-0.9815,-0.9883,-0.9883,-0.9883,-1.0004,-1.1678,-1.2488,-0.8567,-0.9178,-0.9808,-1.1009,-1.1762,-1.2284,-1.2589,-1.2736,-1.2603,-1.2406,-1.1809,-1.1233,-1.0934,-1.0538,-1.0442,-1.1124,-1.1287,-1.1511,-1.206,-1.1918,-1.1518,-1.0873,-1.0839,-1.0731,-1.0385,-1.0663,-1.0968,-1.1219,-1.1335,-1.1416,-1.1463,-1.1369,-1.1226,-1.1029,-1.0853,-1.0819,-1.0724,-1.0717,-1.0717,-1.0717,-1.067,-1.0588,-1.0487,-1.0344,-1.0195,-0.9984,-0.9883,-0.9869,-0.9822,-0.9822,-0.9768,-0.9693,-0.9781,-0.9761,-0.9693,-0.9788,-0.9822,-0.9822,-0.9822,-0.9822,-0.9822,-0.9822,-0.9822,-0.9815,-0.9768,-0.9747,-0.972,-0.9578,-0.953,-0.953,-0.953,-0.9456,-0.9408,-0.951,-0.953,-0.953,-0.953,-0.9605,-0.9673,-0.9673,-0.9713,-0.9747,-0.9747,-0.9788,-0.9822,-0.9822,-0.9822,-0.9788,-0.9686,-0.972,-0.9768,-0.9815,-0.9822,-0.9822,-0.9822,-0.9822,-0.9822,-0.9822,-0.9822,-0.9822,-0.9822,-0.9822,-0.9822,-0.9822,-0.9822,-0.9822,-0.9822,-0.9862,-1.0519,-1.167,-1.2411,-1.3359,-0.9225,-0.9985,-1.0617,-1.1979,-1.2522,-1.2793,-1.299,-1.2908,-1.261,-1.1945,-1.1097,-1.0283,-0.9673,-0.9123,-0.9096,-1.0154,-1.0446,-1.086,-1.1775,-1.1681,-1.1271,-1.086,-1.0792,-1.067,-1.0385,-1.0527,-1.0765,-1.1063,-1.1179,-1.1253,-1.1307,-1.126,-1.1145,-1.0887,-1.0826,-1.0819,-1.0724,-1.0717,-1.0717,-1.0717,-1.0663,-1.0588,-1.0487,-1.0344,-1.0195,-0.9984,-0.9883,-0.9869,-0.9822,-0.9822,-0.9768,-0.9693,-0.9788,-0.9768,-0.9693,-0.9788,-0.9822,-0.9822,-0.9822,-0.9822,-0.9822,-0.9822,-0.9822,-0.9822,-0.9822,-0.9822,-0.9802,-0.9707,-0.9686,-0.9686,-0.9686,-0.9612,-0.9564,-0.9659,-0.9686,-0.9686,-0.9686,-0.9754,-0.9822,-0.9822,-0.9822,-0.9822,-0.9822,-0.9822,-0.9842,-0.9897,-0.9903,-0.9883,-0.9829,-0.9822,-0.9822,-0.9822,-0.9822,-0.9842,-0.9835,-0.9903,-0.9924,-0.9985,-1.0533,-1.0895,-1.0895,-1.1378,-1.1651,-1.1651,-1.1587,-1.1587,-1.1651,-1.1763,-1.2406,-1.364,-1.3841,-1.4499,-0.9566,-1.053,-1.1258,-1.2467,-1.2969,-1.318,-1.3152,-1.2773,-1.2128,-1.1035,-1.0134,-0.9205,-0.833,-0.8052,-0.8251,-0.9367,-0.9707,-1.0249,-1.145,-1.119,-1.0921,-1.0894,-1.0711,-1.0527,-1.0507,-1.0514,-1.0629,-1.0847,0.0,-1.1009,-1.1158,-1.1029,-1.088,-1.088,-1.0799,-1.0717,-1.0717,-1.0717,-1.0717,-1.0717,-1.0568,-1.0487,-1.0473,-1.0331,-1.0181,-0.9977,-0.9977,-0.9896,-0.9822,-0.9822,-0.9815,-0.9808,-0.9815,-0.9815,-0.9808,-0.9815,-0.9822,-0.9822,-0.9822,-0.9822,-0.9822,-0.9822,-0.9822,-0.9822,-0.9822,-0.9822,-0.9822,-0.9822,-0.9822,-0.9822,-0.9822,-0.9822,-0.9822,-0.9822,-0.9822,-0.9822,-0.9822,-0.9822,-0.9822,-0.9822,-0.9822,-0.9822,-0.9822,-0.9829,-0.9883,-0.9963,-0.9997,-0.995,-0.9863,-0.9842,-0.9842,-0.9842,-0.9842,-0.9903,-0.9984,-0.9997,-1.012,-1.0397,-1.1964,-1.2963,-1.3026,-1.4327,-1.5004,-1.5004,-1.4801,-1.4801,-1.5004,-1.5014,-1.5258,-1.566,-1.5814,-1.5907,-1.1111,-1.1986,-1.2549,-1.2956,-1.32,-1.3254,-1.2922,-1.2067,-1.1042,-1.0276,-0.8777,-0.7441,-0.6921,-0.6866,-0.7251,-0.8425,-0.9388,-1.0307,-1.1463,-1.1613,-1.1484,-1.1145,-1.1138,-1.1029,-1.0697,-1.0765,-1.0752,-1.0778,-1.0813,-1.1009,-1.1158,-1.1029,-1.088,-1.088,-1.0799,-1.0717,-1.0717,-1.0717,-1.0717,-1.0717,-1.0568,-1.0439,-1.0331,-1.0175,-1.0025,-0.9876,-0.9876,-0.9856,-0.9822,-0.9822,-0.9761,-0.9673,-0.9781,-0.9754,-0.968,-0.9781,-0.9822,-0.9822,-0.9822,-0.9822,-0.9822,-0.9822,-0.9822,-0.9822,-0.9822,-0.9822,-0.9822,-0.9822,-0.9822,-0.9822,-0.9822,-0.9822,-0.9822,-0.9822,-0.9822,-0.9822,-0.9822,-0.9822,-0.9822,-0.9822,-0.9822,-0.9822,-0.9822,-0.9856,-0.9943,-0.9984,-1.0148,-1.0209,-1.0168,-1.0161,-1.0161,-1.0161,-1.0161,-1.0181,-1.0215,-1.0222,-1.0798,-1.2154,-1.2649,-1.3457,-1.4768,-1.5206,-1.5361,-1.5361,-1.5309,-1.5309,-1.5361,-1.5462,-1.6254,-1.7582,-1.7707,-1.847,-1.2088,-1.2847,-1.3275,-1.3356,-1.3336,-1.3064,-1.2155,-1.1226,-1.0154,-0.8743,-0.7373,-0.6376,-0.6193,-0.6173,-0.6681,-0.8214,-0.9137,-1.0046,-1.1165,-1.1396,-1.1396,-1.1274,-1.128,-1.1192,-1.0941,-1.0995,-1.1009,-1.0921,-1.0873,-1.0914,-1.1063,-1.0928,-1.0813,-1.088,-1.0799,-1.0717,-1.0717,-1.0717,-1.0717,-1.0717,-1.0568,-1.0419,-1.0276,-1.012,-0.9903,-0.9822,0.0,-0.9822,-0.9822,-0.9822,-0.9774,-0.9707,-0.9788,-0.9774,-0.9713,-0.9788,-0.9822,-0.9822,-0.9822,-0.9822,-0.9822,-0.9822,-0.9822,-0.9822,-0.9822,-0.9822,-0.9822,-0.9822,-0.9822,-0.9822,-0.9822,-0.9822,-0.9822,-0.9822,-0.9869,-0.9862,-0.9862,-0.9971,-1.0025,-1.0025,-1.0025,-1.0025,-1.0025,-1.0093,-1.0175,-1.0236,-1.0317,-1.0399,-1.0466,-1.0365,-1.0283,-1.0283,-1.0283,-1.0304,-1.0371,-1.0371,-1.0849,-1.1872,-1.3396,-1.4661,-1.5613,-1.7026,-1.7789,-1.7789,-1.7622,-1.7611,-1.7789,-1.7867,-1.8435,-1.9512,-1.9599,-2.0195,-1.2752,-1.3363,-1.3682,-1.3641,-1.3383,-1.2745,-1.1233,-1.0331,-0.9262,-0.7054,-0.6098,-0.5725,-0.5919,-0.5888,-0.6444,-0.8418,-0.8974,-0.9578,-1.0806,-1.0927,-1.1111,-1.1389,-1.1307,-1.1212,-1.1261,-1.1261,-1.1255,-1.1234,-1.0907,-1.0819,-1.09,-1.0833,-1.0806,-1.0847,-1.0785,-1.0717,-1.0717,-1.0717,-1.0717,-1.0717,-1.0568,-1.0426,-1.0304,-1.0127,-0.9916,-0.9849,-0.9829,0.0,-0.9822,-0.9822,-0.9822,-0.9822,-0.9822,-0.9822,-0.9822,-0.9822,-0.9822,-0.9822,-0.9822,-0.9822,-0.9822,-0.9822,-0.9822,-0.9822,-0.9822,-0.9822,-0.9822,-0.9822,-0.9822,-0.9822,-0.9822,-0.9822,-0.9829,-0.9849,-0.9889,-0.999,-1.0011,-1.0188,-1.0283,-1.0283,-1.0283,-1.0283,-1.0283,-1.0297,-1.0351,-1.0473,-1.0507,-1.0568,-1.0704,-1.0493,-1.0337,-1.0337,-1.0337,-1.0385,-1.0514,-1.0521,-1.064,-1.1035,-1.3905,-1.5654,-1.5913,-1.8807,-2.0286,-2.0086,-2.0222,-2.0222,-2.0086,-2.0535,-2.073,-2.0779,-2.0982,-2.1109,-1.3356,-1.3749,-1.3933,-1.3688,-1.3308,-1.2569,-1.0941,-0.9537,-0.8119,-0.6485,-0.5474,-0.5081,-0.5725,-0.582,-0.6485,-0.8507,-0.9042,-0.9671,-1.0941,-1.1233,-1.1382,-1.1558,-1.1558,-1.1491,-1.1362,-1.1348,-1.1301,-1.1241,-1.1002,-1.0975,-1.1118,-1.0989,-1.086,-1.0765,-1.0731,-1.0717,-1.0717,-1.0717,-1.0717,-1.0717,-1.0568,-1.048,-1.0446,-1.0112,-0.997,-0.9936,-0.9876,0.0,-0.9822,-0.9822,-0.9822,-0.9822,-0.9822,-0.9822,-0.9822,-0.9822,-0.9822,-0.9822,-0.9822,-0.9822,-0.9822,-0.9822,-0.9822,-0.9822,-0.9822,-0.9822,-0.9822,-0.9822,-0.9822,-0.9822,-0.9822,-0.9822,-0.9849,-0.9916,-0.997,-1.0024,-1.0215,-1.0263,-1.0283,-1.0283,-1.0283,-1.0283,-1.0283,-1.0378,-1.0466,-1.0487,-1.0602,-1.069,-1.0717,-1.0677,-1.0643,-1.0643,-1.0643,-1.0656,-1.0677,-1.0677,-1.1278,-1.2734,-1.339,-1.4428,-1.5848,-1.7814,-1.8186,-1.6765,-1.9498,-1.9562,-1.6765,-1.9611,-2.0284,-1.896,-2.0462,-2.1109,-1.3146,-1.3668,-1.4082,-1.3627,-1.3112,-1.2149,-0.9944,-0.8655,-0.7407,-0.5589,-0.49,-0.4853,-0.565,-0.58,-0.6308,-0.7868,-0.8642,-0.932,-1.012,-1.0833,-1.1328,-1.1484,-1.1572,-1.1592,-1.1518,-1.1511,-1.1477,-1.1402,-1.126,-1.1172,-1.1234,-1.1029,-1.0813,-1.0724,-1.0717,-1.0717,-1.0717,-1.0717,-1.0717,-1.0717,-1.0643,-1.0527,-1.0378,-1.0236,-1.008,-0.9862,-0.9849,0.0,-0.9822,-0.9822,-0.9822,-0.9822,-0.9822,-0.9822,-0.9822,-0.9822,-0.9822,-0.9822,-0.9822,-0.9822,-0.9822,-0.9822,-0.9822,-0.9822,-0.9822,-0.9822,-0.9836,-0.9856,-0.9876,-0.9958,-1.0039,-1.0059,-1.008,-1.0154,-1.0229,-1.0324,-1.0473,-1.0507,-1.0507,-1.0507,-1.0507,-1.0507,-1.0507,-1.0568,-1.0609,-1.0609,-1.067,-1.0717,-1.0717,-1.0717,-1.0717,-1.0717,-1.0717,-1.0717,-1.0717,-1.0717,-1.1439,-1.3193,-1.4166,-1.5394,-1.7216,-1.8896,-1.9483,-1.864,-2.0259,-2.0259,-1.864,-2.0259,-2.0652,-1.9877,-2.0716,-2.1109,-1.2963,-1.3593,-1.4116,-1.3546,-1.2901,-1.1714,-0.9083,-0.7977,-0.6926,-0.4914,-0.4491,-0.4764,-0.5637,-0.5644,-0.5922,-0.7214,-0.7875,-0.8526,-0.9273,-1.0215,-1.0968,-1.1348,-1.1525,-1.1619,-1.1619,-1.1619,-1.1619,-1.1619,-1.145,-1.1274,-1.1124,-1.0982,-1.0779,-1.0724,-1.0717,-1.0717,-1.0717,-1.0717,-1.0717,-1.0717,-1.0717,-1.0602,-1.0371,-1.0337,-1.0175,-0.9917,-0.9883,0.0,0.0,-0.9822,-0.9822,-0.9822,-0.9822,-0.9822,-0.9822,-0.9822,-0.9822,-0.9822,-0.9822,-0.9822,-0.9822,-0.9822,-0.9822,-0.9822,-0.9822,-0.9822,-0.9849,-0.9943,-0.9984,-1.0024,-1.0243,-1.0283,-1.029,-1.0317,-1.0432,-1.0575,-1.0697,-1.0717,-1.0717,-1.0717,-1.0717,-1.0717,-1.0717,-1.0717,-1.085,-1.1174,-1.124,-1.1372,-1.1762,-1.1828,-1.1828,-1.1828,-1.1505,-1.124,-1.124,-1.1571,-1.2413,-1.3774,-1.5135,-1.6496,-1.7859,-1.961,-2.0399,-2.0005,-2.0716,-2.0716,-2.0005,-2.0716,-2.0919,-2.0526,-2.0919,-2.1109,-1.3451,-1.3912,-1.398,-1.3519,-1.2745,-1.1463,-0.9035,-0.7807,-0.6627,-0.4866,-0.4491,-0.4764,-0.5637,-0.5167,-0.5228,-0.7112,-0.6647,-0.6858,-0.9069,-0.9598,-1.0161,-1.126,-1.1525,-1.1619,-1.1619,-1.1619,-1.1619,-1.1619,-1.1348,-1.1124,-1.0907,-1.0759,-1.0731,-1.0717,-1.0717,-1.0717,-1.0717,-1.0717,-1.0717,-1.0717,-1.0717,-1.0704,-1.0677,-1.0534,-1.0385,-1.0229,-1.0086,0.0,0.0,-0.9822,-0.9822,-0.9822,-0.9822,-0.9822,-0.9822,-0.9822,-0.9822,-0.9822,-0.9822,-0.9822,-0.9822,-0.9822,-0.9822,-0.9822,-0.9822,-0.9822,-0.9849,-0.9943,-0.9984,-1.0024,-1.0243,-1.0283,-1.031,-1.0439,-1.0588,-1.0704,-1.0717,-1.0717,-1.0717,-1.0717,-1.0717,-1.0717,-1.0717,-1.0717,-1.124,-1.28,-1.3062,-1.3643,-1.52,-1.5394,-1.5394,-1.5394,-1.4036,-1.3062,-1.3062,-1.4493,-1.5459,-1.5654,-1.5784,-1.5978,-1.6108,-1.7795,-1.7988,-1.6431,-1.9483,-1.9546,-1.6366,-1.9546,-2.0259,-1.8768,-2.0386,-2.1109,-1.1884,-1.2868,-1.3654,-1.3017,-1.2325,-1.1145,-0.8648,-0.7522,-0.6465,-0.4672,-0.4308,-0.4388,-0.468,-0.4511,-0.4557,-0.5332,-0.5596,-0.6261,-0.7936,-0.8845,-0.9781,-1.0982,-1.1416,-1.1619,-1.1619,-1.1694,-1.1674,-1.1497,-1.1287,-1.1097,-1.0887,-1.0806,-1.0717,-1.0717,-1.0717,-1.0717,-1.0717,-1.0717,-1.0717,-1.0717,-1.0717,-1.067,-1.0582,-1.0521,-1.0365,-1.0141,-1.0011,0.0,0.0,-0.9896,-1.0012,-1.0093,-1.0093,-1.0093,-1.0093,-1.0093,-1.0093,-1.0093,-1.0093,-1.0093,-1.0093,-1.0093,-1.0093,-1.0066,-0.9876,-0.9883,-0.993,-1.0148,-1.0249,-1.0351,-1.0507,-1.0541,-1.0561,-1.0616,-1.0677,-1.0717,-1.0717,-1.0717,-1.0982,-1.2091,-1.1439,-1.1372,-1.3447,-1.2931,-1.2865,-1.4623,-1.4874,-1.5135,-1.5784,-1.5913,-1.5913,-1.5913,-1.5265,-1.4874,-1.4874,-1.5524,-1.6366,-1.7409,-1.7474,-1.7923,-1.896,-1.9674,-1.9737,-1.9024,-2.0386,-2.0386,-1.9024,-2.0386,-2.0716,-2.0068,-2.0779,-2.1109,-1.0677,-1.1823,-1.2813,-1.2461,-1.1721,-1.0514,-0.8309,-0.7149,-0.6074,-0.4591,-0.4254,-0.416,-0.4085,-0.4127,-0.418,-0.4133,-0.4674,-0.5508,-0.6797,-0.797,-0.9055,-1.0039,-1.0711,-1.1104,-1.1151,-1.1525,-1.1667,-1.1409,-1.1246,-1.1097,-1.0887,-1.0806,-1.0717,-1.0717,-1.0717,-1.0717,-1.0717,-1.0717,-1.0717,-1.0717,-1.0717,-1.0663,-1.0561,-1.0561,-1.0419,-1.0181,-1.0181,0.0,0.0,-1.0114,-1.0181,-1.0283,-1.0283,-1.0283,-1.0283,-1.0283,-1.0283,-1.0283,-1.0283,-1.0283,-1.0283,-1.0283,-1.0283,-1.0243,-1.0025,-1.0032,-1.0148,-1.0304,-1.0446,-1.0582,-1.069,-1.0717,-1.0717,-1.0717,-1.0717,-1.0717,-1.0717,-1.1108,-1.1828,-1.3062,-1.2734,-1.2997,-1.5459,-1.4874,-1.4679,-1.6431,-1.6689,-1.6883,-1.7334,-1.7474,-1.7474,-1.7474,-1.7474,-1.7205,-1.6689,-1.7152,-1.7988,-1.9215,-1.9291,-1.9801,-2.1046,-2.1109,-2.1109,-2.1109,-2.1109,-2.1109,-2.1109,-2.1109,-2.1109,-2.1109,-2.1109,-2.1109,-1.0314,-1.1063,-1.1398,-1.1992,-1.0941,-0.9483,-0.8119,-0.6668,-0.5386,-0.4648,-0.4348,-0.4194,-0.4194,-0.4194,-0.4147,-0.4018,-0.39,-0.4334,-0.5797,-0.6953,-0.7787,-0.8292,-0.9211,-0.9897,-0.999,-1.1009,-1.1558,-1.1402,-1.1246,0.0,-1.0887,-1.0806,-1.0717,-1.0717,-1.0717,-1.0717,-1.0717,-1.0717,-1.0717,-1.0717,-1.0717,-1.0717,-1.0717,-1.0717,-1.0636,0.0,0.0,0.0,0.0,-1.0276,-1.0276,-1.0283,-1.0283,-1.0283,-1.0283,-1.0283,-1.0283,-1.0283,-1.0283,-1.0283,-1.0283,-1.0283,-1.0283,-1.0283,-1.0276,-1.0276,-1.0304,-1.0453,-1.0602,-1.0717,-1.0717,-1.0717,-1.0717,-1.0717,-1.0717,-1.0717,-1.0717,-1.2091,-1.3259,-1.3325,-1.4688,-1.5848,-1.5913,-1.5848,-1.6431,-1.818,-1.8448,-1.9088,-2.0843,-2.1046,-2.1046,-2.1046,-2.1046,-2.0322,-1.864,-2.0068,-2.1046,-2.1046,-2.1046,-2.1109,-2.1109,-2.1109,-2.1109,-2.1109,-2.1109,-2.1109,-2.1109,-2.1109,-2.1109,-2.1109,-2.1109,-2.1109,-0.8089,-0.8906,-0.9483,-0.9476,-0.8954,-0.8092,-0.6742,-0.5915,-0.5221,-0.4334,-0.4043,-0.3934,-0.3934,-0.3934,-0.3964,-0.4126,-0.4112,-0.4564,-0.5989,-0.7088,-0.8099,-0.9069,-1.029,-1.1111,-1.1253,-1.1477,-1.1558,-1.1402,-1.1246,-1.1097,-1.0887,-1.0806,-1.0717,-1.0717,-1.0717,-1.0717,-1.0717,-1.0717,-1.0717,-1.0717,-1.0717,-1.0717,-1.0717,-1.0717,-1.0636,0.0,0.0,0.0,0.0,-1.0426,-1.0487,-1.0582,-1.0582,-1.0582,-1.0582,-1.0582,-1.0582,-1.0582,-1.0582,-1.0582,-1.0582,-1.0582,-1.0582,-1.0582,-1.0582,-1.0507,-1.046,-1.0609,-1.0683,-1.0717,-1.0717,-1.0717,-1.0982,-1.2215,-1.1571,-1.1372,-1.3709,-1.3774,-1.397,-1.6366,-1.6366,-1.6625,-1.9024,-1.8448,-1.8244,-2.0005,-2.0259,-2.0462,-2.1046,-2.1109,-2.1189,-2.139,-2.1229,-2.0856,-2.0322,-2.0779,-2.1109,-2.1109,-2.1109,-2.1109,-2.1109,-2.1109,-2.1203,-2.1403,-2.1416,-2.151,-2.171,-2.171,-2.171,-2.171,-2.171,-2.171,-0.6709,-0.7366,-0.7902,-0.8058,-0.7611,-0.6905,-0.6003,-0.5311,-0.4694,-0.4112,-0.39,-0.3792,-0.3792,-0.3792,-0.3839,-0.395,-0.4018,-0.4429,-0.5474,-0.6478,-0.7624,-0.8947,-1.0243,-1.1063,-1.1082,-1.1389,-1.1491,-1.1396,-1.1199,-1.1043,-1.0887,-1.0806,-1.0717,-1.0717,-1.0717,-1.0717,-1.0717,-1.0717,-1.0717,-1.0717,-1.0717,-1.0717,-1.0717,-1.0717,-1.067,0.0,0.0,0.0,0.0,-1.0836,-1.1023,-1.163,-1.0982,-1.0717,-1.0717,-1.0717,-1.1115,-1.1696,-1.1696,-1.1696,-1.1696,-1.1696,-1.124,-1.0717,-1.0717,-1.0656,-1.0595,-1.0697,-1.0717,-1.0717,-1.0717,-1.1174,-1.196,-1.3062,-1.2997,-1.3259,-1.5394,-1.5589,-1.5913,-1.8052,-1.818,-1.8576,-2.0716,-2.0195,-1.9877,-2.0919,-2.1203,-2.1269,-2.1269,-2.1376,-2.151,-2.1762,-2.155,-2.1443,-2.1443,-2.1243,-2.1109,-2.1109,-2.1109,-2.1109,-2.1109,-2.1216,-2.1363,-2.1614,-2.1722,-2.1804,-2.1991,-2.1991,-2.1991,-2.1991,-2.1991,-2.1991,0.0,-0.6334,-0.6498,-0.7333,-0.6709,-0.5811,-0.5691,-0.4802,0.0,-0.3977,-0.388,-0.3785,-0.3805,-0.3792,-0.3744,-0.3665,-0.3767,-0.402,-0.4457,-0.5481,-0.6742,-0.8194,-0.9422,-1.0078,-1.0065,-1.0887,-1.1369,-1.1362,-1.1104,-1.0873,-1.0867,-1.0799,-1.0717,-1.0717,-1.0717,-1.0717,-1.0717,-1.0717,-1.0717,-1.0717,-1.0717,-1.0717,-1.0717,-1.085,-1.085,0.0,0.0,0.0,0.0,-1.1571,-1.1894,-1.3325,-1.1571,-1.0982,-1.1049,-1.1049,-1.2084,-1.3456,-1.3456,-1.3456,-1.3456,-1.3456,-1.2413,-1.1049,-1.1049,-1.0916,-1.0717,-1.085,-1.0784,-1.0784,-1.0982,-1.215,-1.339,-1.3587,-1.4809,-1.5978,-1.6237,-1.7474,-1.8512,-1.864,-2.0005,-2.1109,-2.1109,-2.1122,-2.1149,-2.1149,-2.139,-2.1655,-2.1655,-2.1817,-2.1991,-2.2017,-2.1991,-2.1991,-2.2017,-2.1496,-2.1176,-2.1176,-2.1176,-2.1176,-2.1176,-2.1443,-2.1655,-2.1681,-2.1897,-2.2044,-2.2044,-2.2044,-2.2044,-2.2044,-2.2044,-2.2044,-0.4504,0.0,-0.4646,-0.4827,-0.4672,-0.4422,0.0,-0.405,-0.3846,-0.3846,-0.3731,-0.372,-0.3927,-0.3785,-0.3731,-0.4018,-0.4212,-0.445,-0.4762,-0.66,-0.8248,-0.9184,-1.0351,-1.1029,-1.0914,-1.109,-1.1172,-1.1063,-1.0921,-1.0833,-1.0778,-1.0738,-1.0717,-1.0717,-1.0717,-1.0717,-1.0717,-1.0717,-1.0717,-1.0717,-1.0717,-1.0717,-1.0717,-1.2091,-1.2668,0.0,0.0,0.0,-1.5135,-1.339,-1.3709,-1.5135,-1.339,-1.3521,-1.4688,-1.4688,-1.4939,-1.5265,-1.5265,-1.5265,-1.5265,-1.5265,-1.5005,-1.4688,-1.4688,-1.28,-1.0982,-1.2281,-1.1762,-1.1306,-1.397,-1.397,-1.397,-1.6625,-1.656,-1.6625,-1.9291,-1.9152,-1.8896,-2.0259,-2.0843,-2.1109,-2.1109,-2.1296,-2.1443,-2.1443,-2.1697,-2.1884,-2.1884,-2.1937,-2.2071,-2.2298,-2.2124,-2.2071,-2.2298,-2.1991,-2.1777,-2.1777,-2.1777,-2.1777,-2.1777,-2.1844,-2.1991,-2.2205,-2.2512,-2.2659,-2.2659,-2.2659,-2.2659,-2.2659,-2.2659,-2.2659,-0.3741,-0.3944,-0.4099,-0.4099,-0.4045,-0.3971,-0.3914,-0.3792,-0.372,-0.372,-0.3658,-0.3651,-0.3792,-0.3799,-0.386,-0.4078,-0.4667,-0.5325,-0.6051,-0.7733,-0.9096,-0.9639,-1.0643,-1.128,0.0,-1.1145,-1.1029,-1.0887,-1.0813,-1.0806,-1.0724,-1.0717,-1.0717,-1.0717,-1.0717,-1.0717,-1.0717,-1.0717,-1.0717,-1.0717,-1.0717,-1.0717,-1.0784,-1.2479,-1.3325,0.0,0.0,0.0,-1.6958,-1.52,-1.5524,-1.6883,-1.5135,-1.507,-1.5913,-1.5913,-1.6431,-1.7076,-1.7076,-1.7076,-1.6947,-1.6172,-1.5913,-1.5913,-1.5913,-1.4549,-1.3259,-1.4232,-1.384,-1.3521,-1.5394,-1.5784,-1.6172,-1.8052,-1.8372,-1.8832,-2.0716,-2.0386,-2.0005,-2.0919,-2.1109,-2.1109,-2.1109,-2.1363,-2.1614,-2.1614,-2.1911,-2.2178,-2.2178,-2.2298,-2.2445,-2.2605,-2.2485,-2.2458,-2.2605,-2.2472,-2.2271,-2.2004,-2.1991,-2.1991,-2.1991,-2.2111,-2.2325,-2.2619,-2.2779,-2.2928,-2.2928,-2.2928,-2.2928,-2.2928,-2.2928,-2.2928,-0.3435,-0.3887,-0.4153,-0.4132,-0.4038,-0.3957,-0.3937,-0.3758,-0.3604,-0.3604,-0.3604,-0.3658,-0.3843,-0.4036,-0.422,-0.4409,-0.5352,-0.6424,-0.7516,-0.8676,-0.9503,-0.9727,-1.0568,0.0,-1.128,-1.1063,-1.0847,-1.0847,-1.0725,-1.0717,-1.0717,-1.0717,-1.0717,-1.0717,-1.0717,-1.0717,-1.0717,-1.0717,-1.0717,-1.0717,-1.0717,-1.0717,-1.0784,-1.2479,-1.3456,-1.3774,0.0,0.0,-1.8768,-1.7012,-1.7345,-1.8704,-1.6947,-1.6431,-1.6689,-1.6689,-1.7602,-1.8896,-1.8896,-1.8896,-1.864,-1.7152,-1.6689,-1.6689,-1.6689,-1.6689,-1.6689,-1.6689,-1.6302,-1.6043,-1.656,-1.7602,-1.8576,-1.8832,-2.0005,-2.1109,-2.1109,-2.1109,-2.1109,-2.1109,-2.1149,-2.1176,-2.1176,-2.1456,-2.1748,-2.1748,-2.2138,-2.2485,-2.2485,-2.2712,-2.2928,-2.2928,-2.2928,-2.2928,-2.2928,-2.2928,-2.2645,-2.2151,-2.2124,-2.2124,-2.2124,-2.2352,-2.2605,-2.2859,-2.2928,-2.2928,-2.2928,-2.2928,-2.2928,-2.2928,-2.2928,-2.2928,-0.3431,-0.3812,-0.3971,-0.3744,-0.3751,-0.3792,-0.3699,-0.3631,-0.3604,-0.3604,-0.3604,-0.3911,-0.4935,-0.502,-0.5258,-0.6276,-0.6844,-0.7326,-0.7847,-0.8899,-0.9544,-0.9456,0.0,-1.0941,-1.0833,-1.0778,-1.0758,-1.0758,-1.0731,-1.0717,-1.0717,-1.0717,-1.0717,-1.0717,-1.0717,-1.0717,-1.0717,-1.0717,-1.0717,-1.0717,-1.0717,-1.0717,-1.0784,-1.2479,-1.4101,-1.5589,0.0,-1.9088,-2.0589,-1.8832,-1.9152,-2.0526,-1.8768,-1.9024,-2.0322,-2.0322,-2.0462,-2.0716,-2.0716,-2.0716,-2.0652,-2.0386,-2.0322,-2.0322,-2.0322,-2.0322,-2.0322,-2.0322,-1.818,-1.656,-1.9546,-1.9419,-1.8896,-2.0322,-2.0919,-2.1109,-2.1109,-2.1109,-2.1109,-2.1109,-2.1309,-2.1547,-2.1547,-2.1924,-2.2285,-2.2285,-2.2579,-2.2792,-2.2792,-2.2901,-2.2928,-2.2928,-2.2928,-2.2928,-2.2928,-2.2928,-2.2887,-2.2807,-2.2726,-2.2726,-2.2726,-2.2766,-2.2887,-2.2928,-2.2928,-2.2928,-2.2928,-2.2928,-2.2928,-2.2928,-2.2928,-2.2928,-0.2821,-0.3299,-0.3741,-0.4192,-0.4172,-0.3998,-0.393,-0.388,-0.3819,-0.3819,-0.3819,-0.4131,-0.5201,-0.5433,-0.6044,-0.7692,-0.8194,-0.8574,-0.9266,-0.9781,-1.012,0.0,0.0,-1.0833,-1.0846,-1.0772,-1.0717,-1.0717,-1.0717,-1.0717,-1.0717,-1.0717,-1.0717,-1.0717,-1.0717,-1.0717,-1.0717,-1.0717,-1.0717,-1.0717,-1.0717,-1.0717,-1.0784,-1.2479,-1.4232,-1.5913,0.0,-1.864,-2.0982,-1.9228,-1.9546,-2.1046,-2.0195,-2.0386,-2.1109,-2.1109,-2.1109,-2.1109,-2.1109,-2.1109,-2.1109,-2.1109,-2.1109,-2.1109,-2.1109,-2.1109,-2.1109,-2.1109,-1.9941,-1.9088,-2.0652,-2.0526,-2.0132,-2.0919,-2.1109,-2.1109,-2.1109,-2.1109,-2.1162,-2.1323,-2.1456,-2.1668,-2.1764,-2.2138,-2.2418,-2.2418,-2.2672,-2.2928,-2.2928,-2.2928,-2.2928,-2.2928,-2.2928,-2.2928,-2.2928,-2.2928,-2.2928,-2.2928,-2.2928,-2.2928,-2.2928,-2.2928,-2.2928,-2.2928,-2.2928,-2.2928,-2.2928,-2.2928,-2.2928,-2.2928,-2.2928,-2.2928,-0.2411,-0.2975,-0.3517,-0.4409,-0.455,-0.4537,-0.4746,-0.4705,-0.4618,-0.4618,-0.4618,-0.4931,-0.5911,-0.6458,-0.7278,-0.875,-0.9259,-0.972,-1.0446,-1.0548,-1.0629,-1.0799,-1.0792,-1.0765,-1.0813,-1.0785,-1.0717,-1.0717,-1.0717,-1.0717,-1.0717,-1.0717,-1.0717,-1.0717,-1.0717,-1.0717,-1.0717,-1.0717,-1.0717,-1.0717,-1.0717,-1.0717,-1.0717,-1.2091,-1.3643,-1.5329,-1.5719,-1.7667,-2.0386,-1.9483,-1.9877,-2.1109,-2.1109,-2.1109,-2.1109,-2.1109,-2.1109,-2.1109,-2.1109,-2.1109,-2.1109,-2.1109,-2.1109,-2.1109,-2.1109,-2.1109,-2.1109,-2.1109,-2.1109,-2.1109,-2.1109,-2.1109,-2.1109,-2.1109,-2.1109,-2.1109,-2.1109,-2.1109,-2.1203,-2.1561,-2.1668,-2.175,-2.2031,-2.2325,-2.2525,-2.2525,-2.2712,-2.2928,-2.2928,-2.2928,-2.2928,-2.2928,-2.2928,-2.2928,-2.2928,-2.2928,-2.2928,-2.2928,-2.2928,-2.2928,-2.2928,-2.2928,-2.2928,-2.2928,-2.2928,-2.2928,-2.2928,-2.2928,-2.2928,-2.2928,-2.2928,-2.2928,-0.2793,-0.3169,-0.339,-0.3785,-0.4614,-0.5535,-0.6335,-0.6519,-0.6505,-0.6505,-0.6505,-0.6824,-0.7917,-0.8981,-0.9612,-0.9262,-0.9842,-1.0466,-1.0677,0.0,-1.0711,-1.0731,-1.0724,-1.0724,-1.0738,-1.0724,-1.0717,-1.0717,-1.0717,-1.0717,-1.0717,-1.0717,-1.0717,-1.0717,-1.0717,-1.0717,-1.0717,-1.0717,-1.0717,-1.0717,-1.0717,-1.0717,-1.0717,-1.085,-1.1828,-1.3587,-1.52,-1.6947,-1.8832,-2.0322,-2.0982,-2.1109,-2.1109,-2.1109,-2.1109,-2.1109,-2.1109,-2.1109,-2.1109,-2.1109,-2.1109,-2.1109,-2.1109,-2.1109,-2.1109,-2.1109,-2.1109,-2.1109,-2.1109,-2.1109,-2.1109,-2.1109,-2.1109,-2.1109,-2.1109,-2.1109,-2.1109,-2.1109,-2.1203,-2.1561,-2.1764,-2.2044,-2.2338,-2.2632,-2.2832,-2.2832,-2.2846,-2.2928,-2.2928,-2.2928,-2.2928,-2.2928,-2.2928,-2.2928,-2.2928,-2.2928,-2.2928,-2.2928,-2.2928,-2.2928,-2.2928,-2.2928,-2.2928,-2.2928,-2.2928,-2.2928,-2.2928,-2.2928,-2.2928,-2.2928,-2.2928,-2.2928,-0.2232,-0.322,-0.4226,-0.4992,-0.5691,-0.6159,-0.6037,-0.6512,-0.693,-0.693,-0.7054,-0.738,-0.8241,-0.9306,-1.0005,-0.9876,-1.0215,-1.0548,-1.0697,-1.0717,-1.0717,-1.0717,-1.0717,-1.0717,-1.0717,-1.0717,-1.0717,-1.0717,-1.0717,-1.0717,-1.0717,-1.0717,-1.0717,-1.0717,-1.0717,-1.0717,-1.0717,-1.0717,-1.0717,-1.0717,-1.0717,-1.0717,-1.0717,-1.0717,-1.2215,-1.4874,-1.4493,-1.6496,-2.0068,-1.9674,-2.0132,-2.1109,-2.1109,-2.1109,-2.1109,-2.1109,-2.1109,-2.1109,-2.1109,-2.1109,-2.1109,-2.1109,-2.1109,-2.1109,-2.1109,-2.1109,-2.1109,-2.1109,-2.1109,-2.1109,-2.1109,-2.1109,-2.1109,-2.1109,-2.1109,-2.1109,-2.1109,-2.1109,-2.1256,-2.1724,-2.1911,-2.2138,-2.2619,-2.2792,-2.2928,-2.2928,-2.2928,-2.2928,-2.2928,-2.2928,-2.2928,-2.2928,-2.2928,-2.2928,-2.2928,-2.2928,-2.2928,-2.2928,-2.2928,-2.2928,-2.2928,-2.3046,-2.306,-2.2928,-2.3046,-2.306,-2.2928,-2.2928,-2.2928,-2.2928,-2.2928,-2.2928,-0.2059,-0.3302,-0.4579,-0.5345,-0.6268,-0.6878,-0.6458,-0.6803,-0.7305,-0.7591,-0.7977,-0.8303,-0.8574,-0.9442,-1.008,-0.9944,-1.0283,-1.0602,-1.0704,-1.0717,-1.0717,-1.0717,-1.0717,-1.0704,-1.0656,-1.069,-1.0704,-1.0649,-1.069,-1.0717,-1.0717,-1.0717,-1.0717,-1.0717,-1.0717,-1.0717,-1.0717,-1.0717,-1.0717,-1.0717,-1.0717,-1.0717,-1.0717,-1.0717,-1.2025,-1.4232,-1.3578,-1.5654,-1.9419,-1.8768,-1.9546,-2.1109,-2.1109,-2.1109,-2.1109,-2.1109,-2.1109,-2.1109,-2.1109,-2.1109,-2.1109,-2.1109,-2.1109,-2.1109,-2.1109,-2.1109,-2.1109,-2.1109,-2.1109,-2.1109,-2.1109,-2.1109,-2.1109,-2.1109,-2.1109,-2.1109,-2.1109,-2.1189,-2.139,-2.1884,-2.2058,-2.2285,-2.2779,-2.2928,-2.2928,-2.2928,-2.2928,-2.2928,-2.2928,-2.2928,-2.2928,-2.2928,-2.2928,-2.2928,-2.2928,-2.2928,-2.2928,-2.2928,-2.2953,-2.3006,-2.3006,-2.3207,-2.3273,-2.3222,-2.3354,-2.3313,-2.3006,-2.3006,-2.2953,-2.2928,-2.2928,-2.2928,-0.2453,-0.3445,-0.4287,-0.4477,-0.6057,-0.7678,-0.7928,-0.7699,-0.7678,-0.8662,-0.9465,-0.9761,-0.902,-0.9673,-1.0032,-0.9344,-1.0039,-1.0717,-1.0717,-1.0717,-1.0717,-1.0717,-1.0717,-1.0656,-1.0507,-1.0629,-1.0656,-1.05,-1.0629,-1.0717,0.0,-1.0717,-1.0717,-1.0717,-1.0717,-1.0717,-1.0717,-1.0717,-1.0717,-1.0717,-1.0717,-1.0717,-1.0717,-1.0717,-1.0717,-1.085,-1.2545,-1.4297,-1.6043,-1.7795,-1.9546,-2.1109,-2.1109,-2.1109,-2.1109,-2.1109,-2.1109,-2.1109,-2.1109,-2.1109,-2.1109,-2.1109,-2.1109,-2.1109,-2.1109,-2.1109,-2.1109,-2.1109,-2.1109,-2.1109,-2.1109,-2.1109,-2.1109,-2.1109,-2.1109,-2.1109,-2.1109,-2.1349,-2.1708,-2.1937,-2.2218,-2.2512,-2.2806,-2.2928,-2.2928,-2.2928,-2.2928,-2.2928,-2.2928,-2.2928,-2.2928,-2.2928,-2.2928,-2.2928,-2.2928,-2.2928,-2.2928,-2.2928,-2.3153,-2.3327,-2.3327,-2.3327,-2.3474,-2.3768,-2.3768,-2.3634,-2.3327,-2.3327,-2.318,-2.2941,-2.2941,-2.2941,-0.3274,-0.4925,-0.643,-0.6363,-0.7092,-0.7984,-0.8282,-0.8248,-0.8119,-0.8018,-0.9178,-0.9917,-0.8954,-0.9598,-1.0209,-0.9985,-1.029,-1.0595,-1.0704,-1.0629,-1.0561,-1.0561,-1.0473,-1.0392,-1.0344,-1.0385,-1.0432,-1.0487,-1.0534,-1.0561,0.0,-1.0663,-1.067,-1.0561,-1.0663,-1.0717,-1.0717,-1.0717,-1.0717,-1.0717,-1.0717,-1.0717,-1.0717,-1.0717,-1.1372,-1.261,-1.4362,-1.6108,-1.7859,-1.961,-2.0652,-2.1109,-2.1109,-2.1109,-2.1109,-2.1109,-2.1109,-2.1109,-2.1109,-2.1109,-2.1109,-2.1109,-2.1109,-2.1109,-2.1109,-2.1109,-2.1109,-2.1109,-2.1109,-2.1109,-2.1109,-2.1109,-2.1109,-2.1109,-2.1269,-2.1416,-2.1416,-2.1657,-2.1937,-2.2231,-2.2365,-2.2512,-2.2806,-2.2928,-2.2928,-2.2928,-2.2928,-2.2928,-2.2928,-2.2928,-2.2939,-2.3166,-2.2993,-2.2953,-2.3166,-2.2993,-2.2928,-2.2928,-2.3153,-2.3327,-2.3327,-2.3728,-2.3888,-2.3768,-2.3968,-2.3928,-2.3634,-2.3634,-2.3594,-2.35,-2.35,-2.3394,-0.3804,-0.5637,-0.7366,-0.7333,-0.795,-0.8574,-0.8574,-0.871,-0.8737,-0.8384,-0.9401,-1.0154,-0.9462,-0.9849,-1.0263,-1.0202,-1.0358,-1.0507,-1.0541,-1.0568,-1.0541,-1.0419,-1.0385,-1.0317,-1.0202,-1.0243,-1.029,-1.0317,-1.0426,0.0,0.0,-1.0636,-1.0677,-1.0582,-1.067,-1.0717,-1.0717,-1.0717,-1.0717,-1.0717,-1.0717,-1.0717,-1.0717,-1.0717,-1.124,-1.2413,-1.4809,-1.6883,-1.864,-2.0386,-2.1109,-2.1109,-2.1109,-2.1109,-2.1109,-2.1109,-2.1109,-2.1109,-2.1109,-2.1109,-2.1109,-2.1109,-2.1109,-2.1109,-2.1109,-2.1109,-2.1109,-2.1109,-2.1109,-2.1109,-2.1109,-2.1109,-2.1136,-2.1256,-2.143,-2.1655,-2.1762,-2.1951,-2.2205,-2.2392,-2.2512,-2.2645,-2.2901,-2.2928,-2.2928,-2.2928,-2.2928,-2.2928,-2.2928,-2.2928,-2.2939,-2.3126,-2.3086,-2.3073,-2.314,-2.3086,-2.2993,-2.2941,-2.3273,-2.35,-2.35,-2.3955,-2.4168,-2.4115,-2.4289,-2.4235,-2.3941,-2.3941,-2.3888,-2.3768,-2.3768,-2.3674,-0.4088,-0.582,-0.7473,-0.7665,-0.8581,-0.932,-0.892,-0.9157,-0.9415,-0.9252,-0.989,-1.0405,-1.0175,-1.0215,-1.0229,-1.0011,-1.0283,-1.0426,-1.0297,-1.05,-1.0561,-1.029,-1.0365,-1.0324,-0.999,-1.0154,-1.0188,-0.9997,-1.0297,0.0,0.0,-1.0616,-1.0697,-1.0677,-1.0704,-1.0711,-1.0697,-1.0711,-1.0717,-1.0717,-1.0717,-1.0717,-1.0717,-1.0717,-1.085,-1.1372,-1.4688,-1.7141,-1.8832,-2.0462,-2.1109,-2.1109,-2.1109,-2.1109,-2.1109,-2.1109,-2.1109,-2.1109,-2.1109,-2.1109,-2.1109,-2.1109,-2.1109,-2.1109,-2.1109,-2.1109,-2.1109,-2.1109,-2.1109,-2.1109,-2.1109,-2.1109,-2.1189,-2.1547,-2.1641,-2.1735,-2.1964,-2.2258,-2.2458,-2.2458,-2.2672,-2.2928,-2.2928,-2.2928,-2.2928,-2.2928,-2.2928,-2.2928,-2.2928,-2.2928,-2.2941,-2.2899,-2.314,-2.318,-2.2926,-2.314,-2.318,-2.2926,-2.3447,-2.3781,-2.3808,-2.4088,-2.4369,-2.4636,-2.4636,-2.4502,-2.4249,-2.4249,-2.4102,-2.3848,-2.3848,-2.3834,-0.4562,-0.6132,-0.7577,-0.8438,-0.9191,-0.9734,-0.9694,-0.993,-0.9686,-0.8275,-0.9232,-1.0066,-0.9205,-0.972,-1.0229,-1.0011,-1.0209,-1.0317,-1.0283,-1.0229,-1.0105,-1.0044,-1.0019,-0.9944,-0.9876,-0.9903,-0.9958,-0.9977,0.0,0.0,-1.0317,-1.046,-1.0487,-1.0378,-1.0602,-1.0663,-1.0541,-1.0663,-1.0717,0.0,-1.0717,-1.0717,-1.0717,-1.0717,-1.2215,-1.4874,-1.7012,-1.896,-2.0589,-2.0982,-2.1109,-2.1109,-2.1109,-2.1109,-2.1109,-2.1109,-2.1109,-2.1109,-2.1109,-2.1109,-2.1109,-2.1109,-2.1109,-2.1109,-2.1109,-2.1109,-2.1109,-2.1109,-2.1109,-2.1109,-2.1109,-2.1109,-2.1189,-2.1547,-2.1789,-2.1977,-2.2258,-2.2552,-2.2766,-2.2766,-2.2819,-2.2928,-2.2928,-2.2928,-2.2928,-2.2928,-2.2928,-2.2928,-2.2928,-2.2928,-2.2953,-2.3207,-2.3073,-2.3033,-2.3207,-2.306,-2.3033,-2.322,-2.3567,-2.3875,-2.4102,-2.4382,-2.4569,-2.4636,-2.4636,-2.4609,-2.4543,-2.4543,-2.4516,-2.4449,-2.4449,-2.4329,-0.493,-0.6342,-0.7658,-0.8852,-0.9435,-0.9774,-0.9936,-1.0053,-0.9815,-0.8947,-0.9578,-1.0086,-0.9469,-0.9802,-1.012,-0.9903,-1.0066,-1.0141,-1.0073,-1.012,-1.0107,-0.9896,-0.9869,-0.9903,-0.9829,-0.9822,-0.9856,-0.9869,0.0,-1.0024,-1.0168,-1.031,-1.0358,-1.0283,-1.0432,-1.0507,-1.0493,-1.0568,-1.0649,-1.0717,-1.0717,-1.0717,-1.0717,-1.1571,-1.2931,-1.4819,-1.7409,-1.9024,-1.9941,-2.0779,-2.1109,-2.1109,-2.1109,-2.1109,-2.1109,-2.1109,-2.1109,-2.1109,-2.1109,-2.1109,-2.1109,-2.1109,-2.1109,-2.1109,-2.1109,-2.1109,-2.1109,-2.1109,-2.1109,-2.1109,-2.1109,-2.1216,-2.1403,-2.1683,-2.1871,-2.2071,-2.2352,-2.2645,-2.2928,-2.2928,-2.2928,-2.2928,-2.2928,-2.2928,-2.2928,-2.2928,-2.2928,-2.2928,-2.2928,-2.2928,-2.2926,-2.3086,-2.3086,-2.3153,-2.3313,-2.318,-2.322,-2.3514,-2.3688,-2.3901,-2.4195,-2.4476,-2.4636,-2.4636,-2.4636,-2.4636,-2.4636,-2.4636,-2.4636,-2.4636,-2.4636,-2.4556,-0.4833,-0.6327,-0.774,-0.9008,-0.9456,-0.9632,-0.9815,-0.9856,-0.9822,-0.9883,-1.0093,-1.0161,-0.997,-0.995,-0.9909,-0.9842,-0.9869,-0.9903,-0.9836,-1.0039,-1.0107,-0.9849,-0.9869,-0.9896,-0.9836,-0.9822,-0.9822,0.0,0.0,-0.9957,-0.9984,-1.0168,-1.0243,-1.0243,-1.0263,-1.0324,-1.0412,-1.0466,-1.0555,-1.0683,-1.0711,-1.0717,-1.0784,-1.28,-1.3774,-1.3905,-1.7141,-1.8704,-1.9088,-2.0526,-2.1109,-2.1109,-2.1109,-2.1109,-2.1109,-2.1109,-2.1109,-2.1109,-2.1109,-2.1109,-2.1109,-2.1109,-2.1109,-2.1109,-2.1109,-2.1109,-2.1109,-2.1109,-2.1109,-2.1122,-2.1176,-2.1363,-2.1695,-2.1924,-2.2031,-2.2138,-2.2432,-2.2686,-2.2928,-2.2928,-2.2928,-2.2928,-2.2928,-2.2928,-2.2928,-2.2928,-2.2928,-2.2928,-2.2928,-2.2928,-2.2928,-2.2928,-2.31,-2.3247,-2.3247,-2.33,-2.3447,-2.3754,-2.3821,-2.3981,-2.4262,-2.4516,-2.4636,-2.4636,-2.4636,-2.4636,-2.4636,-2.4636,-2.4636,-2.4636,-2.4636,-2.4636,-0.3422,-0.561,-0.7712,-0.8934,-0.9357,-0.9422,-0.9462,-0.9557,-0.9646,-0.9666,-0.9781,-0.9876,-0.9856,-0.9849,-0.9842,-0.9822,-0.9836,-0.9842,-0.9822,-0.9856,-0.9869,-0.9829,-0.9836,-0.9842,-0.9822,-0.9822,-0.9822,0.0,-0.9842,-0.9849,-0.9977,-1.0004,-1.0017,-1.0017,-1.0209,-1.0222,-1.0044,-1.0365,-1.05,-1.0521,-1.0656,-1.0717,-1.0784,-1.4101,-1.5524,-1.5654,-1.7667,-1.9355,-2.0779,-2.0982,-2.1109,-2.1109,-2.1109,-2.1109,-2.1109,-2.1109,-2.1109,-2.1109,-2.1109,-2.1109,-2.1109,-2.1109,-2.1109,-2.1109,-2.1109,-2.1109,-2.1109,-2.1109,-2.1109,-2.1162,-2.1494,-2.1588,-2.1695,-2.1924,-2.2178,-2.2445,-2.2739,-2.2901,-2.2928,-2.2928,-2.2928,-2.2928,-2.2928,-2.2928,-2.2928,-2.2928,-2.2928,-2.2928,-2.2928,-2.2928,-2.2928,-2.2928,-2.2899,-2.2926,-2.2926,-2.318,-2.3447,-2.3754,-2.4008,-2.4275,-2.4569,-2.4609,-2.4636,-2.4636,-2.4636,-2.4636,-2.4636,-2.4636,-2.4636,-2.4636,-2.4636,-2.4636,-0.3385,-0.5494,-0.7407,-0.8106,-0.8825,-0.933,-0.9361,-0.9435,-0.9483,-0.9483,-0.953,-0.9625,-0.9788,-0.9754,-0.97,-0.97,-0.97,-0.9673,-0.9585,-0.972,-0.9788,-0.9713,-0.9774,-0.9822,-0.9822,-0.9822,-0.9822,0.0,-0.9822,-0.9849,-0.9856,-0.9862,-0.9862,-0.9862,-0.9985,-1.0073,-1.0175,-1.031,-1.046,-1.0622,-1.069,-1.0717,-1.0784,-1.3325,-1.4428,-1.4623,-1.8372,-1.9877,-1.9737,-2.0716,-2.1109,-2.1109,-2.1109,-2.1109,-2.1109,-2.1109,-2.1109,-2.1109,-2.1109,-2.1109,-2.1109,-2.1109,-2.1109,-2.1109,-2.1109,-2.1109,-2.1109,-2.1109,-2.1229,-2.139,-2.1588,-2.179,-2.2071,-2.2205,-2.2458,-2.2699,-2.2901,-2.2928,-2.2928,-2.2928,-2.2928,-2.2928,-2.2928,-2.2928,-2.2928,-2.2928,-2.2928,-2.2928,-2.2928,-2.2928,-2.2928,-2.2928,-2.2928,-2.2939,-2.3113,-2.3247,-2.3527,-2.3981,-2.4128,-2.4329,-2.4623,-2.4636,-2.4636,-2.4636,-2.4636,-2.4636,-2.4636,-2.4636,-2.4636,-2.4636,-2.4636,-2.4636,-0.3482,-0.5042,-0.6438,-0.7285,-0.8099,-0.8852,-0.9184,-0.93,-0.932,-0.932,-0.9354,-0.9449,-0.9666,-0.9625,-0.9551,-0.9551,-0.9551,-0.951,-0.9395,-0.9571,-0.9686,-0.9618,-0.97,-0.9781,-0.9815,-0.9822,-0.9822,0.0,-0.9822,-0.9822,-0.9822,-0.9822,-0.9822,-0.9822,-0.9822,-0.9951,-1.0215,-1.0297,-1.0466,-1.0717,-1.0717,-1.0916,-1.1439,-1.3193,-1.4232,-1.4819,-1.8768,-1.9941,-1.9279,-2.0589,-2.1109,-2.1109,-2.1109,-2.1109,-2.1109,-2.1109,-2.1109,-2.1109,-2.1109,-2.1109,-2.1109,-2.1109,-2.1109,-2.1109,-2.1109,-2.1109,-2.1109,-2.1109,-2.1323,-2.1641,-2.1708,-2.2044,-2.2432,-2.2512,-2.2699,-2.2928,-2.2928,-2.2928,-2.2928,-2.2928,-2.2928,-2.2928,-2.2928,-2.2928,-2.2928,-2.2928,-2.2928,-2.2928,-2.2928,-2.2928,-2.2928,-2.2928,-2.2928,-2.2953,-2.3193,-2.3354,-2.3634,-2.4062,-2.4235,-2.4409,-2.4549,-2.4636,-2.4636,-2.4636,-2.4636,-2.4636,-2.4636,-2.4636,-2.4636,-2.4636,-2.4636,-2.4636,-0.3297,-0.3802,-0.4484,-0.6586,-0.7319,-0.7726,-0.873,-0.9069,-0.9221,-0.9221,-0.9337,-0.9388,-0.9401,-0.9401,-0.9395,-0.9395,-0.9395,-0.9388,-0.9381,-0.9395,-0.9456,-0.9591,-0.9618,-0.9673,-0.9808,-0.9822,-0.9822,0.0,-0.9822,-0.9822,-0.9822,-0.9822,-0.9822,-0.9822,-0.9822,-0.9897,-0.9997,-1.0337,-1.0561,-1.0717,-1.0717,-1.1571,-1.3193,-1.4939,-1.6689,-1.8244,-1.8512,-1.9546,-2.0982,-2.1046,-2.1109,-2.1109,-2.1109,-2.1109,-2.1109,-2.1109,-2.1109,-2.1109,-2.1109,-2.1109,-2.1109,-2.1109,-2.1109,-2.1109,-2.1109,-2.1109,-2.1109,-2.1109,-2.1323,-2.1681,-2.1897,-2.2191,-2.2485,-2.2779,-2.2914,-2.2928,-2.2928,-2.2928,-2.2928,-2.2928,-2.2928,-2.2928,-2.2928,-2.2928,-2.2928,-2.2928,-2.2928,-2.2928,-2.2928,-2.2928,-2.2928,-2.2928,-2.2928,-2.2941,-2.2954,-2.342,-2.3754,-2.3794,-2.4302,-2.4623,-2.4636,-2.4636,-2.4636,-2.4636,-2.4636,-2.4636,-2.4636,-2.4636,-2.4636,-2.4636,-2.4636,-2.4636,-0.2428,-0.31,-0.3897,-0.4769,-0.5616,-0.6349,-0.6817,-0.7489,-0.8088,-0.8133,-0.8655,-0.9096,-0.9096,-0.9171,-0.9296,-0.9296,-0.9296,-0.9205,-0.911,-0.9259,-0.9367,-0.932,-0.949,-0.9632,-0.968,-0.9768,-0.9822,0.0,0.0,-0.9822,-0.9822,-0.9822,-0.9822,-0.9822,-1.0778,-1.1996,-1.3403,-1.3608,-1.384,-1.4036,-1.4036,-1.4362,-1.5005,-1.6754,-1.7923,-1.8576,-1.9674,-2.0526,-2.1109,-2.1109,-2.1109,-2.1109,-2.1109,-2.1109,-2.1109,-2.1109,-2.1109,-2.1109,-2.1109,-2.1109,-2.1109,-2.1109,-2.1109,-2.1109,-2.1109,-2.1109,-2.1109,-2.1109,-2.1456,-2.1857,-2.1964,-2.2338,-2.2726,-2.2832,-2.2928,-2.2928,-2.2928,-2.2928,-2.2928,-2.2928,-2.2928,-2.2928,-2.2928,-2.2928,-2.2928,-2.2928,-2.2928,-2.2928,-2.2928,-2.2928,-2.2928,-2.2928,-2.2928,-2.2928,-2.2928,-2.342,-2.3768,-2.3768,-2.4315,-2.4636,-2.4636,-2.4636,-2.4636,-2.4636,-2.4636,-2.4636,-2.4636,-2.4636,-2.4636,-2.4636,-2.4636,-2.4636,-0.1906,-0.2483,-0.3174,-0.367,-0.4395,-0.5128,-0.5677,-0.6573,-0.7339,-0.7489,-0.8275,-0.8885,-0.8885,-0.9015,-0.9083,-0.9083,-0.9083,-0.9049,-0.8898,-0.911,-0.9211,-0.9214,-0.9334,-0.9496,-0.9598,-0.9693,-0.9768,0.0,0.0,0.0,-0.9822,-0.9822,-1.0058,-1.0596,-1.1797,-1.3373,-1.5308,-1.5549,-1.5708,-1.5913,-1.5913,-1.6237,-1.6818,-1.7988,-1.8832,-1.9419,-2.0589,-2.1109,-2.1109,-2.1109,-2.1109,-2.1109,-2.1109,-2.1109,-2.1109,-2.1109,-2.1109,-2.1109,-2.1109,-2.1109,-2.1109,-2.1109,-2.1109,-2.1109,-2.1109,-2.1109,-2.1109,-2.1109,-2.1456,-2.1857,-2.1964,-2.2418,-2.2928,-2.2928,-2.2928,-2.2928,-2.2928,-2.2928,-2.2928,-2.2928,-2.2928,-2.2928,-2.2928,-2.2928,-2.2928,-2.2928,-2.2928,-2.2928,-2.2928,-2.2928,-2.2928,-2.2928,-2.2928,-2.2968,-2.3006,-2.3474,-2.3808,-2.3915,-2.4369,-2.4636,-2.4636,-2.4636,-2.4636,-2.4636,-2.4636,-2.4636,-2.4636,-2.4636,-2.4636,-2.4636,-2.4636,-2.4636,0.0,0.0,0.0,-0.3446,-0.3737,-0.409,-0.544,-0.6377,-0.7058,-0.7333,-0.818,-0.8844,-0.8878,-0.8885,-0.8885,-0.8885,-0.8885,-0.8885,-0.8885,-0.8885,-0.8988,-0.9187,-0.9207,-0.933,-0.9571,-0.9605,-0.9666,0.0,-0.9822,-0.9822,-0.9822,-0.9822,-1.0543,-1.2157,-1.2696,-1.376,-1.537,-1.5808,-1.6033,-1.6043,-1.6043,-1.6947,-1.8576,-1.8576,-1.9483,-2.1109,-2.1109,-2.1109,-2.1109,-2.1109,-2.1109,-2.1109,-2.1109,-2.1109,-2.1109,-2.1109,-2.1109,-2.1109,-2.1109,-2.1109,-2.1109,-2.1109,-2.1109,-2.1109,-2.1109,-2.1109,-2.1109,-2.1109,-2.1323,-2.1681,-2.1924,-2.2432,-2.2928,-2.2928,-2.2928,-2.2928,-2.2928,-2.2928,-2.2928,-2.2928,-2.2928,-2.2928,-2.2928,-2.2928,-2.2928,-2.2928,-2.2928,-2.2928,-2.2928,-2.2928,-2.2928,-2.2928,-2.2941,-2.2993,-2.33,-2.3607,-2.3901,-2.4182,-2.4476,-2.4636,-2.4636,-2.4636,-2.4636,-2.4636,-2.4636,-2.4636,-2.4636,-2.4636,-2.4636,-2.4636,-2.4636,-2.4636,-0.192,0.0,0.0,0.0,0.0,0.0,-0.4206,-0.4619,-0.5257,-0.7149,-0.759,-0.7853,-0.8723,-0.8885,-0.8885,-0.8885,-0.8885,-0.8885,-0.8885,-0.8885,-0.8898,-0.8994,-0.9089,-0.9289,-0.9422,-0.9544,0.0,0.0,-0.9822,-0.9822,-0.9822,-0.9822,-1.0543,-1.2157,-1.3458,-1.5115,-1.7172,-1.8384,-1.9225,-1.9674,-1.9674,-1.9941,-2.0386,-2.0386,-2.0652,-2.1109,-2.1109,-2.1109,-2.1109,-2.1109,-2.1109,-2.1109,-2.1109,-2.1109,-2.1109,-2.1109,-2.1109,-2.1109,-2.1109,-2.1109,-2.1109,-2.1109,-2.1109,-2.1109,-2.1109,-2.1109,-2.1109,-2.1109,-2.1323,-2.1735,-2.2164,-2.2579,-2.2928,-2.2928,-2.2928,-2.2928,-2.2928,-2.2928,-2.2928,-2.2928,-2.2928,-2.2928,-2.2928,-2.2928,-2.2928,-2.2928,-2.2928,-2.2928,-2.2928,-2.2928,-2.2928,-2.2928,-2.306,-2.3233,-2.3313,-2.3794,-2.4115,-2.4195,-2.4476,-2.4636,-2.4636,-2.4636,-2.4636,-2.4636,-2.4636,-2.4636,-2.4636,-2.4636,-2.4636,-2.4636,-2.4636,-2.4636,-0.2021,-0.1975,-0.2008,-0.217,0.0,0.0,-0.3242,-0.3636,-0.4375,0.0,-0.6709,-0.6889,-0.8072,-0.7923,-0.7773,-0.8214,-0.8282,-0.8438,-0.8824,-0.8885,-0.8885,-0.8885,-0.9015,-0.9144,-0.9361,-0.9462,-0.9598,-0.9802,-0.9822,-0.9822,-0.9822,-0.9822,-1.0543,-1.2157,-1.3851,-1.5406,-1.6647,-1.917,-2.0266,-1.9953,-2.0727,-2.1109,-2.1109,-2.1109,-2.1109,-2.1109,-2.1109,-2.1109,-2.1109,-2.1109,-2.1109,-2.1109,-2.1109,-2.1109,-2.1109,-2.1109,-2.1109,-2.1109,-2.1109,-2.1109,-2.1109,-2.1109,-2.1109,-2.1109,-2.1109,-2.1109,-2.1109,-2.1109,-2.1416,-2.1817,-2.2151,-2.2552,-2.2928,-2.2928,-2.2928,-2.2928,-2.2928,-2.2928,-2.2928,-2.2928,-2.2928,-2.2928,-2.2928,-2.2928,-2.2928,-2.2928,-2.2928,-2.2928,-2.2928,-2.2928,-2.2913,-2.3046,-2.322,-2.342,-2.3674,-2.4008,-2.4249,-2.4382,-2.4543,-2.4636,-2.4636,-2.4636,-2.4636,-2.4636,-2.4636,-2.4636,-2.4636,-2.4636,-2.4636,-2.4636,-2.4636,-2.4636,-0.2177,-0.2171,-0.2305,-0.2479,-0.228,0.0,-0.2703,-0.3235,-0.4002,0.0,-0.5644,-0.5881,-0.6996,-0.6396,-0.6078,-0.7043,-0.7316,-0.774,-0.8737,-0.8885,-0.8885,-0.8885,-0.8885,-0.9049,-0.9327,-0.9367,-0.9496,-0.9774,-0.9815,-0.9822,-0.9822,-0.9822,-1.0482,-1.1916,-1.3704,-1.472,-1.475,-1.8435,-1.9647,-1.8301,-2.0155,-2.1082,-2.1109,-2.1109,-2.1109,-2.1109,-2.1109,-2.1109,-2.1109,-2.1109,-2.1109,-2.1109,-2.1109,-2.1109,-2.1109,-2.1109,-2.1109,-2.1109,-2.1109,-2.1109,-2.1109,-2.1109,-2.1109,-2.1109,-2.1109,-2.1109,-2.1109,-2.1109,-2.1537,-2.1991,-2.1991,-2.2418,-2.2928,-2.2928,-2.2928,-2.2928,-2.2928,-2.2928,-2.2928,-2.2928,-2.2928,-2.2928,-2.2928,-2.2928,-2.2928,-2.2928,-2.2928,-2.2928,-2.2928,-2.2928,-2.2966,-2.3247,-2.334,-2.3581,-2.4115,-2.4209,-2.4369,-2.4549,-2.4636,-2.4636,-2.4636,-2.4636,-2.4636,-2.4636,-2.4636,-2.4636,-2.4636,-2.4636,-2.4636,-2.4636,-2.4636,-2.4636,-0.2713,-0.2666,-0.2614,-0.2648,-0.2527,0.0,-0.3413,-0.2944,-0.2944,0.0,-0.4709,-0.4395,-0.5569,-0.5719,-0.5657,-0.5774,-0.6702,-0.774,-0.8737,-0.8885,-0.8885,-0.8885,-0.8885,-0.9008,-0.9234,-0.9306,-0.9456,-0.9639,-0.9754,-0.9822,-0.9822,-0.9822,-0.9937,-1.024,-1.1889,-1.282,-1.3101,-1.6414,-1.8142,-1.8301,-1.9962,-2.0882,-2.1109,-2.1109,-2.1109,-2.1109,-2.1109,-2.1109,-2.1109,-2.1109,-2.1109,-2.1109,-2.1109,-2.1109,-2.1109,-2.1109,-2.1109,-2.1109,-2.1109,-2.1109,-2.1109,-2.1109,-2.1109,-2.1109,-2.1109,-2.1109,-2.1109,-2.1109,-2.1537,-2.1991,-2.1991,-2.2418,-2.2928,-2.2928,-2.2928,-2.2928,-2.2928,-2.2928,-2.2928,-2.2928,-2.2928,-2.2928,-2.2928,-2.2928,-2.2928,-2.2928,-2.2928,-2.2928,-2.2928,-2.2928,-2.2886,-2.2953,-2.3394,-2.3728,-2.3848,-2.4289,-2.4569,-2.4636,-2.4636,-2.4636,-2.4636,-2.4636,-2.4636,-2.4636,-2.4636,-2.4636,-2.4636,-2.4636,-2.4636,-2.4636,-2.4636,-2.4636,-0.293,-0.2903,-0.2903,-0.2903,-0.2751,0.0,0.0,-0.2659,-0.2595,-0.4334,-0.3744,-0.3276,-0.447,-0.4267,-0.409,-0.4606,-0.5257,-0.6091,-0.7217,-0.8224,-0.8885,-0.8885,-0.8885,-0.8994,-0.9193,-0.9282,-0.9361,-0.9591,-0.9741,-0.9822,-0.9822,-0.9822,-0.9822,-0.9822,-1.1374,-1.1897,-1.1203,-1.4607,-1.6552,-1.693,-1.8773,-2.013,-2.1109,-2.1109,-2.1109,-2.1109,-2.1109,-2.1109,-2.1109,-2.1109,-2.1109,-2.1109,-2.1109,-2.1109,-2.1109,-2.1109,-2.1109,-2.1109,-2.1109,-2.1109,-2.1109,-2.1109,-2.1109,-2.1109,-2.1109,-2.1109,-2.1109,-2.1109,-2.1537,-2.1991,-2.1991,-2.2418,-2.2928,-2.2928,-2.2928,-2.2928,-2.2928,-2.2928,-2.2928,-2.2928,-2.2928,-2.2928,-2.2928,-2.2928,-2.2928,-2.2928,-2.2928,-2.2928,-2.2928,-2.2928,-2.2926,-2.3073,-2.35,-2.3834,-2.3968,-2.4382,-2.4636,-2.4636,-2.4636,-2.4636,-2.4636,-2.4636,-2.4636,-2.4636,-2.4636,-2.4636,-2.4636,-2.4636,-2.4636,-2.4636,-2.4636,-2.4636,0.0,0.0,0.0,0.0,0.0,-0.2757,0.0,0.0,0.0,-0.3425,-0.2852,-0.2452,-0.3398,-0.2804,0.0,-0.3418,0.0,0.0,0.0,-0.7061,0.0,-0.8278,-0.8312,-0.8492,-0.8838,-0.9071,-0.9337,-0.9585,-0.9713,-0.9795,-0.9822,-0.9822,-0.9822,-0.9822,-1.108,-1.114,-0.9822,-1.3058,-1.499,-1.5515,-1.7467,-1.932,-2.1109,-2.1109,-2.1109,-2.1109,-2.1109,-2.1109,-2.1109,-2.1109,-2.1109,-2.1109,-2.1109,-2.1109,-2.1109,-2.1109,-2.1109,-2.1109,-2.1109,-2.1109,-2.1109,-2.1109,-2.1109,-2.1109,-2.1109,-2.1109,-2.1109,-2.1109,-2.1496,-2.1911,-2.1977,-2.2378,-2.2792,-2.2846,-2.2928,-2.2928,-2.2928,-2.2928,-2.2928,-2.2928,-2.2928,-2.2928,-2.2928,-2.2928,-2.2928,-2.2928,-2.2928,-2.2928,-2.2928,-2.2928,-2.2953,-2.3207,-2.35,-2.3808,-2.4102,-2.4382,-2.4583,-2.4636,-2.4636,-2.4636,-2.4636,-2.4636,-2.4636,-2.4636,-2.4636,-2.4636,-2.4636,-2.4636,-2.4636,-2.4636,-2.4636,-2.4636,0.0,0.0,0.0,0.0,-0.3074,0.0,0.0,0.0,-0.2424,-0.2266,0.0,-0.2022,-0.2048,0.0,0.0,0.0,0.0,0.0,-0.3877,-0.5067,-0.6017,-0.6146,-0.6236,-0.6681,0.0,-0.8586,-0.9337,-0.9585,-0.9625,-0.9686,-0.9815,-0.9822,-0.9822,-0.9822,-1.0004,-0.9997,-0.9822,-1.1655,-1.3536,-1.5515,-1.7179,-1.9075,-2.1109,-2.1109,-2.1109,-2.1109,-2.1109,-2.1109,-2.1109,-2.1109,-2.1109,-2.1109,-2.1109,-2.1109,-2.1109,-2.1109,-2.1109,-2.1109,-2.1109,-2.1109,-2.1109,-2.1109,-2.1109,-2.1109,-2.1109,-2.1109,-2.1109,-2.1109,-2.1349,-2.1722,-2.1924,-2.2231,-2.2539,-2.2806,-2.2928,-2.2928,-2.2928,-2.2928,-2.2928,-2.2928,-2.2928,-2.2928,-2.2928,-2.2928,-2.2928,-2.2928,-2.2928,-2.2928,-2.2928,-2.2928,-2.2873,-2.2913,-2.3193,-2.35,-2.3794,-2.4088,-2.4369,-2.4549,-2.4636,-2.4636,-2.4636,-2.4636,-2.4636,-2.4636,-2.4636,-2.4636,-2.4636,-2.4636,-2.4636,-2.4636,-2.4636,-2.4636,0.0,0.0,0.0,0.0,0.0,0.0,-0.2826,0.0,-0.246,0.0,0.0,0.0,0.0,0.0,0.0,0.0,-0.2487,0.0,0.0,0.0,-0.4117,0.0,0.0,0.0,0.0,0.0,0.0,0.0,-0.8648,-0.8764,-0.8913,-0.9496,-0.9822,-0.9822,-0.9822,-0.9822,-0.9822,-1.0577,-1.1958,-1.402,-1.476,-1.6688,-1.961,-1.961,-2.0132,-2.1109,-2.1109,-2.1109,-2.1109,-2.1109,-2.1109,-2.1109,-2.1109,-2.1109,-2.1109,-2.1109,-2.1109,-2.1109,-2.1109,-2.1109,-2.1109,-2.1109,-2.1109,-2.1109,-2.1109,-2.1109,-2.1109,-2.1109,-2.1443,-2.183,-2.1951,-2.2325,-2.2712,-2.2901,-2.2928,-2.2928,-2.2928,-2.2928,-2.2928,-2.2928,-2.2928,-2.2928,-2.2928,-2.2928,-2.2928,-2.2928,-2.2928,-2.2928,-2.2928,-2.2928,-2.2928,-2.2928,-2.314,-2.338,-2.35,-2.3781,-2.4075,-2.4369,-2.4543,-2.4636,-2.4636,-2.4636,-2.4636,-2.4636,-2.4636,-2.4636,-2.4636,-2.4636,-2.4636,-2.4636,-2.4636,-2.4636,-0.5359,0.0,0.0,0.0,0.0,0.0,0.0,0.0,0.0,0.0,0.0,0.0,0.0,0.0,-0.2191,-0.2204,0.0,-0.2123,0.0,-0.2124,0.0,0.0,0.0,0.0,0.0,0.0,0.0,-0.7258,-0.7382,-0.7699,-0.818,-0.896,-0.9523,-0.9815,-0.9822,-0.9822,-0.9822,-0.9869,-1.0944,-1.2901,-1.2965,-1.4683,-1.7795,-1.7795,-1.8768,-2.0386,-2.0386,-2.0652,-2.1109,-2.1109,-2.1109,-2.1109,-2.1109,-2.1109,-2.1109,-2.1109,-2.1109,-2.1109,-2.1109,-2.1109,-2.1109,-2.1109,-2.1109,-2.1109,-2.1109,-2.1109,-2.1109,-2.1109,-2.147,-2.1884,-2.1964,-2.2365,-2.2766,-2.2914,-2.2928,-2.2928,-2.2928,-2.2928,-2.2928,-2.2928,-2.2928,-2.2928,-2.2928,-2.2928,-2.2928,-2.2928,-2.2928,-2.2928,-2.2928,-2.2928,-2.2928,-2.2928,-2.306,-2.3233,-2.3313,-2.3527,-2.3808,-2.4182,-2.4476,-2.4636,-2.4636,-2.4636,-2.4636,-2.4636,-2.4636,-2.4636,-2.4636,-2.4636,-2.4636,-2.4636,-2.4636,-2.4636,0.0,0.0,0.0,-0.6207,0.0,0.0,0.0,0.0,-0.2856,0.0,0.0,0.0,0.0,-0.2682,-0.2571,-0.2258,-0.2368,0.0,0.0,0.0,0.0,0.0,0.0,0.0,0.0,-0.5228,-0.5745,-0.6027,-0.6054,-0.6627,-0.7928,-0.8221,-0.8784,-0.9788,-0.9822,-0.9822,-0.9822,-0.9829,-1.0834,-1.2901,-1.2909,-1.3988,-1.5978,-1.5978,-1.6947,-1.8576,-1.8576,-1.9546,-2.1109,-2.1109,-2.1109,-2.1109,-2.1109,-2.1109,-2.1109,-2.1109,-2.1109,-2.1109,-2.1109,-2.1109,-2.1109,-2.1109,-2.1109,-2.1109,-2.1109,-2.1109,-2.1109,-2.1109,-2.1336,-2.1695,-2.1911,-2.2205,-2.2498,-2.2792,-2.2928,-2.2928,-2.2928,-2.2928,-2.2928,-2.2928,-2.2928,-2.2928,-2.2928,-2.2928,-2.2928,-2.2928,-2.2928,-2.2928,-2.2928,-2.2928,-2.2928,-2.2928,-2.2941,-2.2993,-2.33,-2.334,-2.3581,-2.4168,-2.4476,-2.4636,-2.4636,-2.4636,-2.4636,-2.4636,-2.4636,-2.4636,-2.4636,-2.4636,-2.4636,-2.4636,-2.4636,-2.4636,0.0,0.0,-0.7258,-0.7461,0.0,0.0,0.0,0.0,0.0,0.0,0.0,0.0,0.0,-0.2815,-0.2634,-0.243,-0.2273,-0.2082,0.0,0.0,0.0,0.0,0.0,0.0,0.0,0.0,0.0,-0.4766,-0.4938,-0.5583,-0.6932,-0.7712,-0.8642,-0.9788,-0.9822,-0.9822,-0.9822,-0.9822,-1.0224,-1.0988,-1.1106,-1.2211,-1.4033,-1.4169,-1.5135,-1.6754,-1.6754,-1.7076,-1.7731,-1.8896,-1.9355,-1.9483,-2.0652,-2.1109,-2.1109,-2.1109,-2.1109,-2.1109,-2.1109,-2.1109,-2.1109,-2.1109,-2.1109,-2.1109,-2.1109,-2.1109,-2.1109,-2.1109,-2.1456,-2.1857,-2.1964,-2.2352,-2.2739,-2.2846,-2.2928,-2.2928,-2.2928,-2.2928,-2.2928,-2.2928,-2.2928,-2.2928,-2.2928,-2.2928,-2.2928,-2.2928,-2.2928,-2.2928,-2.2928,-2.2928,-2.2928,-2.2928,-2.2928,-2.2968,-2.3006,-2.3394,-2.3781,-2.4182,-2.4476,-2.4636,-2.4636,-2.4636,-2.4636,-2.4636,-2.4636,-2.4636,-2.4636,-2.4636,-2.4636,-2.4636,-2.4636,-2.4636,-0.8635,-0.8554,0.0,-0.8608,-0.7495,0.0,-0.5827,0.0,0.0,0.0,0.0,0.0,0.0,0.0,-0.2785,-0.2596,-0.2286,-0.2009,0.0,-0.1877,0.0,0.0,-0.2286,-0.2662,0.0,-0.291,-0.2878,-0.3613,-0.3747,-0.4552,0.0,0.0,-0.8201,-0.9774,-0.9822,-0.9822,-0.9822,-0.9822,-0.9835,-0.999,-1.0209,-1.0984,-1.2153,-1.2334,-1.3325,-1.5005,-1.5005,-1.5329,-1.5978,-1.7076,-1.7602,-1.7731,-1.9483,-2.0195,-2.0259,-2.0843,-2.1109,-2.1109,-2.1109,-2.1109,-2.1109,-2.1109,-2.1109,-2.1109,-2.1109,-2.1109,-2.1109,-2.1109,-2.1537,-2.1991,-2.1991,-2.2418,-2.2928,-2.2928,-2.2928,-2.2928,-2.2928,-2.2928,-2.2928,-2.2928,-2.2928,-2.2928,-2.2928,-2.2928,-2.2928,-2.2928,-2.2928,-2.2928,-2.2928,-2.2928,-2.2928,-2.2928,-2.2928,-2.2928,-2.2928,-2.342,-2.3848,-2.4035,-2.4422,-2.4636,-2.4636,-2.4636,-2.4636,-2.4636,-2.4636,-2.4636,-2.4636,-2.4636,-2.4636,-2.4636,-2.4636,-2.4636]},{"header":{"parameterUnit":"m.s-1","parameterCategory":1,"la1":30.6,"la2":29.2853,"lo1":-89.7004,"lo2":-87.6739,"dy":0.0162,"dx":0.0183,"nx":112,"ny":82,"refTime":"2023-04-24T06:00:00:Z","depth":0,"parameterNumber":3,"parameterNumberName":"V-component_of_WINDS"},"data":[0.0,0.0,0.0,0.0,0.0,0.0,0.0,0.0,0.0,0.0,0.0,0.0,0.0,0.0,0.0,0.0,0.0,0.0,0.0,0.0,0.0,0.0,0.0,0.0,0.0,0.0,0.0,0.0,0.0,0.0,0.0,0.0,0.0,0.0,0.0,0.0,0.0,0.0,0.0,0.0,0.0,0.0,0.0,0.0,0.0,0.0,0.0,0.0,0.0,0.0,0.0,0.0,0.0,0.0,0.0,0.0,0.0,0.0,0.0,0.0,0.0,0.0,0.0,0.0,0.0,0.0,0.0,0.0,0.0,0.0,0.0,0.0,0.0,0.0,0.0,0.0,0.0,0.0,0.0,0.0,0.0,0.0,0.0,0.0,0.0,0.0,0.0,0.0,0.0,0.0,3.6115,3.7161,3.92,4.0769,4.1498,4.0844,3.754,3.0759,0.0,0.0,0.0,0.0,0.0,0.0,0.0,0.0,0.0,0.0,0.0,0.0,0.0,0.0,0.0,0.0,0.0,0.0,0.0,0.0,0.0,0.0,0.0,0.0,0.0,0.0,0.0,0.0,0.0,0.0,0.0,0.0,0.0,0.0,0.0,0.0,0.0,0.0,0.0,0.0,0.0,0.0,0.0,0.0,0.0,0.0,0.0,0.0,0.0,0.0,0.0,0.0,0.0,0.0,0.0,0.0,0.0,0.0,0.0,0.0,0.0,0.0,0.0,0.0,0.0,0.0,0.0,0.0,0.0,0.0,0.0,0.0,0.0,0.0,0.0,0.0,0.0,0.0,0.0,0.0,0.0,0.0,0.0,0.0,0.0,0.0,0.0,0.0,0.0,0.0,0.0,0.0,0.0,0.0,0.0,0.0,0.0,0.0,0.0,0.0,0.0,0.0,0.0,0.0,3.3538,3.9323,4.0285,4.0474,4.0387,4.0253,3.7248,3.0396,0.0,0.0,0.0,0.0,0.0,0.0,0.0,0.0,0.0,0.0,0.0,0.0,0.0,0.0,0.0,0.0,0.0,0.0,0.0,0.0,0.0,0.0,0.0,0.0,0.0,0.0,0.0,0.0,0.0,0.0,0.0,0.0,0.0,0.0,0.0,0.0,0.0,0.0,0.0,0.0,0.0,0.0,0.0,0.0,0.0,0.0,0.0,0.0,0.0,0.0,0.0,0.0,0.0,0.0,0.0,0.0,0.0,0.0,0.0,0.0,0.0,0.0,0.0,0.0,0.0,0.0,0.0,0.0,0.0,0.0,0.0,0.0,0.0,0.0,0.0,0.0,0.0,0.0,0.0,0.0,0.0,0.0,0.0,0.0,0.0,0.0,0.0,0.0,0.0,0.0,0.0,0.0,0.0,0.0,0.0,0.0,0.0,0.0,0.0,0.0,0.0,0.0,0.0,3.1577,3.4997,3.9768,4.0295,4.0157,3.9851,3.9819,3.6994,3.0326,3.0021,0.0,0.0,0.0,0.0,0.0,0.0,0.0,0.0,0.0,0.0,0.0,0.0,0.0,0.0,0.0,0.0,0.0,0.0,0.0,0.0,0.0,0.0,0.0,0.0,0.0,0.0,0.0,0.0,0.0,0.0,0.0,0.0,0.0,0.0,0.0,0.0,0.0,0.0,0.0,0.0,0.0,0.0,0.0,0.0,0.0,0.0,0.0,0.0,0.0,0.0,0.0,0.0,0.0,0.0,0.0,0.0,0.0,0.0,0.0,0.0,0.0,0.0,0.0,0.0,0.0,0.0,0.0,0.0,0.0,0.0,0.0,0.0,0.0,0.0,0.0,0.0,0.0,0.0,0.0,0.0,0.0,0.0,0.0,0.0,0.0,0.0,0.0,0.0,0.0,0.0,0.0,0.0,0.0,0.0,0.0,0.0,0.0,0.0,0.0,0.0,0.0,0.0,3.4574,3.7493,3.9956,4.0167,4.0042,3.9615,3.8886,3.5972,3.0183,2.9071,0.0,0.0,0.0,0.0,0.0,0.0,0.0,0.0,0.0,0.0,0.0,0.0,0.0,0.0,0.0,0.0,0.0,0.0,0.0,0.0,0.0,0.0,0.0,0.0,0.0,0.0,0.0,0.0,0.0,0.0,0.0,0.0,0.0,0.0,0.0,0.0,0.0,0.0,0.0,0.0,0.0,0.0,0.0,0.0,0.0,0.0,0.0,0.0,0.0,0.0,0.0,0.0,0.0,0.0,0.0,0.0,0.0,0.0,0.0,0.0,0.0,0.0,0.0,0.0,0.0,0.0,0.0,0.0,0.0,0.0,0.0,0.0,0.0,0.0,0.0,0.0,0.0,0.0,0.0,0.0,0.0,0.0,0.0,0.0,0.0,0.0,0.0,0.0,0.0,0.0,0.0,0.0,0.0,0.0,0.0,0.0,0.0,0.0,0.0,0.0,0.0,0.0,3.6441,3.9965,4.043,4.0454,4.0239,3.9637,3.6852,3.3525,2.9767,2.6652,0.0,0.0,0.0,0.0,0.0,0.0,0.0,0.0,0.0,0.0,0.0,0.0,0.0,0.0,0.0,0.0,0.0,0.0,0.0,0.0,0.0,0.0,0.0,0.0,0.0,0.0,0.0,0.0,0.0,0.0,0.0,0.0,0.0,0.0,0.0,0.0,0.0,0.0,0.0,0.0,0.0,0.0,0.0,0.0,0.0,0.0,0.0,0.0,0.0,0.0,0.0,0.0,0.0,0.0,0.0,0.0,0.0,0.0,0.0,0.0,0.0,0.0,0.0,0.0,0.0,0.0,0.0,0.0,0.0,0.0,0.0,0.0,0.0,0.0,0.0,0.0,0.0,0.0,0.0,0.0,0.0,0.0,0.0,0.0,0.0,0.0,0.0,0.0,0.0,0.0,0.0,0.0,0.0,0.0,0.0,0.0,0.0,0.0,0.0,0.0,0.0,0.0,3.5705,3.8742,4.0766,4.0537,4.0081,3.9652,3.8298,3.5495,3.0851,0.0,0.0,0.0,0.0,0.0,0.0,0.0,0.0,0.0,0.0,0.0,0.0,0.0,0.0,0.0,0.0,0.0,0.0,0.0,0.0,0.0,0.0,0.0,0.0,0.0,0.0,0.0,0.0,0.0,0.0,0.0,0.0,0.0,0.0,0.0,0.0,0.0,0.0,0.0,0.0,0.0,0.0,0.0,0.0,0.0,0.0,0.0,0.0,0.0,0.0,0.0,0.0,0.0,0.0,0.0,0.0,0.0,0.0,0.0,0.0,0.0,0.0,0.0,0.0,0.0,0.0,0.0,0.0,0.0,0.0,0.0,0.0,0.0,0.0,0.0,0.0,0.0,0.0,0.0,0.0,0.0,0.0,0.0,0.0,0.0,0.0,0.0,0.0,0.0,0.0,0.0,0.0,0.0,0.0,0.0,0.0,0.0,0.0,0.0,0.0,0.0,0.0,3.2917,3.5908,3.8699,4.0912,4.0408,3.9808,3.9462,3.8303,3.5719,3.134,0.0,0.0,0.0,0.0,0.0,0.0,0.0,0.0,0.0,0.0,0.0,0.0,0.0,0.0,0.0,0.0,0.0,0.0,0.0,0.0,0.0,0.0,0.0,0.0,0.0,0.0,0.0,0.0,0.0,0.0,0.0,0.0,0.0,0.0,0.0,0.0,0.0,0.0,0.0,0.0,0.0,0.0,0.0,0.0,0.0,0.0,0.0,0.0,0.0,0.0,0.0,0.0,0.0,0.0,0.0,0.0,0.0,0.0,0.0,0.0,0.0,0.0,0.0,0.0,0.0,0.0,0.0,0.0,0.0,0.0,0.0,0.0,0.0,0.0,0.0,0.0,0.0,0.0,0.0,0.0,0.0,0.0,0.0,0.0,0.0,0.0,0.0,0.0,0.0,0.0,0.0,0.0,0.0,0.0,0.0,0.0,0.0,0.0,0.0,0.0,0.0,0.0,3.3673,3.7575,4.0456,4.0791,4.0097,3.9462,3.912,3.6174,3.3295,0.0,0.0,0.0,0.0,0.0,0.0,0.0,0.0,0.0,0.0,0.0,0.0,0.0,0.0,0.0,0.0,0.0,0.0,0.0,0.0,0.0,0.0,0.0,0.0,0.0,0.0,0.0,0.0,0.0,0.0,0.0,0.0,0.0,0.0,0.0,0.0,0.0,0.0,0.0,0.0,0.0,0.0,0.0,0.0,0.0,0.0,0.0,0.0,0.0,0.0,0.0,0.0,0.0,0.0,0.0,0.0,0.0,0.0,0.0,0.0,0.0,0.0,0.0,0.0,0.0,0.0,0.0,0.0,0.0,0.0,0.0,0.0,0.0,0.0,0.0,0.0,0.0,0.0,0.0,0.0,0.0,0.0,0.0,0.0,0.0,0.0,0.0,0.0,0.0,0.0,0.0,0.0,0.0,0.0,0.0,0.0,0.0,0.0,0.0,0.0,0.0,0.0,0.0,3.4516,3.8659,4.1619,4.1706,4.0448,3.9545,3.945,3.8378,3.6056,3.2199,0.0,0.0,0.0,0.0,0.0,0.0,0.0,0.0,0.0,0.0,0.0,0.0,0.0,0.0,0.0,0.0,0.0,0.0,0.0,0.0,0.0,0.0,0.0,0.0,0.0,0.0,0.0,0.0,0.0,0.0,0.0,0.0,0.0,0.0,0.0,0.0,0.0,0.0,0.0,0.0,0.0,0.0,0.0,0.0,0.0,0.0,0.0,0.0,0.0,0.0,0.0,0.0,0.0,0.0,0.0,0.0,0.0,0.0,0.0,0.0,0.0,0.0,0.0,0.0,0.0,0.0,0.0,0.0,0.0,0.0,0.0,0.0,0.0,0.0,0.0,0.0,0.0,0.0,0.0,0.0,0.0,0.0,0.0,0.0,0.0,0.0,0.0,0.0,0.0,0.0,0.0,0.0,0.0,0.0,0.0,0.0,0.0,0.0,0.0,0.0,0.0,0.0,3.4707,3.9064,4.2048,4.175,4.0531,3.9597,3.9261,3.9073,3.7402,3.385,0.0,0.0,0.0,0.0,0.0,0.0,0.0,0.0,0.0,0.0,0.0,0.0,0.0,0.0,0.0,0.0,0.0,0.0,0.0,0.0,0.0,0.0,0.0,0.0,0.0,0.0,0.0,0.0,0.0,0.0,0.0,0.0,0.0,0.0,0.0,0.0,0.0,0.0,0.0,0.0,0.0,0.0,0.0,0.0,0.0,0.0,0.0,0.0,0.0,0.0,0.0,0.0,0.0,0.0,0.0,0.0,0.0,0.0,0.0,0.0,0.0,0.0,0.0,0.0,0.0,0.0,0.0,0.0,0.0,0.0,0.0,0.0,0.0,0.0,0.0,0.0,0.0,0.0,0.0,0.0,0.0,0.0,0.0,0.0,0.0,0.0,0.0,0.0,0.0,0.0,0.0,0.0,0.0,0.0,0.0,0.0,0.0,0.0,0.0,0.0,0.0,0.0,3.442,3.9024,4.2029,4.1279,4.0487,3.968,3.8872,3.8799,3.7838,3.5538,0.0,0.0,0.0,0.0,0.0,0.0,0.0,0.0,0.0,0.0,0.0,0.0,0.0,0.0,0.0,0.0,0.0,0.0,0.0,0.0,0.0,0.0,0.0,0.0,0.0,0.0,0.0,0.0,0.0,0.0,0.0,0.0,0.0,0.0,0.0,0.0,0.0,0.0,0.0,0.0,0.0,0.0,0.0,0.0,0.0,0.0,0.0,0.0,0.0,0.0,0.0,0.0,0.0,0.0,0.0,0.0,0.0,0.0,0.0,0.0,3.6459,0.0,0.0,0.0,0.0,0.0,0.0,0.0,0.0,0.0,0.0,0.0,0.0,0.0,0.0,0.0,0.0,0.0,0.0,0.0,0.0,0.0,0.0,0.0,0.0,0.0,0.0,0.0,0.0,0.0,0.0,0.0,0.0,0.0,0.0,0.0,0.0,0.0,0.0,0.0,0.0,0.0,3.442,3.9024,4.2249,4.2066,4.1332,4.0524,3.9717,3.9643,3.8648,3.639,3.502,0.0,0.0,0.0,0.0,0.0,0.0,0.0,0.0,0.0,0.0,0.0,0.0,0.0,0.0,0.0,0.0,0.0,0.0,0.0,0.0,0.0,0.0,0.0,0.0,0.0,0.0,0.0,0.0,0.0,0.0,0.0,0.0,0.0,0.0,0.0,0.0,0.0,0.0,0.0,0.0,0.0,0.0,0.0,0.0,0.0,0.0,0.0,0.0,0.0,0.0,0.0,0.0,0.0,0.0,0.0,0.0,0.0,0.0,0.0,0.0,3.682,0.0,0.0,0.0,0.0,0.0,0.0,0.0,0.0,0.0,0.0,0.0,0.0,0.0,0.0,0.0,0.0,0.0,0.0,0.0,0.0,0.0,0.0,0.0,0.0,0.0,0.0,0.0,0.0,0.0,0.0,0.0,0.0,0.0,0.0,0.0,0.0,0.0,0.0,0.0,0.0,3.6599,4.0378,4.2727,4.2323,4.1919,4.1368,4.0561,4.0487,3.9947,3.8796,3.6925,0.0,0.0,0.0,0.0,0.0,0.0,0.0,0.0,0.0,0.0,0.0,0.0,0.0,0.0,0.0,0.0,0.0,0.0,0.0,0.0,0.0,0.0,0.0,0.0,0.0,0.0,0.0,0.0,0.0,0.0,0.0,0.0,0.0,0.0,0.0,0.0,0.0,0.0,0.0,0.0,0.0,0.0,0.0,0.0,0.0,0.0,0.0,0.0,0.0,0.0,0.0,0.0,0.0,4.0777,4.0739,4.0662,4.1477,4.1285,4.0362,3.9315,4.0183,4.1921,3.669,0.0,0.0,0.0,0.0,0.0,0.0,0.0,0.0,0.0,0.0,0.0,0.0,0.0,0.0,0.0,0.0,0.0,0.0,0.0,0.0,0.0,0.0,0.0,0.0,4.133,4.0521,0.0,0.0,0.0,0.0,0.0,0.0,0.0,0.0,0.0,0.0,0.0,0.0,3.8964,4.1801,4.324,4.258,4.2506,4.2176,4.1389,4.136,4.1409,4.1409,3.9067,3.7734,0.0,0.0,0.0,0.0,0.0,0.0,0.0,0.0,0.0,0.0,0.0,0.0,0.0,0.0,0.0,0.0,0.0,0.0,0.0,0.0,0.0,0.0,0.0,0.0,0.0,0.0,0.0,0.0,0.0,0.0,0.0,0.0,3.6,3.7777,0.0,0.0,0.0,0.0,0.0,0.0,0.0,0.0,0.0,0.0,0.0,0.0,0.0,3.7885,4.1431,4.0623,4.2085,4.5932,4.6624,4.6586,4.5932,4.674,4.624,4.4671,4.3124,0.0,4.3803,4.157,0.0,0.0,0.0,0.0,0.0,0.0,0.0,0.0,0.0,0.0,0.0,0.0,0.0,0.0,0.0,0.0,0.0,0.0,0.0,0.0,0.0,0.0,4.4311,4.4457,4.47,4.4716,0.0,3.9138,3.4852,3.4387,3.4084,0.0,0.0,0.0,0.0,0.0,0.0,0.0,3.9036,4.1673,4.3478,4.3368,4.3314,4.302,4.2213,4.2421,4.256,4.256,4.2466,4.2724,4.3502,4.0279,0.0,0.0,0.0,0.0,0.0,0.0,0.0,0.0,0.0,0.0,0.0,0.0,0.0,0.0,0.0,0.0,0.0,0.0,0.0,0.0,0.0,0.0,0.0,0.0,0.0,0.0,0.0,0.0,0.0,3.5468,3.843,4.0623,3.9508,3.7623,0.0,0.0,0.0,0.0,0.0,0.0,0.0,0.0,0.0,4.0739,4.0008,4.1423,4.5316,4.497,4.597,4.8317,4.8163,4.8163,4.8317,4.8663,4.8432,4.7702,4.7471,4.7548,4.7663,4.4509,4.3201,4.2893,0.0,0.0,0.0,0.0,3.7745,3.7938,3.9438,4.2233,0.0,4.1886,0.0,0.0,0.0,0.0,0.0,0.0,0.0,0.0,0.0,0.0,4.3184,4.4959,4.5475,4.5568,4.5419,4.288,4.012,0.0,3.7941,3.6696,3.3088,0.0,0.0,0.0,0.0,3.9266,4.1526,4.2811,4.3515,4.3515,4.3515,4.3368,4.2983,4.3094,4.3283,4.3461,4.36,4.3984,4.4561,4.3111,4.1147,0.0,0.0,0.0,0.0,0.0,0.0,0.0,0.0,0.0,0.0,0.0,0.0,0.0,0.0,0.0,0.0,0.0,0.0,0.0,0.0,0.0,0.0,0.0,0.0,0.0,0.0,0.0,0.0,3.7168,4.0392,4.2508,4.1662,4.0046,0.0,0.0,0.0,0.0,0.0,0.0,3.8277,3.8546,4.0431,4.4278,4.397,4.524,4.8394,4.8663,4.9202,5.0048,4.9394,4.9394,5.0048,4.9817,4.9625,4.9433,5.0087,5.0366,5.0135,4.6932,4.5586,4.5509,4.4624,4.2777,4.0669,4.1516,4.1785,4.1939,4.2824,4.4786,4.6749,4.5893,0.0,4.5855,4.3739,0.0,0.0,0.0,0.0,3.7692,4.02,4.1324,4.2439,4.4979,4.5594,4.5594,4.5594,4.541,4.4536,0.0,4.1503,4.0272,3.6799,0.0,0.0,0.0,0.0,4.0422,4.3494,4.3644,4.3515,4.3515,4.3515,4.3515,4.3515,4.358,4.3742,4.3967,4.4087,4.4276,4.4599,4.4919,4.3607,4.0413,0.0,0.0,0.0,0.0,0.0,0.0,0.0,0.0,0.0,0.0,0.0,0.0,0.0,0.0,0.0,0.0,0.0,0.0,0.0,0.0,0.0,0.0,0.0,0.0,0.0,0.0,0.0,0.0,0.0,4.1739,4.6009,0.0,0.0,0.0,0.0,3.6615,3.7353,3.9354,4.2585,4.3508,4.5124,4.7778,4.8625,4.9125,4.9317,5.0173,5.0971,5.1769,5.1731,5.1731,5.1731,5.0971,5.0164,4.9394,4.9433,4.9471,4.9433,4.924,4.9125,4.8817,4.5586,4.4201,4.4162,4.5017,4.5325,4.5825,4.9057,5.0289,5.0289,4.9433,4.8625,4.7355,4.4085,4.2931,0.0,0.0,3.9662,4.15,4.1692,4.3547,4.5402,4.5556,4.5594,4.5594,4.5594,4.5586,4.5428,0.0,4.4297,4.2614,3.8724,0.0,4.218,3.8382,4.114,4.3658,4.3526,4.3515,4.3515,4.3515,4.3515,4.3515,4.3515,4.377,4.3967,4.3982,4.4346,4.4599,4.4612,4.4919,4.5001,4.4772,4.1153,0.0,0.0,0.0,0.0,0.0,0.0,0.0,0.0,0.0,0.0,0.0,0.0,0.0,0.0,0.0,0.0,0.0,0.0,0.0,0.0,0.0,0.0,0.0,0.0,0.0,0.0,0.0,0.0,4.4846,4.6201,0.0,4.3978,4.3547,4.2893,4.1662,4.4932,4.7462,4.8692,4.9038,4.9856,5.1356,5.1125,5.1279,5.1856,5.2164,5.2433,5.2741,5.2741,5.2741,5.2741,5.2433,5.1818,5.101,5.101,5.0702,5.025,5.025,5.025,5.0135,4.8903,4.8442,4.848,4.8788,4.8865,4.9057,5.0289,5.0712,5.0635,5.0327,5.001,4.9433,4.7702,4.6778,4.597,4.4239,4.397,4.4239,4.4239,4.494,4.5594,4.5594,4.5594,4.5594,4.5594,4.5594,4.5568,4.5438,4.5194,4.4582,4.3186,4.3916,4.4209,4.2697,4.3553,4.4332,4.4227,4.4213,4.411,4.3833,4.3818,4.3818,4.3818,4.3943,4.4102,4.4359,4.4508,4.4612,4.4612,4.4919,4.5115,4.5115,4.3962,4.04,0.0,0.0,0.0,0.0,0.0,0.0,0.0,0.0,0.0,0.0,0.0,0.0,0.0,0.0,0.0,0.0,0.0,0.0,0.0,0.0,0.0,0.0,0.0,0.0,0.0,4.0969,4.5124,4.7086,4.8086,4.8355,4.7778,4.774,4.7509,4.6894,5.0279,5.2346,5.2346,5.2346,5.2577,5.3164,5.2933,5.3049,5.3626,5.3895,5.4049,5.4049,5.4049,5.4049,5.4049,5.378,5.3318,5.2779,5.2462,5.1856,5.1087,5.1087,5.0933,5.0712,5.0712,5.0712,5.0712,5.0712,5.0712,5.0712,5.0712,5.0712,5.0712,5.0712,5.0712,5.0481,4.9317,4.8548,4.7855,4.6778,4.6047,4.5594,4.5594,4.5594,4.5594,4.5594,4.5594,4.5594,4.5594,4.5594,4.571,4.597,4.5715,4.5026,4.3829,4.3308,4.259,4.1108,4.0929,4.0739,4.0227,4.1587,4.2399,4.1876,4.3103,4.3982,4.3982,4.2522,4.2445,4.4472,4.295,4.2813,4.47,4.3319,4.2744,4.3139,4.1933,3.8969,3.4276,0.0,0.0,0.0,0.0,0.0,0.0,0.0,0.0,0.0,0.0,0.0,0.0,0.0,0.0,0.0,0.0,0.0,0.0,0.0,0.0,0.0,0.0,0.0,4.0362,4.4355,4.7385,4.8279,5.2049,5.3895,5.2231,5.3587,5.3895,5.2192,5.2856,5.3356,5.3356,5.3356,5.3356,5.3356,5.4164,5.4626,5.4626,5.5357,5.5742,5.5742,5.5703,5.5703,5.5665,5.4895,5.4511,5.4434,5.3626,5.2741,5.1923,5.1923,5.1471,5.0789,5.0712,5.0712,5.0712,5.0712,5.0712,5.0712,5.0712,5.0712,5.0712,5.0712,5.0712,5.0366,4.8663,4.8125,4.7778,4.6133,4.5633,4.5633,4.5594,4.5633,4.5633,4.5594,4.5633,4.5633,4.5633,4.5633,4.5893,4.6778,4.6003,4.4081,4.0517,3.9676,3.7975,3.3657,3.3666,0.0,3.2023,3.5984,3.8581,3.7684,4.1438,4.399,4.3864,3.9696,3.9214,4.431,3.984,3.9484,4.4854,4.0347,3.8294,3.9469,3.5276,3.5161,3.9284,0.0,0.0,0.0,0.0,0.0,0.0,0.0,0.0,0.0,0.0,0.0,0.0,0.0,0.0,0.0,0.0,0.0,0.0,0.0,0.0,0.0,4.2,4.4346,4.5047,4.8231,5.1548,5.4241,5.5598,5.6137,5.5626,5.6022,5.6099,5.5626,5.6395,5.6896,5.6896,5.6896,5.6896,5.6896,5.7126,5.728,5.728,5.6857,5.6637,5.6637,5.6011,5.5703,5.5703,5.5472,5.5049,5.4472,5.4241,5.3664,5.2856,5.2856,5.2702,5.2395,5.1164,5.0712,5.0712,5.0712,5.0712,5.0712,5.0712,5.0712,5.0712,5.0712,5.0712,5.0481,4.9394,4.9048,4.8702,4.7009,4.6547,4.6394,4.5748,4.6086,4.6394,4.5748,4.6086,4.6547,4.6547,4.6547,4.6778,4.7625,4.7492,4.6781,4.5199,4.4824,4.4152,4.2316,4.2229,0.0,4.1743,4.2858,4.2536,3.9425,4.2521,4.3729,4.1116,4.2063,4.3426,4.4878,4.3616,4.3407,4.4675,4.3623,4.3292,4.3855,3.9708,3.813,0.0,0.0,0.0,0.0,0.0,0.0,0.0,0.0,0.0,0.0,0.0,0.0,0.0,0.0,0.0,0.0,0.0,0.0,0.0,0.0,0.0,0.0,4.6308,4.9885,5.2356,5.3472,5.5011,5.7742,5.805,5.805,5.805,5.8369,5.828,5.7588,5.8319,5.8665,5.8319,5.8319,5.8319,5.8319,5.8319,5.8319,5.8319,5.778,5.755,5.7511,5.6665,5.6252,5.6252,5.5857,5.5434,5.5011,5.5011,5.4511,5.3741,5.3741,5.3549,0.0,0.0,0.0,0.0,0.0,5.0712,5.0712,5.0712,5.0712,5.0712,5.0712,5.0712,5.0558,4.9663,4.9394,4.9125,4.7778,4.7394,4.7278,4.6778,4.7009,4.7278,4.6778,4.7048,4.7394,4.7394,4.7394,4.7663,4.8471,4.8625,0.0,4.8048,4.6425,4.4373,4.2017,4.1961,4.1807,4.0752,4.2393,4.2667,4.0014,4.3254,4.4881,4.3171,4.3094,0.0,0.0,0.0,4.3069,4.2906,4.3433,0.0,0.0,0.0,3.8584,4.0354,0.0,0.0,0.0,3.7322,3.536,0.0,0.0,0.0,0.0,0.0,0.0,0.0,0.0,0.0,0.0,0.0,0.0,0.0,0.0,0.0,0.0,4.9548,5.4703,6.0281,5.9127,5.8242,5.9742,5.9935,5.9935,5.9935,6.055,6.0319,5.8858,5.9319,5.9358,5.8627,0.0,0.0,0.0,0.0,5.8588,5.8588,5.8473,5.8434,5.8434,5.755,5.7099,5.6983,5.6214,5.578,5.5703,5.5703,5.528,5.4626,5.4626,5.4164,5.3472,5.328,5.2741,5.1962,5.1125,5.0827,5.0827,5.075,0.0,0.0,5.0712,5.0712,5.0558,4.9779,4.9548,4.9356,4.8509,4.824,4.824,4.8125,4.8163,4.824,4.8125,4.8202,4.824,4.824,4.824,4.8509,4.9394,4.9548,4.9548,4.9548,4.6215,4.2173,3.8136,3.8166,3.7823,3.5602,3.9125,4.1358,4.0247,0.0,0.0,4.7029,4.3494,4.3201,4.7808,4.3785,4.1281,4.1354,4.2085,4.0392,3.586,3.6622,3.8923,4.2654,4.2777,4.5124,4.9317,4.0169,3.8392,0.0,0.0,0.0,0.0,0.0,0.0,0.0,0.0,0.0,0.0,0.0,0.0,0.0,0.0,0.0,5.1818,5.5626,5.9165,6.2358,6.2397,6.2204,6.2551,6.2589,6.2589,6.2589,6.2127,6.1716,6.1408,6.0858,6.0473,6.0319,6.0319,6.0319,6.0319,6.0319,6.0319,6.0319,5.9627,5.9281,5.9281,0.0,0.0,5.6983,5.683,5.6368,5.5703,5.5703,5.5588,5.5472,5.5472,5.5357,5.5088,5.3741,5.3087,5.2856,5.1962,5.1654,5.1587,5.0933,5.0712,5.0712,5.0712,5.0712,5.0673,5.0519,5.0442,0.0,4.9394,4.9163,4.8971,4.8279,4.8625,4.8971,4.8279,4.8625,4.9163,4.9163,4.9163,4.9394,5.0289,5.0442,5.0442,5.0442,4.9144,4.7578,4.6022,4.5936,4.585,4.5369,4.6148,4.5582,4.2546,4.5544,4.6666,4.3972,4.5515,4.7029,4.8048,4.7145,4.6606,4.6624,4.6778,4.6432,4.5432,4.6278,4.7124,4.7932,4.8625,4.9481,5.0366,4.7702,4.7355,0.0,0.0,0.0,0.0,0.0,0.0,0.0,0.0,0.0,0.0,0.0,4.2709,4.3547,0.0,5.2895,5.5895,5.9935,6.3435,6.5551,6.5474,6.4743,6.3474,6.3308,6.3308,6.3308,6.2935,6.2704,6.2704,6.232,6.1897,6.1473,6.1447,6.1243,6.0819,6.0781,6.0781,6.0781,6.0358,6.0165,6.0127,5.9319,5.8665,5.8204,5.7368,5.6753,5.6329,5.5895,5.5703,5.5703,5.5703,5.5703,5.5626,5.478,5.4203,5.3741,5.2856,5.2538,5.25,5.2087,5.1933,5.1895,5.1433,5.1318,5.1241,5.0827,5.0712,5.0596,5.0164,5.0048,4.9933,4.951,4.9702,4.9933,4.951,4.974,5.0048,5.0048,5.0048,5.0164,5.0635,5.0712,5.0712,5.0712,5.0327,4.9894,4.9471,4.9394,4.924,4.8817,4.874,4.8058,4.6302,4.7703,4.8212,4.6877,4.8741,5.0,5.0,5.0,5.0,5.0,4.9625,4.9586,5.0,5.0433,5.0786,5.1009,5.143,5.1541,5.1307,5.0837,5.0864,0.0,0.0,0.0,0.0,0.0,0.0,0.0,4.1623,4.2824,4.3978,4.6518,4.8673,4.8971,5.3626,5.8011,5.9742,6.332,6.6436,6.7936,6.7398,6.6051,6.382,6.3705,6.382,6.382,6.3666,6.3551,6.3551,6.3397,6.3012,6.2358,6.2178,6.1793,6.105,6.0896,6.0781,6.0781,6.0781,6.0781,6.0781,5.9935,5.9435,5.9204,5.7703,5.6907,5.6714,5.6011,5.5703,5.5703,5.5703,5.5703,5.5703,5.5703,5.528,5.4626,5.378,5.3433,5.3433,5.328,5.3203,5.3087,5.2385,5.2154,5.2,5.1164,5.0933,5.0894,5.075,5.0712,5.0712,5.0712,5.0712,5.0712,5.0712,5.0712,5.0712,5.0712,5.0712,5.0712,5.0712,5.0827,5.0933,5.0933,5.1048,5.1097,5.075,5.0712,5.0442,4.974,4.9779,4.9894,4.9894,5.0048,5.0433,5.1125,5.1779,5.2154,5.2154,5.2154,5.2154,5.2154,5.1548,5.1471,5.2154,5.2154,5.2346,5.2704,5.2704,5.2526,5.2148,5.2227,5.214,3.953,3.7875,3.7004,3.6853,3.8923,4.2615,0.0,4.9933,5.1058,5.628,5.828,5.955,6.105,6.2589,6.4166,6.582,6.5974,6.6205,6.7128,6.6551,6.5628,6.4589,6.5128,6.559,6.559,6.4897,6.4436,6.4436,6.3743,6.3281,6.3166,6.2474,6.2062,6.1947,6.1204,6.0781,6.0781,6.0781,6.0781,6.0781,5.9935,5.9127,5.8396,5.7434,5.6599,5.5818,5.5742,5.5703,5.5703,5.5703,5.5703,5.5703,5.5703,5.5626,5.5472,5.4664,5.4357,5.4241,5.3472,5.3203,5.3203,5.3087,5.3049,5.2895,5.2038,5.1769,5.1625,5.0894,5.0712,5.0712,5.0712,5.0712,5.0712,5.0712,5.0712,5.0712,5.0712,5.0712,5.0712,5.0712,5.1279,5.1769,5.1769,5.2395,5.2433,5.0943,5.0712,5.0673,5.0558,5.1164,5.1615,5.1615,5.2318,5.2818,5.2895,5.301,5.3049,5.3049,5.3049,5.3049,5.3049,5.2972,5.2972,5.3049,5.3049,5.3067,5.3112,5.3112,5.3091,5.3059,5.3417,5.2986,4.4311,4.2864,4.2316,4.7278,4.8856,5.0587,5.5857,5.7973,5.9358,6.132,6.3589,6.5282,6.5474,6.6628,6.7782,6.8513,6.8706,6.8744,6.8629,6.7436,6.609,6.4743,6.4474,6.4397,6.4397,6.4512,6.4589,6.4589,6.4743,6.4589,6.4089,6.3743,6.3089,6.2139,6.1755,6.132,6.0781,6.0781,6.0781,6.0781,6.0435,6.0089,5.9742,5.8858,5.7703,5.6445,5.5934,5.5703,5.5703,5.5703,5.5703,5.5703,5.5703,5.5703,5.5665,5.5318,5.5203,5.5164,5.478,5.4664,5.4587,5.4126,5.3972,5.378,5.2933,5.2654,5.2472,5.1625,5.1395,5.1395,5.1395,5.1048,5.0827,5.1279,5.1395,5.1395,5.1395,5.1818,5.2164,5.2164,5.2433,5.2654,5.2654,5.2972,5.2972,5.2241,5.2164,5.2164,5.2164,5.2472,5.2654,5.2654,5.2972,5.3203,5.3203,5.3664,5.3972,5.3972,5.3972,5.3972,5.3972,5.3472,5.3433,5.3933,5.3972,5.4079,5.4317,5.4317,5.418,5.3971,5.4121,5.3921,4.6255,4.6275,4.7163,5.4752,5.7126,5.855,6.2089,6.432,6.559,6.5436,6.7013,6.8205,6.7552,6.8475,6.9436,6.9667,6.9975,7.009,6.9744,6.8013,6.6051,6.4128,6.3128,6.2512,6.2281,6.3474,6.4359,6.4589,6.5166,6.5359,6.4974,6.4512,6.3705,6.2474,6.1985,6.1435,6.0819,6.0781,6.0781,6.0781,6.055,6.0435,6.0396,5.955,5.8396,5.6945,5.6329,5.5934,5.5703,5.5703,5.5703,5.5703,5.5703,5.5703,5.5703,5.5703,5.5703,5.5703,5.5703,5.5703,5.5588,5.5011,5.4818,5.4664,5.3818,5.3549,5.3395,5.25,5.2269,5.2269,5.2269,5.1818,5.1548,5.2115,5.2269,5.2269,5.2269,5.2731,5.3203,5.3203,5.3395,5.3549,5.3549,5.3741,5.3895,5.3895,5.3895,5.3703,5.328,5.3395,5.3626,5.3857,5.3895,5.3895,5.3895,5.4472,5.4818,5.4818,5.4818,5.4818,5.4818,5.4203,5.4203,5.4818,5.4818,5.499,5.525,5.525,5.5121,5.4819,5.4943,5.5011,4.3294,4.6172,4.924,5.4434,6.0704,6.6013,6.7782,6.8231,6.8744,7.036,6.9475,6.8385,6.8359,6.8385,6.8744,6.9552,6.9013,6.8783,6.959,6.7513,6.5013,6.2486,6.1396,6.055,5.9704,6.1858,6.3705,6.4551,6.4628,6.5013,6.582,6.4282,6.332,6.3281,6.1704,6.0819,6.0781,6.0781,6.0781,6.0781,5.9935,5.955,5.9511,5.8704,5.7857,5.6983,5.6983,5.6483,5.5703,5.5703,5.5703,5.5703,5.5703,5.5703,5.5703,5.5703,5.5703,5.5703,5.5703,5.5703,5.5703,5.5665,5.5665,5.5511,5.4703,5.4472,5.428,5.3395,5.3164,5.3164,5.3164,5.3126,5.3126,5.3164,5.3164,5.3164,5.3164,5.3164,5.3203,5.3203,5.3895,5.4472,5.4472,5.5126,5.5626,5.5626,5.5626,5.5049,5.3395,5.3933,5.4741,5.5549,5.5626,5.5626,5.5626,5.5665,5.5665,5.5665,5.5665,5.5665,5.5665,5.5626,5.5626,5.5665,5.5665,5.5665,5.5692,5.5692,5.5692,5.5671,5.6142,5.6328,4.8586,5.2049,5.5626,6.2435,6.6705,6.9667,7.1398,7.1769,7.1475,7.036,6.6974,6.3705,6.2012,5.9385,5.8846,6.3089,6.4012,6.5282,6.8398,6.759,6.532,6.1666,6.1473,6.0858,5.8896,6.0473,6.2204,6.3628,6.4282,6.4743,6.5013,6.4474,6.3666,6.2551,6.1947,6.1358,6.0819,6.0781,6.0781,6.0781,6.0512,6.005,5.9473,5.8665,5.7819,5.6983,5.6406,5.5972,5.5703,5.5703,5.5395,5.4972,5.5472,5.5357,5.4972,5.5511,5.5703,5.5703,5.5703,5.5703,5.5703,5.5703,5.5703,5.5665,5.5395,5.528,5.5126,5.4318,5.4049,5.4049,5.4049,5.3626,5.3356,5.3933,5.4049,5.4049,5.4049,5.4472,5.4857,5.4857,5.5088,5.528,5.528,5.5511,5.5703,5.5703,5.5703,5.5511,5.4934,5.5126,5.5395,5.5665,5.5703,5.5703,5.5703,5.5703,5.5703,5.5703,5.5703,5.5703,5.5703,5.5703,5.5703,5.5703,5.5703,5.5703,5.5703,5.6291,5.641,5.6104,5.6864,5.701,5.2318,5.6626,6.06,6.7936,7.1014,7.2552,7.3668,7.3206,7.1514,6.7744,6.2935,5.8319,5.4857,5.1741,5.1587,5.7588,5.9242,6.1589,6.6782,6.6244,6.4332,6.1589,6.1204,6.0512,5.8896,5.9704,6.105,6.2743,6.3397,6.382,6.4128,6.3858,6.3205,6.2139,6.1793,6.1358,6.0819,6.0781,6.0781,6.0781,6.0473,6.005,5.9473,5.8665,5.7819,5.6983,5.6406,5.5972,5.5703,5.5703,5.5395,5.4972,5.5511,5.5395,5.4972,5.5511,5.5703,5.5703,5.5703,5.5703,5.5703,5.5703,5.5703,5.5703,5.5703,5.5703,5.5588,5.5049,5.4934,5.4934,5.4934,5.4511,5.4241,5.478,5.4934,5.4934,5.4934,5.5318,5.5703,5.5703,5.5703,5.5703,5.5703,5.5703,5.5818,5.6126,5.6165,5.6049,5.5742,5.5703,5.5703,5.5703,5.5703,5.5818,5.6137,5.6165,5.628,5.6626,5.6487,5.6379,5.6379,5.5924,5.5709,5.5709,5.5403,5.5403,5.5709,5.6244,5.6545,5.6542,5.7377,5.7618,5.4598,6.01,6.4255,7.0706,7.3553,7.4745,7.4591,7.2437,6.8783,6.2986,5.7473,5.2202,4.724,4.5663,4.7095,5.3126,5.5049,5.8127,6.4936,6.3871,6.2332,6.2178,6.0742,5.9704,5.9588,5.9627,6.0281,6.1908,0.0,6.2435,6.3281,6.2551,6.2101,6.2101,6.1243,6.0781,6.0781,6.0781,6.0781,6.0781,5.9935,5.9473,5.9396,5.8588,5.7742,5.6945,5.6945,5.6483,5.5703,5.5703,5.5665,5.5626,5.5665,5.5665,5.5626,5.5665,5.5703,5.5703,5.5703,5.5703,5.5703,5.5703,5.5703,5.5703,5.5703,5.5703,5.5703,5.5703,5.5703,5.5703,5.5703,5.5703,5.5703,5.5703,5.5703,5.5703,5.5703,5.5703,5.5703,5.5703,5.5703,5.5703,5.5703,5.5742,5.6049,5.6868,5.706,5.6791,5.5934,5.5818,5.5818,5.5818,5.5818,5.6165,5.6983,5.706,5.7396,5.8219,5.7838,5.7582,5.7568,5.6412,5.5751,5.5751,5.4996,5.4996,5.5751,5.5788,5.6208,5.6949,5.7757,5.8096,6.3012,6.7975,7.1168,7.3476,7.4861,7.5168,7.3283,6.8436,6.3024,5.828,4.9779,4.22,3.9,3.8692,4.1123,4.7778,5.3241,5.883,6.5013,6.5859,6.5128,6.3205,6.3166,6.2551,6.0666,6.105,6.137,6.1127,6.1716,6.2435,6.3281,6.2551,6.2101,6.2101,6.1243,6.0781,6.0781,6.0781,6.0781,6.0781,5.9935,5.9204,5.8588,5.7703,5.6857,5.6011,5.6011,5.5895,5.5703,5.5703,5.5357,5.4857,5.5472,5.5318,5.4895,5.5472,5.5703,5.5703,5.5703,5.5703,5.5703,5.5703,5.5703,5.5703,5.5703,5.5703,5.5703,5.5703,5.5703,5.5703,5.5703,5.5703,5.5703,5.5703,5.5703,5.5703,5.5703,5.5703,5.5703,5.5703,5.5703,5.5703,5.5703,5.6252,5.6753,5.6983,5.755,5.7896,5.7665,5.7627,5.7627,5.7627,5.7627,5.7742,5.7934,5.7973,5.7908,5.7798,5.7652,5.7429,5.7105,5.6748,5.6585,5.6585,5.6396,5.6396,5.6585,5.7205,5.7391,5.7284,5.8145,5.8358,6.8552,7.286,7.5284,7.5745,7.563,7.4091,6.8936,6.3666,5.7588,4.9586,4.1816,3.6161,3.5122,3.5007,3.7892,4.6586,5.1818,5.6973,6.332,6.4628,6.4628,6.3935,6.3974,6.3474,6.205,6.2358,6.2435,6.1935,6.1666,6.1897,6.2743,6.1973,6.1716,6.2101,6.1243,6.0781,6.0781,6.0781,6.0781,6.0781,5.9935,5.9088,5.828,5.7396,5.6522,5.5703,0.0,5.5703,5.5703,5.5703,5.5434,5.5049,5.5511,5.5434,5.5088,5.5511,5.5703,5.5703,5.5703,5.5703,5.5703,5.5703,5.5703,5.5703,5.5703,5.5703,5.5703,5.5703,5.5703,5.5703,5.5703,5.5703,5.5703,5.5703,5.5972,5.6291,5.6291,5.6549,5.6857,5.6857,5.6857,5.6857,5.6857,5.7242,5.7703,5.805,5.8511,5.8973,5.9358,5.8781,5.8319,5.8319,5.8319,5.8434,5.8819,5.8819,5.8892,5.9013,5.8606,5.8262,5.8014,5.7248,5.6852,5.6852,5.6536,5.6498,5.6852,5.7319,5.759,5.7688,5.8153,5.8238,7.2322,7.5784,7.7592,7.7361,7.5899,7.2283,6.3705,5.8588,5.2192,4.0008,3.4584,3.2468,3.3782,3.3391,3.6546,4.774,5.0894,5.4318,6.1281,6.237,6.3012,6.4589,6.4128,6.3589,6.3462,6.3462,6.3423,6.3308,6.1858,6.1358,6.2216,6.1435,6.1281,6.1908,6.1166,6.0781,6.0781,6.0781,6.0781,6.0781,5.9935,5.9127,5.8434,5.7434,5.6599,5.5857,5.5742,0.0,5.5703,5.5703,5.5703,5.5703,5.5703,5.5703,5.5703,5.5703,5.5703,5.5703,5.5703,5.5703,5.5703,5.5703,5.5703,5.5703,5.5703,5.5703,5.5703,5.5703,5.5703,5.5703,5.5703,5.5703,5.5742,5.5857,5.6445,5.7022,5.7137,5.778,5.8319,5.8319,5.8319,5.8319,5.8319,5.8396,5.8704,5.9396,5.9588,5.9935,6.0704,5.9511,5.8627,5.8627,5.8627,5.8896,5.9627,5.9665,5.9962,6.0645,5.9931,5.9458,5.9389,5.7881,5.7089,5.7118,5.6323,5.6323,5.7118,5.7,5.7344,5.8074,5.8042,5.7997,7.5745,7.7977,7.9015,7.763,7.5476,7.1283,6.205,5.4087,4.6047,3.6776,3.1044,2.8813,3.2468,3.3006,3.6776,4.8557,5.1279,5.45,6.205,6.3705,6.4551,6.5551,6.5551,6.5166,6.4436,6.4359,6.4089,6.3346,6.2397,6.2243,6.3051,6.232,6.1589,6.105,6.0858,6.0781,6.0781,6.0781,6.0781,6.0781,5.9935,5.9435,5.9242,5.7715,5.6907,5.6714,5.6011,0.0,5.5703,5.5703,5.5703,5.5703,5.5703,5.5703,5.5703,5.5703,5.5703,5.5703,5.5703,5.5703,5.5703,5.5703,5.5703,5.5703,5.5703,5.5703,5.5703,5.5703,5.5703,5.5703,5.5703,5.5703,5.5857,5.6599,5.6907,5.7214,5.7934,5.8204,5.8319,5.8319,5.8319,5.8319,5.8319,5.8858,5.9358,5.9473,6.0127,6.0627,6.0781,6.055,6.0358,6.0358,6.0358,6.0435,6.055,6.055,6.0481,6.0231,6.0089,5.9808,5.9407,5.8725,5.8569,5.8951,5.8063,5.8042,5.8951,5.819,5.8083,5.857,5.8186,5.7997,7.4553,7.7515,7.9862,7.7284,7.4361,6.8898,5.6395,4.9086,4.2008,3.1698,2.7615,2.7346,3.2045,3.2891,3.5776,4.4624,4.9009,5.2856,5.7396,6.1435,6.4243,6.5128,6.5628,6.5743,6.532,6.5282,6.5089,6.4666,6.3858,6.3358,6.3308,6.2551,6.1716,6.0819,6.0781,6.0781,6.0781,6.0781,6.0781,6.0781,6.0358,5.9704,5.8858,5.805,5.7165,5.6291,5.5857,0.0,5.5703,5.5703,5.5703,5.5703,5.5703,5.5703,5.5703,5.5703,5.5703,5.5703,5.5703,5.5703,5.5703,5.5703,5.5703,5.5703,5.5703,5.5703,5.578,5.6252,5.6368,5.6472,5.6934,5.7049,5.7165,5.7588,5.8011,5.855,5.9396,5.9588,5.9588,5.9588,5.9588,5.9588,5.9588,5.9935,6.0165,6.0165,6.0512,6.0781,6.0781,6.0781,6.0781,6.0781,6.0781,6.0781,6.0781,6.0781,6.061,6.0132,5.987,5.9526,5.9065,5.8591,5.8439,5.8673,5.8216,5.8216,5.8673,5.8216,5.8119,5.8348,5.8097,5.7997,7.3514,7.7092,8.0054,7.6823,7.3168,6.6436,5.151,4.524,3.9277,2.7692,2.5308,2.6846,3.1968,3.2006,3.3583,4.0654,4.4662,4.8355,5.2587,5.7934,6.2204,6.4359,6.5359,6.5897,6.5897,6.5897,6.5897,6.5897,6.4936,6.3935,6.3089,6.2281,6.1524,6.0819,6.0781,6.0781,6.0781,6.0781,6.0781,6.0781,6.0781,6.0127,5.8819,5.8627,5.7703,5.6242,5.6049,0.0,0.0,5.5703,5.5703,5.5703,5.5703,5.5703,5.5703,5.5703,5.5703,5.5703,5.5703,5.5703,5.5703,5.5703,5.5703,5.5703,5.5703,5.5703,5.5857,5.6753,5.6983,5.7214,5.8088,5.8319,5.8357,5.8511,5.9165,5.9973,6.0666,6.0781,6.0781,6.0781,6.0781,6.0781,6.0781,6.0781,6.0757,6.0659,6.0647,6.0622,6.0508,6.0495,6.0495,6.0495,6.0597,6.0647,6.0647,6.0585,6.0338,5.9962,5.9592,5.923,5.8874,5.8397,5.8209,5.8304,5.8097,5.8097,5.8304,5.8097,5.8065,5.8164,5.8065,5.7997,7.6284,7.89,7.9285,7.6669,7.2283,6.5013,5.1241,4.4278,3.7822,2.7423,2.5308,2.6846,3.1968,2.9115,2.9462,4.0077,3.77,3.8892,5.1433,5.4434,5.7627,6.3858,6.5359,6.5897,6.5897,6.5897,6.5897,6.5897,6.4359,6.3089,6.2255,6.1408,6.0858,6.0781,6.0781,6.0781,6.0781,6.0781,6.0781,6.0781,6.0781,6.0704,6.055,5.9742,5.8896,5.8011,5.7203,0.0,0.0,5.5703,5.5703,5.5703,5.5703,5.5703,5.5703,5.5703,5.5703,5.5703,5.5703,5.5703,5.5703,5.5703,5.5703,5.5703,5.5703,5.5703,5.5857,5.6753,5.6983,5.7214,5.8088,5.8319,5.8473,5.9204,6.005,6.0704,6.0781,6.0781,6.0781,6.0781,6.0781,6.0781,6.0781,6.0781,6.0647,6.0217,6.0161,5.9991,5.9576,5.9526,5.9526,5.9526,5.9901,6.0161,6.0161,5.9792,5.9509,5.9458,5.9424,5.9372,5.9337,5.8894,5.8835,5.9248,5.8439,5.8418,5.9266,5.8418,5.8216,5.8632,5.8172,5.7997,6.7398,7.2976,7.7438,7.3822,6.9898,6.3205,4.9048,4.2662,3.6899,2.6664,2.4586,2.5048,2.6544,2.5582,2.601,3.0435,3.1737,3.5507,4.5009,5.0164,5.5472,6.2281,6.4743,6.5897,6.5897,6.632,6.6205,6.5205,6.4012,6.2935,6.2139,6.1281,6.0781,6.0781,6.0781,6.0781,6.0781,6.0781,6.0781,6.0781,6.0781,6.0512,6.0012,5.9665,5.8781,5.7511,5.7137,0.0,0.0,5.6483,5.678,5.7242,5.7242,5.7242,5.7242,5.7242,5.7242,5.7242,5.7242,5.7242,5.7242,5.7242,5.7242,5.7088,5.6011,5.6049,5.6676,5.755,5.8127,5.8704,5.9588,5.9781,5.9896,6.0204,6.055,6.0781,6.0781,6.0781,6.0734,6.0443,6.061,6.0622,6.0036,6.0189,6.0203,5.976,5.9658,5.9592,5.9424,5.9389,5.9389,5.9389,5.9559,5.9658,5.9658,5.9492,5.9266,5.9009,5.899,5.8855,5.857,5.8375,5.8354,5.8549,5.8172,5.8172,5.8549,5.8172,5.8097,5.8282,5.8074,5.7997,6.055,6.7051,7.2668,7.0667,6.6474,5.9627,4.7124,4.0546,3.4667,2.6202,2.4279,2.3898,2.3317,2.3706,2.4014,2.3744,2.6505,3.1237,3.8546,4.5201,5.1356,5.6934,6.0742,6.2974,6.3243,6.5359,6.6167,6.4705,6.3782,6.2935,6.2139,6.1281,6.0781,6.0781,6.0781,6.0781,6.0781,6.0781,6.0781,6.0781,6.0781,6.0473,5.9896,5.9896,5.9088,5.7742,5.7742,0.0,0.0,5.7357,5.7742,5.8319,5.8319,5.8319,5.8319,5.8319,5.8319,5.8319,5.8319,5.8319,5.8319,5.8319,5.8319,5.8088,5.6857,5.6896,5.755,5.8434,5.9242,6.0012,6.0627,6.0781,6.0781,6.0781,6.0781,6.0781,6.0781,6.0671,6.0495,6.0161,6.0231,6.0175,5.9509,5.9658,5.9706,5.9248,5.9176,5.9121,5.899,5.899,5.899,5.899,5.899,5.9028,5.9176,5.9084,5.8835,5.8487,5.8503,5.8332,5.802,5.7997,5.7997,5.7997,5.7997,5.7997,5.7997,5.7997,5.7997,5.7997,5.7997,5.7997,5.8869,6.2743,6.4231,6.7577,6.205,5.378,4.6047,3.7815,3.0544,2.6192,2.4659,2.4091,2.4091,2.4091,2.3821,2.2932,2.212,2.4582,3.309,3.9431,4.4162,4.6731,5.2241,5.6126,5.7022,6.2435,6.5551,6.4666,6.3782,0.0,6.2139,6.1281,6.0781,6.0781,6.0781,6.0781,6.0781,6.0781,6.0781,6.0781,6.0781,6.0781,6.0781,6.0781,6.0319,0.0,0.0,0.0,0.0,5.828,5.828,5.8319,5.8319,5.8319,5.8319,5.8319,5.8319,5.8319,5.8319,5.8319,5.8319,5.8319,5.8319,5.8319,5.828,5.828,5.8434,5.9281,6.0127,6.0781,6.0781,6.0781,6.0781,6.0781,6.0781,6.0781,6.0781,6.0443,6.0118,6.0103,5.9744,5.9407,5.9389,5.9407,5.9248,5.8776,5.8733,5.8528,5.8051,5.802,5.802,5.802,5.802,5.8194,5.8673,5.8282,5.802,5.802,5.802,5.7997,5.7997,5.7997,5.7997,5.7997,5.7997,5.7997,5.7997,5.7997,5.7997,5.7997,5.7997,5.7997,4.6172,5.051,5.378,5.3741,5.0779,4.5893,3.8238,3.3545,2.9423,2.4582,2.2928,2.2312,2.2312,2.2312,2.2624,2.3548,2.3471,2.6048,3.3968,4.02,4.5932,5.1433,5.8357,6.3012,6.382,6.5089,6.5551,6.4666,6.3782,6.2935,6.2139,6.1281,6.0781,6.0781,6.0781,6.0781,6.0781,6.0781,6.0781,6.0781,6.0781,6.0781,6.0781,6.0781,6.0319,0.0,0.0,0.0,0.0,5.9127,5.9473,6.0012,6.0012,6.0012,6.0012,6.0012,6.0012,6.0012,6.0012,6.0012,6.0012,6.0012,6.0012,6.0012,6.0012,5.9588,5.9319,6.0165,6.0589,6.0781,6.0781,6.0781,6.0734,6.0378,6.0585,6.0622,5.9977,5.9962,5.9916,5.9266,5.9266,5.9194,5.8549,5.8733,5.8756,5.8304,5.8216,5.8186,5.802,5.7997,5.8217,5.8767,5.8327,5.8088,5.8194,5.8074,5.7997,5.7997,5.7997,5.7997,5.7997,5.7997,5.8253,5.8804,5.8841,5.9098,5.9648,5.9648,5.9648,5.9648,5.9648,5.9648,3.8046,4.1777,4.4816,4.5701,4.3162,3.9161,3.4045,3.0121,2.6621,2.3471,2.212,2.1504,2.1504,2.1504,2.1773,2.2547,2.2932,2.512,3.0846,3.6738,4.3239,5.0741,5.8088,6.2743,6.3255,6.4589,6.5166,6.4628,6.3512,6.2627,6.2139,6.1281,6.0781,6.0781,6.0781,6.0781,6.0781,6.0781,6.0781,6.0781,6.0781,6.0781,6.0781,6.0781,6.0512,0.0,0.0,0.0,0.0,5.9926,6.021,6.0533,6.0734,6.0781,6.0781,6.0781,6.071,6.0521,6.0521,6.0521,6.0521,6.0521,6.0647,6.0781,6.0781,6.0435,6.0089,6.0666,6.0781,6.0781,6.0781,6.0659,6.0469,6.0161,6.0175,6.0118,5.9526,5.9475,5.9389,5.8815,5.8776,5.8693,5.8097,5.8238,5.8348,5.8065,5.8253,5.8437,5.8437,5.8731,5.9098,5.9588,5.9208,5.8914,5.8914,5.8364,5.7997,5.7997,5.7997,5.7997,5.7997,5.829,5.8694,5.9184,5.9478,5.9905,6.0419,6.0419,6.0419,6.0419,6.0419,6.0419,0.0,3.5692,3.6853,4.1585,3.8046,3.3167,3.2275,2.7236,0.0,2.2701,2.2004,2.1466,2.1581,2.1504,2.1235,2.0654,2.1231,2.2654,2.5115,3.1083,3.8238,4.6471,5.3433,5.7522,5.7445,6.1743,6.4474,6.4436,6.2974,6.2062,6.2024,6.1243,6.0781,6.0781,6.0781,6.0781,6.0781,6.0781,6.0781,6.0781,6.0781,6.0781,6.0781,6.0757,6.0757,0.0,0.0,0.0,0.0,6.0585,6.0482,6.0103,6.0585,6.0734,6.0722,6.0722,6.0405,6.0074,6.0074,6.0074,6.0074,6.0074,6.0338,6.0722,6.0722,6.0746,6.0781,6.0757,6.0769,6.0769,6.0734,6.0391,6.0089,6.0044,5.9674,5.9372,5.9302,5.899,5.8713,5.8673,5.8304,5.7997,5.7997,5.8033,5.8107,5.8107,5.8767,5.9294,5.9294,5.9942,6.0419,6.0493,6.0419,6.0419,6.0493,5.9061,5.818,5.818,5.818,5.818,5.818,5.8914,5.9294,5.9368,6.0162,6.0566,6.0566,6.0566,6.0566,6.0566,6.0566,6.0566,2.5543,0.0,2.6351,2.7549,2.6664,2.524,0.0,2.2966,2.1812,2.1812,2.1158,2.0962,2.2274,2.1466,2.1158,2.2932,2.3889,2.5077,2.7005,3.743,4.6778,5.2087,5.8704,6.2551,6.1897,6.2897,6.3358,6.2743,6.2332,6.1831,6.1127,6.0896,6.0781,6.0781,6.0781,6.0781,6.0781,6.0781,6.0781,6.0781,6.0781,6.0781,6.0781,6.0443,6.0245,0.0,0.0,0.0,5.9592,6.0089,5.9977,5.9592,6.0089,6.0059,5.9744,5.9744,5.9642,5.9559,5.9559,5.9559,5.9559,5.9559,5.9625,5.9744,5.9744,6.0217,6.0734,6.0365,6.0508,6.0634,5.9916,5.9916,5.9916,5.9194,5.9212,5.9194,5.8503,5.8508,5.8591,5.8216,5.8051,5.7997,5.7997,5.851,5.8914,5.8914,5.9612,6.0126,6.0126,6.0272,6.0639,6.1263,6.0786,6.0639,6.1263,6.0419,5.9832,5.9832,5.9832,5.9832,5.9832,6.0015,6.0419,6.1006,6.1851,6.2254,6.2254,6.2254,6.2254,6.2254,6.2254,6.2254,2.1632,2.2509,2.3394,2.3394,2.3086,2.2663,2.2197,2.1504,2.0962,2.0962,2.0615,2.0577,2.1504,2.1543,2.1889,2.3278,2.6467,3.0198,3.4314,4.3855,5.1587,5.4664,6.0358,6.3974,0.0,6.3205,6.2551,6.2139,6.1716,6.1281,6.0819,6.0781,6.0781,6.0781,6.0781,6.0781,6.0781,6.0781,6.0781,6.0781,6.0781,6.0781,6.0769,6.0324,6.0103,0.0,0.0,0.0,5.914,5.9576,5.9492,5.9121,5.9592,5.9609,5.9389,5.9389,5.9248,5.9065,5.9065,5.9065,5.9102,5.9319,5.9389,5.9389,5.9389,5.9738,6.0118,5.9855,5.9946,6.0059,5.9526,5.9424,5.9319,5.8815,5.8716,5.8611,5.8097,5.8172,5.8304,5.8065,5.7997,5.7997,5.7997,5.8694,5.9184,5.9184,6.0199,6.0933,6.0933,6.1263,6.1667,6.2108,6.1777,6.1704,6.2108,6.1741,6.119,6.0456,6.0419,6.0419,6.0419,6.075,6.1337,6.2144,6.2585,6.278,6.278,6.278,6.278,6.278,6.278,6.278,2.0258,2.2043,2.386,2.3586,2.3047,2.2586,2.247,2.1312,2.0308,2.0308,2.0308,2.0615,2.1654,2.2889,2.4086,2.5164,3.0352,3.643,4.2624,4.9202,5.3895,5.5164,5.9935,0.0,6.3974,6.2743,6.1908,6.1908,6.1216,6.0781,6.0781,6.0781,6.0781,6.0781,6.0781,6.0781,6.0781,6.0781,6.0781,6.0781,6.0781,6.0781,6.0769,6.0324,6.0074,5.9962,0.0,0.0,5.8632,5.9084,5.9028,5.8652,5.9102,5.9248,5.9176,5.9176,5.8951,5.8591,5.8591,5.8591,5.8673,5.9084,5.9176,5.9176,5.9176,5.9176,5.9176,5.9176,5.9284,5.9354,5.9212,5.8951,5.8693,5.8611,5.8304,5.7997,5.7997,5.7997,5.7997,5.7997,5.8107,5.818,5.818,5.8951,5.9551,5.9551,6.0823,6.1777,6.1777,6.2401,6.278,6.278,6.278,6.278,6.278,6.278,6.2218,6.086,6.0786,6.0786,6.0786,6.141,6.2108,6.2805,6.278,6.278,6.278,6.278,6.278,6.278,6.278,6.278,2.01,2.162,2.2663,2.1235,2.1273,2.1504,2.0846,2.0462,2.0308,2.0308,2.0308,2.2038,2.7808,2.8467,3.0012,3.5821,3.8815,4.1546,4.4786,5.0471,5.4126,5.3626,0.0,6.205,6.1435,6.1127,6.1012,6.1012,6.0858,6.0781,6.0781,6.0781,6.0781,6.0781,6.0781,6.0781,6.0781,6.0781,6.0781,6.0781,6.0781,6.0781,6.0769,6.0324,5.9885,5.9475,0.0,5.8528,5.8142,5.8611,5.8508,5.8164,5.8632,5.8549,5.8194,5.8194,5.8186,5.8097,5.8097,5.8097,5.8119,5.8172,5.8194,5.8194,5.8194,5.8194,5.8194,5.8194,5.8776,5.9212,5.8418,5.8461,5.8591,5.8194,5.8065,5.7997,5.7997,5.7997,5.7997,5.7997,5.8547,5.9001,5.9001,6.0236,6.1227,6.1227,6.2034,6.2622,6.2622,6.2707,6.278,6.278,6.278,6.278,6.278,6.278,6.267,6.245,6.2438,6.2438,6.2438,6.2548,6.267,6.278,6.278,6.278,6.278,6.278,6.278,6.278,6.278,6.278,1.8734,1.9845,2.1354,2.3774,2.3658,2.2816,2.2432,2.2004,2.1658,2.1658,2.1658,2.3428,2.9308,3.0814,3.4276,4.3902,4.6471,4.8625,5.2549,5.5472,5.7396,0.0,0.0,6.1435,6.1512,6.1089,6.0781,6.0781,6.0781,6.0781,6.0781,6.0781,6.0781,6.0781,6.0781,6.0781,6.0781,6.0781,6.0781,6.0781,6.0781,6.0781,6.0769,6.0324,5.9855,5.9389,0.0,5.8673,5.8042,5.8524,5.8418,5.802,5.8238,5.8172,5.7997,5.7997,5.7997,5.7997,5.7997,5.7997,5.7997,5.7997,5.7997,5.7997,5.7997,5.7997,5.7997,5.7997,5.8326,5.8528,5.8119,5.8164,5.826,5.8065,5.7997,5.7997,5.7997,5.7997,5.8143,5.8584,5.8951,5.9331,5.9795,6.0823,6.1594,6.1594,6.2291,6.278,6.278,6.278,6.278,6.278,6.278,6.278,6.278,6.278,6.278,6.278,6.278,6.278,6.278,6.278,6.278,6.278,6.278,6.278,6.278,6.278,6.278,6.278,6.278,6.278,1.757,1.8394,2.0204,2.5164,2.5972,2.5895,2.7087,2.6856,2.6356,2.6356,2.6356,2.7967,3.3308,3.6622,4.1277,4.9625,5.251,5.5126,5.9242,5.9819,6.0281,6.1639,6.1204,6.105,6.1716,6.1166,6.0781,6.0781,6.0781,6.0781,6.0781,6.0781,6.0781,6.0781,6.0781,6.0781,6.0781,6.0781,6.0781,6.0781,6.0781,6.0781,6.0781,6.0443,5.9991,5.9543,5.9441,5.8932,5.8172,5.8439,5.8348,5.7997,5.7997,5.7997,5.7997,5.7997,5.7997,5.7997,5.7997,5.7997,5.7997,5.7997,5.7997,5.7997,5.7997,5.7997,5.7997,5.7997,5.7997,5.7997,5.7997,5.7997,5.7997,5.7997,5.7997,5.7997,5.7997,5.7997,5.8253,5.9038,5.9331,5.9758,6.0529,6.1337,6.1887,6.1887,6.2401,6.278,6.278,6.278,6.278,6.278,6.278,6.278,6.278,6.278,6.278,6.278,6.278,6.278,6.278,6.278,6.278,6.278,6.278,6.278,6.278,6.278,6.278,6.278,6.278,6.278,1.7513,1.8322,1.9473,2.1466,2.6,3.1192,3.593,3.6969,3.6892,3.6892,3.6892,3.87,4.4615,5.0933,5.4511,5.2192,5.5818,5.9358,6.055,0.0,6.0742,6.0858,6.0819,6.0819,6.0896,6.0819,6.0781,6.0781,6.0781,6.0781,6.0781,6.0781,6.0781,6.0781,6.0781,6.0781,6.0781,6.0781,6.0781,6.0781,6.0781,6.0781,6.0781,6.0757,6.0495,6.0044,5.9576,5.9102,5.8611,5.8194,5.8042,5.7997,5.7997,5.7997,5.7997,5.7997,5.7997,5.7997,5.7997,5.7997,5.7997,5.7997,5.7997,5.7997,5.7997,5.7997,5.7997,5.7997,5.7997,5.7997,5.7997,5.7997,5.7997,5.7997,5.7997,5.7997,5.7997,5.7997,5.8253,5.9038,5.9795,6.0566,6.1374,6.2181,6.2732,6.2732,6.2768,6.278,6.278,6.278,6.278,6.278,6.278,6.278,6.278,6.278,6.278,6.278,6.278,6.278,6.278,6.278,6.278,6.278,6.278,6.278,6.278,6.278,6.278,6.278,6.278,6.278,1.6135,1.9502,2.3966,2.8313,3.2275,3.493,3.4237,3.693,3.9554,3.9554,4.0008,4.1854,4.674,5.2779,5.6742,5.6011,5.7934,5.9819,6.0666,6.0781,6.0781,6.0781,6.0781,6.0781,6.0781,6.0781,6.0781,6.0781,6.0781,6.0781,6.0781,6.0781,6.0781,6.0781,6.0781,6.0781,6.0781,6.0781,6.0781,6.0781,6.0781,6.0781,6.0781,6.0781,6.0378,5.9658,5.9792,5.923,5.8282,5.8375,5.826,5.7997,5.7997,5.7997,5.7997,5.7997,5.7997,5.7997,5.7997,5.7997,5.7997,5.7997,5.7997,5.7997,5.7997,5.7997,5.7997,5.7997,5.7997,5.7997,5.7997,5.7997,5.7997,5.7997,5.7997,5.7997,5.7997,5.7997,5.84,5.9685,6.0199,6.0823,6.2144,6.2622,6.278,6.278,6.278,6.278,6.278,6.278,6.278,6.278,6.278,6.278,6.278,6.278,6.278,6.278,6.278,6.278,6.278,6.3319,6.3356,6.278,6.3319,6.3356,6.278,6.278,6.278,6.278,6.278,6.278,1.5252,2.0003,2.5967,3.0314,3.5545,3.9008,3.6622,3.8584,4.1431,4.3324,4.524,4.7086,4.8625,5.3549,5.7165,5.6395,5.8319,6.0127,6.0704,6.0781,6.0781,6.0781,6.0781,6.0704,6.0435,6.0627,6.0704,6.0396,6.0627,6.0781,6.0781,6.0781,6.0781,6.0781,6.0781,6.0781,6.0781,6.0781,6.0781,6.0781,6.0781,6.0781,6.0781,6.0781,6.0456,5.9855,6.0006,5.9458,5.8461,5.8632,5.8418,5.7997,5.7997,5.7997,5.7997,5.7997,5.7997,5.7997,5.7997,5.7997,5.7997,5.7997,5.7997,5.7997,5.7997,5.7997,5.7997,5.7997,5.7997,5.7997,5.7997,5.7997,5.7997,5.7997,5.7997,5.7997,5.7997,5.8217,5.8767,6.0126,6.0603,6.1227,6.2585,6.278,6.278,6.278,6.278,6.278,6.278,6.278,6.278,6.278,6.278,6.278,6.278,6.278,6.278,6.278,6.3062,6.3209,6.3209,6.3759,6.3943,6.3587,6.4163,6.4053,6.3209,6.3209,6.3062,6.278,6.278,6.278,1.5273,1.9661,2.4471,2.5231,3.4353,4.3547,4.5248,4.3662,4.3547,4.9442,5.4021,5.5714,5.1481,5.4857,5.6896,5.2654,5.6934,6.0781,6.0781,6.0781,6.0781,6.0781,6.0781,6.0435,5.9588,6.0281,6.0435,5.955,6.0281,6.0781,0.0,6.0781,6.0781,6.0781,6.0781,6.0781,6.0781,6.0781,6.0781,6.0781,6.0781,6.0781,6.0781,6.0781,6.0781,6.0757,6.0311,5.9839,5.9354,5.8894,5.8418,5.7997,5.7997,5.7997,5.7997,5.7997,5.7997,5.7997,5.7997,5.7997,5.7997,5.7997,5.7997,5.7997,5.7997,5.7997,5.7997,5.7997,5.7997,5.7997,5.7997,5.7997,5.7997,5.7997,5.7997,5.7997,5.7997,5.8657,5.9441,6.0272,6.1043,6.1851,6.2658,6.278,6.278,6.278,6.278,6.278,6.278,6.278,6.278,6.278,6.278,6.278,6.278,6.278,6.278,6.278,6.3613,6.409,6.409,6.409,6.4494,6.5301,6.5301,6.4934,6.409,6.409,6.3686,6.2817,6.2817,6.2817,1.9968,2.7928,3.6469,3.6084,4.0477,4.5278,4.6971,4.6778,4.6047,4.547,5.2049,5.6242,5.0779,5.4434,5.7896,5.6626,5.8357,6.0089,6.0704,6.0281,5.9896,5.9896,5.9396,5.8934,5.8665,5.8896,5.9165,5.9473,5.9742,5.9896,0.0,6.0473,6.0512,5.9896,6.0473,6.0781,6.0781,6.0781,6.0781,6.0781,6.0781,6.0781,6.0781,6.0781,6.0622,6.0297,5.9823,5.9337,5.8874,5.8397,5.8119,5.7997,5.7997,5.7997,5.7997,5.7997,5.7997,5.7997,5.7997,5.7997,5.7997,5.7997,5.7997,5.7997,5.7997,5.7997,5.7997,5.7997,5.7997,5.7997,5.7997,5.7997,5.7997,5.7997,5.8437,5.8841,5.8841,5.9501,6.0272,6.108,6.1447,6.1851,6.2658,6.278,6.278,6.278,6.278,6.278,6.278,6.278,6.3025,6.3649,6.3172,6.3062,6.3649,6.3172,6.278,6.278,6.3613,6.409,6.409,6.5191,6.5632,6.5301,6.5852,6.5742,6.4934,6.4934,6.4824,6.4567,6.4567,6.4273,2.2731,3.1968,4.1777,4.1585,4.5086,4.8625,4.8625,4.9394,4.9548,4.7548,5.3318,5.7588,5.3664,5.5857,5.8204,5.7857,5.8742,5.9588,5.9781,5.9935,5.9781,5.9088,5.8896,5.8511,5.7857,5.8088,5.8357,5.8511,5.9127,0.0,0.0,6.0319,6.055,6.0012,6.0512,6.0781,6.0781,6.0781,6.0781,6.0781,6.0781,6.0781,6.0781,6.0781,6.0647,6.0338,5.9674,5.9121,5.8673,5.8172,5.7997,5.7997,5.7997,5.7997,5.7997,5.7997,5.7997,5.7997,5.7997,5.7997,5.7997,5.7997,5.7997,5.7997,5.7997,5.7997,5.7997,5.7997,5.7997,5.7997,5.7997,5.7997,5.807,5.84,5.8877,5.9294,5.9588,6.0309,6.1006,6.152,6.1851,6.2218,6.2707,6.278,6.278,6.278,6.278,6.278,6.278,6.278,6.3025,6.3539,6.3429,6.3392,6.3576,6.3429,6.3172,6.2817,6.3943,6.4567,6.4567,6.5815,6.6402,6.6256,6.6733,6.6586,6.5778,6.5778,6.5632,6.5301,6.5301,6.5044,2.4267,3.3006,4.2115,4.347,4.8663,5.2856,5.0587,5.1933,5.3395,5.2472,5.6088,5.9011,5.7703,5.7934,5.8011,5.7137,5.8319,5.9127,5.8396,5.955,5.9896,5.8357,5.8781,5.855,5.7022,5.7588,5.778,5.706,5.8396,0.0,0.0,6.0204,6.0666,6.055,6.0704,6.0742,6.0666,6.0742,6.0781,6.0781,6.0781,6.0781,6.0781,6.0781,6.0757,6.0622,5.9744,5.9047,5.8611,5.8186,5.7997,5.7997,5.7997,5.7997,5.7997,5.7997,5.7997,5.7997,5.7997,5.7997,5.7997,5.7997,5.7997,5.7997,5.7997,5.7997,5.7997,5.7997,5.7997,5.7997,5.7997,5.7997,5.8217,5.9001,5.9258,5.9515,6.0346,6.1153,6.1704,6.1704,6.2291,6.278,6.278,6.278,6.278,6.278,6.278,6.278,6.278,6.278,6.2817,6.2915,6.3576,6.3686,6.2989,6.3576,6.3686,6.2989,6.442,6.5338,6.5411,6.6182,6.6953,6.7687,6.7687,6.732,6.6623,6.6623,6.6219,6.5521,6.5521,6.5485,2.7079,3.4776,4.297,4.7855,5.2125,5.5203,5.5329,5.6319,5.4934,4.6932,5.2356,5.7088,5.2202,5.5126,5.8011,5.7137,5.7896,5.8511,5.8319,5.8011,5.7676,5.733,5.6819,5.6395,5.6011,5.6165,5.6472,5.6945,0.0,0.0,5.8511,5.9319,5.9473,5.8858,6.0127,6.0473,5.9781,6.0473,6.0781,0.0,6.0781,6.0781,6.0781,6.0781,6.0378,5.9658,5.9084,5.857,5.8142,5.8042,5.7997,5.7997,5.7997,5.7997,5.7997,5.7997,5.7997,5.7997,5.7997,5.7997,5.7997,5.7997,5.7997,5.7997,5.7997,5.7997,5.7997,5.7997,5.7997,5.7997,5.7997,5.7997,5.8217,5.9001,5.9661,6.0382,6.1153,6.1961,6.2548,6.2548,6.2695,6.278,6.278,6.278,6.278,6.278,6.278,6.278,6.278,6.278,6.3062,6.3759,6.3392,6.3282,6.3759,6.3356,6.3282,6.3796,6.4751,6.5595,6.6219,6.699,6.7504,6.7687,6.7687,6.7614,6.743,6.743,6.7357,6.7173,6.7173,6.6843,2.8879,3.5968,4.3431,5.0202,5.351,5.5434,5.6714,5.7011,5.5665,5.0741,5.4318,5.7203,5.3703,5.5588,5.7396,5.6522,5.7088,5.7511,5.7126,5.7396,5.7319,5.6483,5.6329,5.6165,5.5742,5.5703,5.5895,5.6329,0.0,5.7214,5.7665,5.8473,5.8742,5.8319,5.9165,5.9588,5.9511,5.9935,6.0396,6.0781,6.0781,6.0781,6.0781,6.0585,6.0189,5.9712,5.9009,5.8549,5.8326,5.8074,5.7997,5.7997,5.7997,5.7997,5.7997,5.7997,5.7997,5.7997,5.7997,5.7997,5.7997,5.7997,5.7997,5.7997,5.7997,5.7997,5.7997,5.7997,5.7997,5.7997,5.7997,5.829,5.8804,5.9575,6.0089,6.0639,6.141,6.2218,6.278,6.278,6.278,6.278,6.278,6.278,6.278,6.278,6.278,6.278,6.278,6.278,6.2989,6.3429,6.3429,6.3613,6.4053,6.3686,6.3796,6.4604,6.5081,6.5668,6.6476,6.7247,6.7687,6.7687,6.7687,6.7687,6.7687,6.7687,6.7687,6.7687,6.7687,6.7467,2.7944,3.5654,4.3615,5.1087,5.3626,5.4626,5.6022,5.5895,5.5703,5.6406,5.7242,5.7627,5.6907,5.6791,5.656,5.5818,5.6329,5.6522,5.578,5.6934,5.7319,5.5857,5.6329,5.6483,5.578,5.5703,5.5703,0.0,0.0,5.683,5.6983,5.7665,5.8088,5.8088,5.8204,5.855,5.905,5.9358,5.9858,6.0589,6.0742,6.0781,6.0769,6.0217,5.9962,5.9931,5.9047,5.8652,5.8528,5.8164,5.7997,5.7997,5.7997,5.7997,5.7997,5.7997,5.7997,5.7997,5.7997,5.7997,5.7997,5.7997,5.7997,5.7997,5.7997,5.7997,5.7997,5.7997,5.7997,5.8033,5.818,5.8694,5.9404,6.0236,6.0529,6.0823,6.163,6.2328,6.278,6.278,6.278,6.278,6.278,6.278,6.278,6.278,6.278,6.278,6.278,6.278,6.278,6.278,6.3466,6.387,6.387,6.4016,6.442,6.5264,6.5448,6.5888,6.6659,6.7357,6.7687,6.7687,6.7687,6.7687,6.7687,6.7687,6.7687,6.7687,6.7687,6.7687,2.0181,3.1615,4.3462,5.0346,5.2731,5.3433,5.3664,5.4203,5.4703,5.4818,5.5472,5.6011,5.5895,5.5857,5.5818,5.5703,5.578,5.5818,5.5703,5.5895,5.5972,5.5742,5.578,5.5818,5.5703,5.5703,5.5703,0.0,5.5818,5.6214,5.6945,5.7099,5.7176,5.7176,5.7896,5.7973,5.733,5.8781,5.955,5.9665,6.0435,6.0781,6.0769,5.9885,5.9492,5.9458,5.8932,5.8482,5.8074,5.8042,5.7997,5.7997,5.7997,5.7997,5.7997,5.7997,5.7997,5.7997,5.7997,5.7997,5.7997,5.7997,5.7997,5.7997,5.7997,5.7997,5.7997,5.7997,5.7997,5.8143,5.8854,5.9111,5.9404,6.0236,6.0933,6.1667,6.2475,6.2707,6.278,6.278,6.278,6.278,6.278,6.278,6.278,6.278,6.278,6.278,6.278,6.278,6.278,6.278,6.2915,6.2989,6.2989,6.3686,6.442,6.5264,6.5962,6.6696,6.7504,6.7614,6.7687,6.7687,6.7687,6.7687,6.7687,6.7687,6.7687,6.7687,6.7687,6.7687,1.983,3.116,4.2008,4.597,4.9731,5.2577,5.3087,5.351,5.378,5.378,5.4049,5.4587,5.5511,5.5318,5.5011,5.5011,5.5011,5.4857,5.4357,5.5126,5.5511,5.5088,5.5434,5.5703,5.5703,5.5703,5.5703,0.0,5.5703,5.5857,5.6252,5.6291,5.6291,5.6291,5.6626,5.7126,5.7703,5.8473,5.9319,6.0242,6.0627,6.0781,6.0769,6.0103,5.9808,5.976,5.8716,5.8348,5.8354,5.8097,5.7997,5.7997,5.7997,5.7997,5.7997,5.7997,5.7997,5.7997,5.7997,5.7997,5.7997,5.7997,5.7997,5.7997,5.7997,5.7997,5.7997,5.7997,5.8327,5.8767,5.9111,5.9869,6.0639,6.1006,6.1704,6.2365,6.2707,6.278,6.278,6.278,6.278,6.278,6.278,6.278,6.278,6.278,6.278,6.278,6.278,6.278,6.278,6.278,6.278,6.3025,6.3503,6.387,6.464,6.5888,6.6292,6.6843,6.765,6.7687,6.7687,6.7687,6.7687,6.7687,6.7687,6.7687,6.7687,6.7687,6.7687,6.7687,2.0131,2.878,3.6745,4.1316,4.5932,4.9885,5.2087,5.2741,5.2856,5.2856,5.3049,5.3587,5.4818,5.4587,5.4164,5.4164,5.4164,5.3933,5.328,5.428,5.4934,5.4549,5.5011,5.5472,5.5665,5.5703,5.5703,0.0,5.5703,5.5703,5.5703,5.5703,5.5703,5.5703,5.5703,5.6434,5.7934,5.8396,5.9358,6.0781,6.0781,6.0746,6.061,6.0132,5.9855,5.9712,5.8632,5.8326,5.8466,5.8142,5.7997,5.7997,5.7997,5.7997,5.7997,5.7997,5.7997,5.7997,5.7997,5.7997,5.7997,5.7997,5.7997,5.7997,5.7997,5.7997,5.7997,5.7997,5.8584,5.9258,5.9441,6.0566,6.163,6.1851,6.2365,6.278,6.278,6.278,6.278,6.278,6.278,6.278,6.278,6.278,6.278,6.278,6.278,6.278,6.278,6.278,6.278,6.278,6.278,6.3062,6.3723,6.4163,6.4934,6.6109,6.6586,6.7063,6.7677,6.7687,6.7687,6.7687,6.7687,6.7687,6.7687,6.7687,6.7687,6.7687,6.7687,6.7687,1.8577,2.1423,2.5428,3.7591,4.1508,4.3816,4.951,5.1433,5.1962,5.1962,5.2615,5.3241,5.3318,5.3318,5.328,5.328,5.328,5.3241,5.3203,5.328,5.3626,5.4395,5.4549,5.4857,5.5626,5.5703,5.5703,0.0,5.5703,5.5703,5.5703,5.5703,5.5703,5.5703,5.5703,5.6126,5.706,5.8627,5.9896,6.0781,6.0781,6.0585,6.0132,5.9642,5.9176,5.8756,5.8713,5.8418,5.8042,5.802,5.7997,5.7997,5.7997,5.7997,5.7997,5.7997,5.7997,5.7997,5.7997,5.7997,5.7997,5.7997,5.7997,5.7997,5.7997,5.7997,5.7997,5.7997,5.8584,5.9368,6.0162,6.097,6.1777,6.2585,6.2743,6.278,6.278,6.278,6.278,6.278,6.278,6.278,6.278,6.278,6.278,6.278,6.278,6.278,6.278,6.278,6.278,6.278,6.278,6.2817,6.2853,6.4347,6.5264,6.5375,6.6769,6.765,6.7687,6.7687,6.7687,6.7687,6.7687,6.7687,6.7687,6.7687,6.7687,6.7687,6.7687,6.7687,1.3772,1.758,2.1962,2.7044,3.1852,3.6007,3.8661,4.247,4.5577,4.6124,4.9086,5.1587,5.1587,5.201,5.2385,5.2385,5.2385,5.2202,5.1664,5.251,5.3126,5.2856,5.3818,5.4626,5.4895,5.5395,5.5703,0.0,0.0,5.5703,5.5703,5.5703,5.5703,5.5703,5.5446,5.5835,5.692,5.8075,5.9064,5.9901,5.9901,5.9823,5.9625,5.9158,5.8855,5.8693,5.8375,5.8164,5.7997,5.7997,5.7997,5.7997,5.7997,5.7997,5.7997,5.7997,5.7997,5.7997,5.7997,5.7997,5.7997,5.7997,5.7997,5.7997,5.7997,5.7997,5.7997,5.7997,5.8951,6.0052,6.0346,6.1374,6.2438,6.2732,6.278,6.278,6.278,6.278,6.278,6.278,6.278,6.278,6.278,6.278,6.278,6.278,6.278,6.278,6.278,6.278,6.278,6.278,6.278,6.278,6.278,6.4347,6.5301,6.5301,6.6806,6.7687,6.7687,6.7687,6.7687,6.7687,6.7687,6.7687,6.7687,6.7687,6.7687,6.7687,6.7687,6.7687,1.081,1.408,1.8003,2.0812,2.4928,2.9083,3.2199,3.7276,4.1623,4.247,4.6932,5.0712,5.0712,5.1125,5.151,5.151,5.151,5.1318,5.0789,5.1664,5.2241,5.1923,5.2933,5.3857,5.4434,5.4972,5.5395,0.0,0.0,0.0,5.5703,5.5703,5.5621,5.5481,5.5798,5.6244,5.6882,5.8031,5.8878,5.9389,5.9389,5.9302,5.9139,5.8835,5.8611,5.8461,5.8142,5.7997,5.7997,5.7997,5.7997,5.7997,5.7997,5.7997,5.7997,5.7997,5.7997,5.7997,5.7997,5.7997,5.7997,5.7997,5.7997,5.7997,5.7997,5.7997,5.7997,5.7997,5.8951,6.0052,6.0346,6.1594,6.278,6.278,6.278,6.278,6.278,6.278,6.278,6.278,6.278,6.278,6.278,6.278,6.278,6.278,6.278,6.278,6.278,6.278,6.278,6.278,6.278,6.289,6.3209,6.4494,6.5411,6.5705,6.6953,6.7687,6.7687,6.7687,6.7687,6.7687,6.7687,6.7687,6.7687,6.7687,6.7687,6.7687,6.7687,6.7687,0.0,0.0,0.0,1.9542,2.1196,2.3197,3.0852,3.6399,4.0285,4.1585,4.6394,5.0481,5.0673,5.0712,5.0712,5.0712,5.0712,5.0712,5.0712,5.0712,5.0971,5.1769,5.1885,5.2577,5.428,5.4472,5.4818,0.0,5.5703,5.5703,5.5703,5.5703,5.5531,5.5121,5.6681,5.7317,5.6866,5.8487,5.9317,5.9354,5.9354,5.9102,5.8693,5.8693,5.8439,5.7997,5.7997,5.7997,5.7997,5.7997,5.7997,5.7997,5.7997,5.7997,5.7997,5.7997,5.7997,5.7997,5.7997,5.7997,5.7997,5.7997,5.7997,5.7997,5.7997,5.7997,5.7997,5.7997,5.8584,5.9368,6.0236,6.163,6.278,6.278,6.278,6.278,6.278,6.278,6.278,6.278,6.278,6.278,6.278,6.278,6.278,6.278,6.278,6.278,6.278,6.278,6.278,6.278,6.2817,6.3172,6.4016,6.4861,6.5668,6.6439,6.7247,6.7687,6.7687,6.7687,6.7687,6.7687,6.7687,6.7687,6.7687,6.7687,6.7687,6.7687,6.7687,6.7687,1.0887,0.0,0.0,0.0,0.0,0.0,2.3851,2.6197,2.9813,4.0546,4.3047,4.4825,4.9788,5.0712,5.0712,5.0712,5.0712,5.0712,5.0712,5.0712,5.0789,5.101,5.1548,5.2346,5.3433,5.4126,0.0,0.0,5.5703,5.5703,5.5703,5.5703,5.5531,5.5121,5.526,5.568,5.6388,5.658,5.7249,5.8375,5.8375,5.8326,5.8172,5.8172,5.8119,5.7997,5.7997,5.7997,5.7997,5.7997,5.7997,5.7997,5.7997,5.7997,5.7997,5.7997,5.7997,5.7997,5.7997,5.7997,5.7997,5.7997,5.7997,5.7997,5.7997,5.7997,5.7997,5.7997,5.8584,5.9515,6.0896,6.2034,6.278,6.278,6.278,6.278,6.278,6.278,6.278,6.278,6.278,6.278,6.278,6.278,6.278,6.278,6.278,6.278,6.278,6.278,6.278,6.278,6.3356,6.3833,6.4053,6.5375,6.6256,6.6476,6.7247,6.7687,6.7687,6.7687,6.7687,6.7687,6.7687,6.7687,6.7687,6.7687,6.7687,6.7687,6.7687,6.7687,1.1464,1.1274,1.1387,1.2231,0.0,0.0,1.8388,2.0619,2.4812,0.0,3.8046,3.9323,4.5778,4.4932,4.4085,4.6586,4.6971,4.7855,5.0366,5.0712,5.0712,5.0712,5.1125,5.1856,5.3087,5.3664,5.4434,5.5588,5.5703,5.5703,5.5703,5.5703,5.5531,5.5121,5.5042,5.5317,5.5975,5.6071,5.664,5.7743,5.7927,5.7997,5.7997,5.7997,5.7997,5.7997,5.7997,5.7997,5.7997,5.7997,5.7997,5.7997,5.7997,5.7997,5.7997,5.7997,5.7997,5.7997,5.7997,5.7997,5.7997,5.7997,5.7997,5.7997,5.7997,5.7997,5.7997,5.7997,5.8841,5.9942,6.086,6.1961,6.278,6.278,6.278,6.278,6.278,6.278,6.278,6.278,6.278,6.278,6.278,6.278,6.278,6.278,6.278,6.278,6.278,6.278,6.2952,6.3319,6.3796,6.4347,6.5044,6.5962,6.6623,6.699,6.743,6.7687,6.7687,6.7687,6.7687,6.7687,6.7687,6.7687,6.7687,6.7687,6.7687,6.7687,6.7687,6.7687,1.2349,1.2469,1.3159,1.3882,1.2846,0.0,1.5231,1.8231,2.2697,0.0,3.2006,3.3353,3.9423,3.6276,3.4468,3.9692,4.1231,4.3893,4.9865,5.0712,5.0712,5.0712,5.0712,5.1318,5.2895,5.3126,5.3857,5.5434,5.5665,5.5703,5.5703,5.5703,5.5543,5.5173,5.5481,5.5665,5.5778,5.6317,5.6857,5.7387,5.7715,5.7923,5.7997,5.7997,5.7997,5.7997,5.7997,5.7997,5.7997,5.7997,5.7997,5.7997,5.7997,5.7997,5.7997,5.7997,5.7997,5.7997,5.7997,5.7997,5.7997,5.7997,5.7997,5.7997,5.7997,5.7997,5.7997,5.7997,5.9171,6.0419,6.0419,6.1594,6.278,6.278,6.278,6.278,6.278,6.278,6.278,6.278,6.278,6.278,6.278,6.278,6.278,6.278,6.278,6.278,6.278,6.278,6.3099,6.387,6.4127,6.4787,6.6256,6.6512,6.6953,6.7677,6.7687,6.7687,6.7687,6.7687,6.7687,6.7687,6.7687,6.7687,6.7687,6.7687,6.7687,6.7687,6.7687,6.7687,1.5388,1.5118,1.4731,1.4923,1.4151,0.0,1.9231,1.6696,1.6696,0.0,2.6538,2.4769,3.1385,3.2231,3.2083,3.2538,3.7769,4.3893,4.9865,5.0712,5.0712,5.0712,5.0712,5.1087,5.2038,5.2779,5.3626,5.4664,5.5318,5.5703,5.5703,5.5703,5.5643,5.5588,5.5339,5.5531,5.6188,5.5637,5.6043,5.7387,5.7162,5.7373,5.7997,5.7997,5.7997,5.7997,5.7997,5.7997,5.7997,5.7997,5.7997,5.7997,5.7997,5.7997,5.7997,5.7997,5.7997,5.7997,5.7997,5.7997,5.7997,5.7997,5.7997,5.7997,5.7997,5.7997,5.7997,5.7997,5.9171,6.0419,6.0419,6.1594,6.278,6.278,6.278,6.278,6.278,6.278,6.278,6.278,6.278,6.278,6.278,6.278,6.278,6.278,6.278,6.278,6.278,6.278,6.2879,6.3062,6.4273,6.5191,6.5521,6.6733,6.7504,6.7687,6.7687,6.7687,6.7687,6.7687,6.7687,6.7687,6.7687,6.7687,6.7687,6.7687,6.7687,6.7687,6.7687,6.7687,1.6619,1.6465,1.6465,1.6465,1.55,0.0,0.0,1.508,1.4813,2.4582,2.1235,1.8581,2.5351,2.4197,2.3197,2.612,2.9813,3.4545,4.0931,4.6941,5.0712,5.0712,5.0712,5.101,5.1808,5.2308,5.3087,5.4395,5.5241,5.5703,5.5703,5.5703,5.5703,5.5703,5.5287,5.5377,5.6,5.5977,5.6329,5.7155,5.7563,5.7847,5.7997,5.7997,5.7997,5.7997,5.7997,5.7997,5.7997,5.7997,5.7997,5.7997,5.7997,5.7997,5.7997,5.7997,5.7997,5.7997,5.7997,5.7997,5.7997,5.7997,5.7997,5.7997,5.7997,5.7997,5.7997,5.7997,5.9171,6.0419,6.0419,6.1594,6.278,6.278,6.278,6.278,6.278,6.278,6.278,6.278,6.278,6.278,6.278,6.278,6.278,6.278,6.278,6.278,6.278,6.278,6.2989,6.3392,6.4567,6.5485,6.5852,6.699,6.7687,6.7687,6.7687,6.7687,6.7687,6.7687,6.7687,6.7687,6.7687,6.7687,6.7687,6.7687,6.7687,6.7687,6.7687,6.7687,0.0,0.0,0.0,0.0,0.0,1.5538,0.0,0.0,0.0,1.9546,1.6275,1.4085,1.9392,1.6006,0.0,1.9508,0.0,0.0,0.0,4.0046,0.0,4.7249,4.7441,4.8163,4.9808,5.1115,5.2615,5.4357,5.5088,5.5549,5.5703,5.5703,5.5703,5.5703,5.5387,5.5375,5.5703,5.6278,5.6684,5.6907,5.7809,5.8164,5.7997,5.7997,5.7997,5.7997,5.7997,5.7997,5.7997,5.7997,5.7997,5.7997,5.7997,5.7997,5.7997,5.7997,5.7997,5.7997,5.7997,5.7997,5.7997,5.7997,5.7997,5.7997,5.7997,5.7997,5.7997,5.7997,5.9061,6.0199,6.0382,6.1484,6.2622,6.2768,6.278,6.278,6.278,6.278,6.278,6.278,6.278,6.278,6.278,6.278,6.278,6.278,6.278,6.278,6.278,6.278,6.3062,6.3759,6.4567,6.5411,6.6219,6.699,6.754,6.7687,6.7687,6.7687,6.7687,6.7687,6.7687,6.7687,6.7687,6.7687,6.7687,6.7687,6.7687,6.7687,6.7687,6.7687,0.0,0.0,0.0,0.0,1.7545,0.0,0.0,0.0,1.3574,1.2849,0.0,1.1543,1.1538,0.0,0.0,0.0,0.0,0.0,2.1846,2.8736,3.4122,3.4853,3.5591,3.7892,0.0,4.8385,5.2615,5.4357,5.4587,5.4934,5.5665,5.5703,5.5703,5.5703,5.5671,5.5632,5.5703,5.5428,5.5844,5.6907,5.6631,5.701,5.7997,5.7997,5.7997,5.7997,5.7997,5.7997,5.7997,5.7997,5.7997,5.7997,5.7997,5.7997,5.7997,5.7997,5.7997,5.7997,5.7997,5.7997,5.7997,5.7997,5.7997,5.7997,5.7997,5.7997,5.7997,5.7997,5.8657,5.9478,6.0236,6.108,6.1924,6.2658,6.278,6.278,6.278,6.278,6.278,6.278,6.278,6.278,6.278,6.278,6.278,6.278,6.278,6.278,6.278,6.278,6.2842,6.2952,6.3723,6.4567,6.5375,6.6182,6.6953,6.7677,6.7687,6.7687,6.7687,6.7687,6.7687,6.7687,6.7687,6.7687,6.7687,6.7687,6.7687,6.7687,6.7687,6.7687,0.0,0.0,0.0,0.0,0.0,0.0,1.5923,0.0,1.3687,0.0,0.0,0.0,0.0,0.0,0.0,0.0,1.4198,0.0,0.0,0.0,2.3351,0.0,0.0,0.0,0.0,0.0,0.0,0.0,4.9048,4.9702,5.0548,5.3857,5.5703,5.5703,5.5703,5.5703,5.5703,5.6042,5.6562,5.7294,5.7592,5.7958,5.8397,5.8397,5.826,5.7997,5.7997,5.7997,5.7997,5.7997,5.7997,5.7997,5.7997,5.7997,5.7997,5.7997,5.7997,5.7997,5.7997,5.7997,5.7997,5.7997,5.7997,5.7997,5.7997,5.7997,5.7997,5.7997,5.8914,5.9979,6.0309,6.1337,6.2401,6.2707,6.278,6.278,6.278,6.278,6.278,6.278,6.278,6.278,6.278,6.278,6.278,6.278,6.278,6.278,6.278,6.278,6.278,6.278,6.3576,6.4237,6.4567,6.5338,6.6145,6.6953,6.743,6.7687,6.7687,6.7687,6.7687,6.7687,6.7687,6.7687,6.7687,6.7687,6.7687,6.7687,6.7687,6.7687,3.039,0.0,0.0,0.0,0.0,0.0,0.0,0.0,0.0,0.0,0.0,0.0,0.0,0.0,1.2505,1.2661,0.0,1.2041,0.0,1.2199,0.0,0.0,0.0,0.0,0.0,0.0,0.0,4.1162,4.2132,4.3662,4.6394,5.0818,5.401,5.5665,5.5703,5.5703,5.5703,5.6329,5.6966,5.7596,5.8182,5.8619,5.8894,5.8894,5.8632,5.8172,5.8172,5.8119,5.7997,5.7997,5.7997,5.7997,5.7997,5.7997,5.7997,5.7997,5.7997,5.7997,5.7997,5.7997,5.7997,5.7997,5.7997,5.7997,5.7997,5.7997,5.7997,5.7997,5.8988,6.0126,6.0346,6.1447,6.2548,6.2743,6.278,6.278,6.278,6.278,6.278,6.278,6.278,6.278,6.278,6.278,6.278,6.278,6.278,6.278,6.278,6.278,6.278,6.278,6.3356,6.3833,6.4053,6.464,6.5411,6.6439,6.7247,6.7687,6.7687,6.7687,6.7687,6.7687,6.7687,6.7687,6.7687,6.7687,6.7687,6.7687,6.7687,6.7687,0.0,0.0,0.0,3.5199,0.0,0.0,0.0,0.0,1.6195,0.0,0.0,0.0,0.0,1.5115,1.458,1.2969,1.3346,0.0,0.0,0.0,0.0,0.0,0.0,0.0,0.0,2.9462,3.2583,3.4398,3.4552,3.7822,4.5248,4.6624,4.9817,5.5511,5.5703,5.5703,5.5703,5.5742,5.6391,5.7596,5.7634,5.8266,5.9372,5.9372,5.9102,5.8693,5.8693,5.8418,5.7997,5.7997,5.7997,5.7997,5.7997,5.7997,5.7997,5.7997,5.7997,5.7997,5.7997,5.7997,5.7997,5.7997,5.7997,5.7997,5.7997,5.7997,5.7997,5.7997,5.8621,5.9404,6.0199,6.1006,6.1814,6.2622,6.278,6.278,6.278,6.278,6.278,6.278,6.278,6.278,6.278,6.278,6.278,6.278,6.278,6.278,6.278,6.278,6.278,6.278,6.2817,6.3172,6.4016,6.4127,6.4787,6.6402,6.7247,6.7687,6.7687,6.7687,6.7687,6.7687,6.7687,6.7687,6.7687,6.7687,6.7687,6.7687,6.7687,6.7687,0.0,0.0,4.1162,4.2316,0.0,0.0,0.0,0.0,0.0,0.0,0.0,0.0,0.0,1.5965,1.4846,1.3692,1.2808,1.1731,0.0,0.0,0.0,0.0,0.0,0.0,0.0,0.0,0.0,2.7203,2.8005,3.166,3.9315,4.3739,4.9009,5.5511,5.5703,5.5703,5.5703,5.5703,5.6187,5.7196,5.781,5.8385,5.9019,5.9589,5.9592,5.9158,5.9158,5.9065,5.8913,5.8591,5.8482,5.8439,5.8119,5.7997,5.7997,5.7997,5.7997,5.7997,5.7997,5.7997,5.7997,5.7997,5.7997,5.7997,5.7997,5.7997,5.7997,5.7997,5.8951,6.0052,6.0346,6.141,6.2475,6.2768,6.278,6.278,6.278,6.278,6.278,6.278,6.278,6.278,6.278,6.278,6.278,6.278,6.278,6.278,6.278,6.278,6.278,6.278,6.278,6.289,6.3209,6.4273,6.5338,6.6439,6.7247,6.7687,6.7687,6.7687,6.7687,6.7687,6.7687,6.7687,6.7687,6.7687,6.7687,6.7687,6.7687,6.7687,4.8971,4.8509,0.0,4.8817,4.2508,0.0,3.3045,0.0,0.0,0.0,0.0,0.0,0.0,0.0,1.5692,1.4536,1.2964,1.1466,0.0,1.0577,0.0,0.0,1.2964,1.5,0.0,1.6503,1.6429,2.0623,2.1115,2.5654,0.0,0.0,4.6509,5.5434,5.5703,5.5703,5.5703,5.5703,5.6137,5.7022,5.7896,5.8549,5.9075,5.9955,6.0103,5.9625,5.9625,5.9543,5.9372,5.9065,5.8951,5.8913,5.8439,5.8238,5.8216,5.8051,5.7997,5.7997,5.7997,5.7997,5.7997,5.7997,5.7997,5.7997,5.7997,5.7997,5.7997,5.7997,5.9171,6.0419,6.0419,6.1594,6.278,6.278,6.278,6.278,6.278,6.278,6.278,6.278,6.278,6.278,6.278,6.278,6.278,6.278,6.278,6.278,6.278,6.278,6.278,6.278,6.278,6.278,6.278,6.4347,6.5521,6.6035,6.71,6.7687,6.7687,6.7687,6.7687,6.7687,6.7687,6.7687,6.7687,6.7687,6.7687,6.7687,6.7687,6.7687]}]]